<?xml version="1.0" encoding="UTF-8" standalone="no" ?>
<gpx xmlns="http://www.topografix.com/GPX/1/1" xmlns:xsi="http://www.w3.org/2001/XMLSchema-instance" xsi:schemaLocation="http://www.topografix.com/GPX/1/1 http://www.topografix.com/GPX/1/1/gpx.xsd" version="1.1" creator="VisuGPX - https://www.visugpx.com">
  <metadata>
    <name>Pic Ouest Côte belle</name>
    <desc><![CDATA[Le Laus - Pic Ouest Côte belle]]></desc>
  </metadata>
  <trk>
    <name><![CDATA[Cote_Belle_Pic_O_25 GEN 2017]]></name>
    <trkseg>
      <trkpt lat="44.8562" lon="6.72672">
        <ele>1755.99</ele>
        <time>2017-01-25T07:59:06Z</time>
      </trkpt>
      <trkpt lat="44.8562" lon="6.72672">
        <ele>1755.99</ele>
        <time>2017-01-25T07:59:07Z</time>
      </trkpt>
      <trkpt lat="44.85624" lon="6.7267">
        <ele>1755.02</ele>
        <time>2017-01-25T07:59:21Z</time>
      </trkpt>
      <trkpt lat="44.85623" lon="6.72671">
        <ele>1755.02</ele>
        <time>2017-01-25T07:59:38Z</time>
      </trkpt>
      <trkpt lat="44.85622" lon="6.72669">
        <ele>1755.02</ele>
        <time>2017-01-25T07:59:51Z</time>
      </trkpt>
      <trkpt lat="44.85622" lon="6.72669">
        <ele>1755.02</ele>
        <time>2017-01-25T08:00:03Z</time>
      </trkpt>
      <trkpt lat="44.85624" lon="6.7267">
        <ele>1755.02</ele>
        <time>2017-01-25T08:00:20Z</time>
      </trkpt>
      <trkpt lat="44.85621" lon="6.7267">
        <ele>1754.54</ele>
        <time>2017-01-25T08:00:32Z</time>
      </trkpt>
      <trkpt lat="44.8562" lon="6.72669">
        <ele>1754.54</ele>
        <time>2017-01-25T08:00:56Z</time>
      </trkpt>
      <trkpt lat="44.85623" lon="6.72669">
        <ele>1754.06</ele>
        <time>2017-01-25T08:01:19Z</time>
      </trkpt>
      <trkpt lat="44.85625" lon="6.72672">
        <ele>1754.06</ele>
        <time>2017-01-25T08:01:44Z</time>
      </trkpt>
      <trkpt lat="44.85621" lon="6.7267">
        <ele>1754.06</ele>
        <time>2017-01-25T08:02:10Z</time>
      </trkpt>
      <trkpt lat="44.85622" lon="6.72669">
        <ele>1754.06</ele>
        <time>2017-01-25T08:02:14Z</time>
      </trkpt>
      <trkpt lat="44.85623" lon="6.72668">
        <ele>1751.18</ele>
        <time>2017-01-25T08:02:19Z</time>
      </trkpt>
      <trkpt lat="44.85623" lon="6.72669">
        <ele>1755.5</ele>
        <time>2017-01-25T08:02:20Z</time>
      </trkpt>
      <trkpt lat="44.85625" lon="6.72669">
        <ele>1749.26</ele>
        <time>2017-01-25T08:02:35Z</time>
      </trkpt>
      <trkpt lat="44.85625" lon="6.72668">
        <ele>1753.58</ele>
        <time>2017-01-25T08:02:36Z</time>
      </trkpt>
      <trkpt lat="44.85624" lon="6.72668">
        <ele>1751.66</ele>
        <time>2017-01-25T08:02:41Z</time>
      </trkpt>
      <trkpt lat="44.85624" lon="6.72669">
        <ele>1757.91</ele>
        <time>2017-01-25T08:02:42Z</time>
      </trkpt>
      <trkpt lat="44.85625" lon="6.7267">
        <ele>1764.64</ele>
        <time>2017-01-25T08:02:43Z</time>
      </trkpt>
      <trkpt lat="44.85625" lon="6.7267">
        <ele>1755.5</ele>
        <time>2017-01-25T08:02:44Z</time>
      </trkpt>
      <trkpt lat="44.85626" lon="6.72671">
        <ele>1754.54</ele>
        <time>2017-01-25T08:02:46Z</time>
      </trkpt>
      <trkpt lat="44.85623" lon="6.7267">
        <ele>1757.91</ele>
        <time>2017-01-25T08:02:58Z</time>
      </trkpt>
      <trkpt lat="44.85623" lon="6.7267">
        <ele>1755.02</ele>
        <time>2017-01-25T08:02:59Z</time>
      </trkpt>
      <trkpt lat="44.85623" lon="6.72671">
        <ele>1754.54</ele>
        <time>2017-01-25T08:03:17Z</time>
      </trkpt>
      <trkpt lat="44.85623" lon="6.7267">
        <ele>1754.54</ele>
        <time>2017-01-25T08:03:34Z</time>
      </trkpt>
      <trkpt lat="44.85621" lon="6.72671">
        <ele>1754.06</ele>
        <time>2017-01-25T08:03:53Z</time>
      </trkpt>
      <trkpt lat="44.85623" lon="6.7267">
        <ele>1754.06</ele>
        <time>2017-01-25T08:04:11Z</time>
      </trkpt>
      <trkpt lat="44.85625" lon="6.72674">
        <ele>1754.06</ele>
        <time>2017-01-25T08:04:36Z</time>
      </trkpt>
      <trkpt lat="44.85625" lon="6.72671">
        <ele>1753.1</ele>
        <time>2017-01-25T08:04:59Z</time>
      </trkpt>
      <trkpt lat="44.85623" lon="6.72668">
        <ele>1753.1</ele>
        <time>2017-01-25T08:05:28Z</time>
      </trkpt>
      <trkpt lat="44.85626" lon="6.7267">
        <ele>1753.1</ele>
        <time>2017-01-25T08:06:04Z</time>
      </trkpt>
      <trkpt lat="44.85623" lon="6.7267">
        <ele>1752.62</ele>
        <time>2017-01-25T08:06:38Z</time>
      </trkpt>
      <trkpt lat="44.85624" lon="6.7267">
        <ele>1752.62</ele>
        <time>2017-01-25T08:07:08Z</time>
      </trkpt>
      <trkpt lat="44.85625" lon="6.7267">
        <ele>1752.14</ele>
        <time>2017-01-25T08:07:40Z</time>
      </trkpt>
      <trkpt lat="44.85628" lon="6.72671">
        <ele>1752.14</ele>
        <time>2017-01-25T08:08:12Z</time>
      </trkpt>
      <trkpt lat="44.85628" lon="6.7267">
        <ele>1752.14</ele>
        <time>2017-01-25T08:08:35Z</time>
      </trkpt>
      <trkpt lat="44.85628" lon="6.72671">
        <ele>1752.14</ele>
        <time>2017-01-25T08:09:03Z</time>
      </trkpt>
      <trkpt lat="44.85626" lon="6.72672">
        <ele>1751.66</ele>
        <time>2017-01-25T08:09:34Z</time>
      </trkpt>
      <trkpt lat="44.85624" lon="6.72669">
        <ele>1751.18</ele>
        <time>2017-01-25T08:10:09Z</time>
      </trkpt>
      <trkpt lat="44.85625" lon="6.72671">
        <ele>1750.22</ele>
        <time>2017-01-25T08:10:45Z</time>
      </trkpt>
      <trkpt lat="44.85625" lon="6.72671">
        <ele>1752.14</ele>
        <time>2017-01-25T08:10:48Z</time>
      </trkpt>
      <trkpt lat="44.85625" lon="6.72671">
        <ele>1750.7</ele>
        <time>2017-01-25T08:10:50Z</time>
      </trkpt>
      <trkpt lat="44.85625" lon="6.72671">
        <ele>1750.7</ele>
        <time>2017-01-25T08:11:18Z</time>
      </trkpt>
      <trkpt lat="44.85623" lon="6.72671">
        <ele>1750.7</ele>
        <time>2017-01-25T08:11:50Z</time>
      </trkpt>
      <trkpt lat="44.85622" lon="6.72674">
        <ele>1751.18</ele>
        <time>2017-01-25T08:12:15Z</time>
      </trkpt>
      <trkpt lat="44.85623" lon="6.72675">
        <ele>1751.18</ele>
        <time>2017-01-25T08:12:31Z</time>
      </trkpt>
      <trkpt lat="44.85622" lon="6.72676">
        <ele>1751.18</ele>
        <time>2017-01-25T08:12:49Z</time>
      </trkpt>
      <trkpt lat="44.85621" lon="6.72676">
        <ele>1751.18</ele>
        <time>2017-01-25T08:13:06Z</time>
      </trkpt>
      <trkpt lat="44.85621" lon="6.72677">
        <ele>1751.18</ele>
        <time>2017-01-25T08:13:24Z</time>
      </trkpt>
      <trkpt lat="44.85622" lon="6.72679">
        <ele>1751.66</ele>
        <time>2017-01-25T08:13:37Z</time>
      </trkpt>
      <trkpt lat="44.8562" lon="6.72681">
        <ele>1751.66</ele>
        <time>2017-01-25T08:13:47Z</time>
      </trkpt>
      <trkpt lat="44.85613" lon="6.72689">
        <ele>1751.66</ele>
        <time>2017-01-25T08:14:01Z</time>
      </trkpt>
      <trkpt lat="44.85611" lon="6.72698">
        <ele>1751.66</ele>
        <time>2017-01-25T08:14:15Z</time>
      </trkpt>
      <trkpt lat="44.85604" lon="6.72703">
        <ele>1752.62</ele>
        <time>2017-01-25T08:14:27Z</time>
      </trkpt>
      <trkpt lat="44.8559" lon="6.72704">
        <ele>1752.62</ele>
        <time>2017-01-25T08:14:42Z</time>
      </trkpt>
      <trkpt lat="44.85579" lon="6.72708">
        <ele>1752.62</ele>
        <time>2017-01-25T08:14:57Z</time>
      </trkpt>
      <trkpt lat="44.85573" lon="6.72708">
        <ele>1753.1</ele>
        <time>2017-01-25T08:15:11Z</time>
      </trkpt>
      <trkpt lat="44.85567" lon="6.72709">
        <ele>1753.1</ele>
        <time>2017-01-25T08:15:24Z</time>
      </trkpt>
      <trkpt lat="44.85563" lon="6.72711">
        <ele>1753.58</ele>
        <time>2017-01-25T08:15:34Z</time>
      </trkpt>
      <trkpt lat="44.85551" lon="6.72717">
        <ele>1754.06</ele>
        <time>2017-01-25T08:15:50Z</time>
      </trkpt>
      <trkpt lat="44.8554" lon="6.72719">
        <ele>1754.54</ele>
        <time>2017-01-25T08:16:04Z</time>
      </trkpt>
      <trkpt lat="44.85528" lon="6.7272">
        <ele>1754.54</ele>
        <time>2017-01-25T08:16:19Z</time>
      </trkpt>
      <trkpt lat="44.85517" lon="6.72729">
        <ele>1755.02</ele>
        <time>2017-01-25T08:16:34Z</time>
      </trkpt>
      <trkpt lat="44.85514" lon="6.72736">
        <ele>1755.02</ele>
        <time>2017-01-25T08:16:47Z</time>
      </trkpt>
      <trkpt lat="44.85513" lon="6.72738">
        <ele>1755.02</ele>
        <time>2017-01-25T08:17:00Z</time>
      </trkpt>
      <trkpt lat="44.85506" lon="6.72747">
        <ele>1755.5</ele>
        <time>2017-01-25T08:17:14Z</time>
      </trkpt>
      <trkpt lat="44.85495" lon="6.72756">
        <ele>1755.5</ele>
        <time>2017-01-25T08:17:29Z</time>
      </trkpt>
      <trkpt lat="44.85487" lon="6.72769">
        <ele>1755.99</ele>
        <time>2017-01-25T08:17:45Z</time>
      </trkpt>
      <trkpt lat="44.85484" lon="6.72772">
        <ele>1755.99</ele>
        <time>2017-01-25T08:17:51Z</time>
      </trkpt>
      <trkpt lat="44.85479" lon="6.72773">
        <ele>1755.99</ele>
        <time>2017-01-25T08:17:58Z</time>
      </trkpt>
      <trkpt lat="44.85477" lon="6.72772">
        <ele>1755.99</ele>
        <time>2017-01-25T08:18:00Z</time>
      </trkpt>
      <trkpt lat="44.85464" lon="6.72785">
        <ele>1755.99</ele>
        <time>2017-01-25T08:18:16Z</time>
      </trkpt>
      <trkpt lat="44.85452" lon="6.72799">
        <ele>1755.99</ele>
        <time>2017-01-25T08:18:30Z</time>
      </trkpt>
      <trkpt lat="44.85451" lon="6.728">
        <ele>1756.47</ele>
        <time>2017-01-25T08:18:31Z</time>
      </trkpt>
      <trkpt lat="44.85446" lon="6.72806">
        <ele>1756.47</ele>
        <time>2017-01-25T08:18:38Z</time>
      </trkpt>
      <trkpt lat="44.85433" lon="6.7282">
        <ele>1756.47</ele>
        <time>2017-01-25T08:18:53Z</time>
      </trkpt>
      <trkpt lat="44.85422" lon="6.72832">
        <ele>1756.95</ele>
        <time>2017-01-25T08:19:06Z</time>
      </trkpt>
      <trkpt lat="44.85409" lon="6.72846">
        <ele>1757.43</ele>
        <time>2017-01-25T08:19:20Z</time>
      </trkpt>
      <trkpt lat="44.85406" lon="6.72849">
        <ele>1757.43</ele>
        <time>2017-01-25T08:19:23Z</time>
      </trkpt>
      <trkpt lat="44.85402" lon="6.72856">
        <ele>1757.43</ele>
        <time>2017-01-25T08:19:28Z</time>
      </trkpt>
      <trkpt lat="44.85393" lon="6.7287">
        <ele>1757.43</ele>
        <time>2017-01-25T08:19:40Z</time>
      </trkpt>
      <trkpt lat="44.85387" lon="6.72878">
        <ele>1757.43</ele>
        <time>2017-01-25T08:19:47Z</time>
      </trkpt>
      <trkpt lat="44.85376" lon="6.72891">
        <ele>1757.91</ele>
        <time>2017-01-25T08:20:01Z</time>
      </trkpt>
      <trkpt lat="44.85365" lon="6.72903">
        <ele>1757.91</ele>
        <time>2017-01-25T08:20:14Z</time>
      </trkpt>
      <trkpt lat="44.85355" lon="6.72916">
        <ele>1758.39</ele>
        <time>2017-01-25T08:20:27Z</time>
      </trkpt>
      <trkpt lat="44.85345" lon="6.7293">
        <ele>1758.87</ele>
        <time>2017-01-25T08:20:40Z</time>
      </trkpt>
      <trkpt lat="44.85334" lon="6.72944">
        <ele>1759.35</ele>
        <time>2017-01-25T08:20:54Z</time>
      </trkpt>
      <trkpt lat="44.85326" lon="6.72955">
        <ele>1759.35</ele>
        <time>2017-01-25T08:21:05Z</time>
      </trkpt>
      <trkpt lat="44.85325" lon="6.72957">
        <ele>1759.35</ele>
        <time>2017-01-25T08:21:07Z</time>
      </trkpt>
      <trkpt lat="44.85324" lon="6.72959">
        <ele>1759.83</ele>
        <time>2017-01-25T08:21:09Z</time>
      </trkpt>
      <trkpt lat="44.8532" lon="6.72966">
        <ele>1759.83</ele>
        <time>2017-01-25T08:21:15Z</time>
      </trkpt>
      <trkpt lat="44.85319" lon="6.72968">
        <ele>1759.83</ele>
        <time>2017-01-25T08:21:17Z</time>
      </trkpt>
      <trkpt lat="44.85308" lon="6.72982">
        <ele>1760.31</ele>
        <time>2017-01-25T08:21:31Z</time>
      </trkpt>
      <trkpt lat="44.85298" lon="6.72999">
        <ele>1760.79</ele>
        <time>2017-01-25T08:21:46Z</time>
      </trkpt>
      <trkpt lat="44.85286" lon="6.73015">
        <ele>1761.75</ele>
        <time>2017-01-25T08:22:01Z</time>
      </trkpt>
      <trkpt lat="44.85277" lon="6.73028">
        <ele>1762.23</ele>
        <time>2017-01-25T08:22:15Z</time>
      </trkpt>
      <trkpt lat="44.85269" lon="6.73041">
        <ele>1763.2</ele>
        <time>2017-01-25T08:22:28Z</time>
      </trkpt>
      <trkpt lat="44.85259" lon="6.73057">
        <ele>1764.16</ele>
        <time>2017-01-25T08:22:42Z</time>
      </trkpt>
      <trkpt lat="44.8525" lon="6.73068">
        <ele>1764.64</ele>
        <time>2017-01-25T08:22:55Z</time>
      </trkpt>
      <trkpt lat="44.85242" lon="6.73081">
        <ele>1765.6</ele>
        <time>2017-01-25T08:23:08Z</time>
      </trkpt>
      <trkpt lat="44.85234" lon="6.73092">
        <ele>1766.08</ele>
        <time>2017-01-25T08:23:20Z</time>
      </trkpt>
      <trkpt lat="44.85228" lon="6.731">
        <ele>1766.56</ele>
        <time>2017-01-25T08:23:28Z</time>
      </trkpt>
      <trkpt lat="44.85218" lon="6.73114">
        <ele>1767.04</ele>
        <time>2017-01-25T08:23:43Z</time>
      </trkpt>
      <trkpt lat="44.85203" lon="6.73131">
        <ele>1768</ele>
        <time>2017-01-25T08:24:02Z</time>
      </trkpt>
      <trkpt lat="44.85194" lon="6.73143">
        <ele>1768.48</ele>
        <time>2017-01-25T08:24:15Z</time>
      </trkpt>
      <trkpt lat="44.85183" lon="6.73157">
        <ele>1769.44</ele>
        <time>2017-01-25T08:24:30Z</time>
      </trkpt>
      <trkpt lat="44.85173" lon="6.73169">
        <ele>1770.41</ele>
        <time>2017-01-25T08:24:44Z</time>
      </trkpt>
      <trkpt lat="44.85162" lon="6.7318">
        <ele>1771.37</ele>
        <time>2017-01-25T08:24:58Z</time>
      </trkpt>
      <trkpt lat="44.85153" lon="6.73189">
        <ele>1772.33</ele>
        <time>2017-01-25T08:25:14Z</time>
      </trkpt>
      <trkpt lat="44.85142" lon="6.73198">
        <ele>1773.29</ele>
        <time>2017-01-25T08:25:28Z</time>
      </trkpt>
      <trkpt lat="44.85126" lon="6.73208">
        <ele>1774.25</ele>
        <time>2017-01-25T08:25:45Z</time>
      </trkpt>
      <trkpt lat="44.85114" lon="6.73218">
        <ele>1775.69</ele>
        <time>2017-01-25T08:26:01Z</time>
      </trkpt>
      <trkpt lat="44.85104" lon="6.73225">
        <ele>1776.65</ele>
        <time>2017-01-25T08:26:13Z</time>
      </trkpt>
      <trkpt lat="44.85094" lon="6.73237">
        <ele>1778.1</ele>
        <time>2017-01-25T08:26:28Z</time>
      </trkpt>
      <trkpt lat="44.85085" lon="6.7325">
        <ele>1779.06</ele>
        <time>2017-01-25T08:26:42Z</time>
      </trkpt>
      <trkpt lat="44.85077" lon="6.73263">
        <ele>1780.02</ele>
        <time>2017-01-25T08:26:56Z</time>
      </trkpt>
      <trkpt lat="44.85069" lon="6.73277">
        <ele>1781.94</ele>
        <time>2017-01-25T08:27:11Z</time>
      </trkpt>
      <trkpt lat="44.85061" lon="6.73288">
        <ele>1782.42</ele>
        <time>2017-01-25T08:27:25Z</time>
      </trkpt>
      <trkpt lat="44.85055" lon="6.73297">
        <ele>1783.38</ele>
        <time>2017-01-25T08:27:34Z</time>
      </trkpt>
      <trkpt lat="44.85048" lon="6.73312">
        <ele>1784.34</ele>
        <time>2017-01-25T08:27:49Z</time>
      </trkpt>
      <trkpt lat="44.85039" lon="6.73326">
        <ele>1785.79</ele>
        <time>2017-01-25T08:28:04Z</time>
      </trkpt>
      <trkpt lat="44.85032" lon="6.7334">
        <ele>1787.23</ele>
        <time>2017-01-25T08:28:18Z</time>
      </trkpt>
      <trkpt lat="44.85026" lon="6.73358">
        <ele>1788.67</ele>
        <time>2017-01-25T08:28:34Z</time>
      </trkpt>
      <trkpt lat="44.85023" lon="6.73375">
        <ele>1790.11</ele>
        <time>2017-01-25T08:28:48Z</time>
      </trkpt>
      <trkpt lat="44.8502" lon="6.73393">
        <ele>1791.55</ele>
        <time>2017-01-25T08:29:03Z</time>
      </trkpt>
      <trkpt lat="44.85017" lon="6.73413">
        <ele>1793.48</ele>
        <time>2017-01-25T08:29:18Z</time>
      </trkpt>
      <trkpt lat="44.85016" lon="6.73436">
        <ele>1794.92</ele>
        <time>2017-01-25T08:29:35Z</time>
      </trkpt>
      <trkpt lat="44.85015" lon="6.73455">
        <ele>1796.36</ele>
        <time>2017-01-25T08:29:50Z</time>
      </trkpt>
      <trkpt lat="44.85014" lon="6.73473">
        <ele>1797.8</ele>
        <time>2017-01-25T08:30:04Z</time>
      </trkpt>
      <trkpt lat="44.85013" lon="6.7349">
        <ele>1799.24</ele>
        <time>2017-01-25T08:30:17Z</time>
      </trkpt>
      <trkpt lat="44.85012" lon="6.73494">
        <ele>1799.24</ele>
        <time>2017-01-25T08:30:20Z</time>
      </trkpt>
      <trkpt lat="44.85007" lon="6.73511">
        <ele>1800.69</ele>
        <time>2017-01-25T08:30:36Z</time>
      </trkpt>
      <trkpt lat="44.85001" lon="6.73528">
        <ele>1802.13</ele>
        <time>2017-01-25T08:30:50Z</time>
      </trkpt>
      <trkpt lat="44.84997" lon="6.73534">
        <ele>1803.09</ele>
        <time>2017-01-25T08:30:56Z</time>
      </trkpt>
      <trkpt lat="44.8499" lon="6.73549">
        <ele>1804.53</ele>
        <time>2017-01-25T08:31:09Z</time>
      </trkpt>
      <trkpt lat="44.84984" lon="6.73564">
        <ele>1805.97</ele>
        <time>2017-01-25T08:31:24Z</time>
      </trkpt>
      <trkpt lat="44.84976" lon="6.73579">
        <ele>1807.9</ele>
        <time>2017-01-25T08:31:40Z</time>
      </trkpt>
      <trkpt lat="44.8497" lon="6.73594">
        <ele>1808.86</ele>
        <time>2017-01-25T08:31:54Z</time>
      </trkpt>
      <trkpt lat="44.84965" lon="6.73608">
        <ele>1810.78</ele>
        <time>2017-01-25T08:32:09Z</time>
      </trkpt>
      <trkpt lat="44.84957" lon="6.73623">
        <ele>1812.22</ele>
        <time>2017-01-25T08:32:24Z</time>
      </trkpt>
      <trkpt lat="44.84952" lon="6.73638">
        <ele>1813.66</ele>
        <time>2017-01-25T08:32:38Z</time>
      </trkpt>
      <trkpt lat="44.84946" lon="6.73655">
        <ele>1815.11</ele>
        <time>2017-01-25T08:32:53Z</time>
      </trkpt>
      <trkpt lat="44.84944" lon="6.73662">
        <ele>1815.59</ele>
        <time>2017-01-25T08:32:59Z</time>
      </trkpt>
      <trkpt lat="44.84939" lon="6.7368">
        <ele>1817.03</ele>
        <time>2017-01-25T08:33:15Z</time>
      </trkpt>
      <trkpt lat="44.84934" lon="6.73696">
        <ele>1818.47</ele>
        <time>2017-01-25T08:33:30Z</time>
      </trkpt>
      <trkpt lat="44.84932" lon="6.73703">
        <ele>1818.95</ele>
        <time>2017-01-25T08:33:36Z</time>
      </trkpt>
      <trkpt lat="44.84926" lon="6.73717">
        <ele>1820.39</ele>
        <time>2017-01-25T08:33:50Z</time>
      </trkpt>
      <trkpt lat="44.84919" lon="6.73736">
        <ele>1822.32</ele>
        <time>2017-01-25T08:34:08Z</time>
      </trkpt>
      <trkpt lat="44.84916" lon="6.73742">
        <ele>1822.8</ele>
        <time>2017-01-25T08:34:14Z</time>
      </trkpt>
      <trkpt lat="44.84911" lon="6.7376">
        <ele>1824.72</ele>
        <time>2017-01-25T08:34:30Z</time>
      </trkpt>
      <trkpt lat="44.84907" lon="6.73773">
        <ele>1825.68</ele>
        <time>2017-01-25T08:34:44Z</time>
      </trkpt>
      <trkpt lat="44.84902" lon="6.73787">
        <ele>1827.12</ele>
        <time>2017-01-25T08:34:58Z</time>
      </trkpt>
      <trkpt lat="44.84897" lon="6.73804">
        <ele>1828.08</ele>
        <time>2017-01-25T08:35:12Z</time>
      </trkpt>
      <trkpt lat="44.84891" lon="6.73821">
        <ele>1829.53</ele>
        <time>2017-01-25T08:35:30Z</time>
      </trkpt>
      <trkpt lat="44.84886" lon="6.73835">
        <ele>1830.97</ele>
        <time>2017-01-25T08:35:44Z</time>
      </trkpt>
      <trkpt lat="44.84881" lon="6.73846">
        <ele>1831.93</ele>
        <time>2017-01-25T08:35:56Z</time>
      </trkpt>
      <trkpt lat="44.84874" lon="6.73858">
        <ele>1833.37</ele>
        <time>2017-01-25T08:36:10Z</time>
      </trkpt>
      <trkpt lat="44.84869" lon="6.7387">
        <ele>1834.81</ele>
        <time>2017-01-25T08:36:23Z</time>
      </trkpt>
      <trkpt lat="44.84863" lon="6.73884">
        <ele>1836.26</ele>
        <time>2017-01-25T08:36:37Z</time>
      </trkpt>
      <trkpt lat="44.84857" lon="6.73897">
        <ele>1837.7</ele>
        <time>2017-01-25T08:36:51Z</time>
      </trkpt>
      <trkpt lat="44.84851" lon="6.7391">
        <ele>1838.66</ele>
        <time>2017-01-25T08:37:06Z</time>
      </trkpt>
      <trkpt lat="44.8485" lon="6.73913">
        <ele>1838.18</ele>
        <time>2017-01-25T08:37:19Z</time>
      </trkpt>
      <trkpt lat="44.84856" lon="6.73915">
        <ele>1838.18</ele>
        <time>2017-01-25T08:37:53Z</time>
      </trkpt>
      <trkpt lat="44.84852" lon="6.73914">
        <ele>1839.14</ele>
        <time>2017-01-25T08:38:08Z</time>
      </trkpt>
      <trkpt lat="44.84847" lon="6.73929">
        <ele>1840.1</ele>
        <time>2017-01-25T08:38:24Z</time>
      </trkpt>
      <trkpt lat="44.84842" lon="6.73948">
        <ele>1841.06</ele>
        <time>2017-01-25T08:38:43Z</time>
      </trkpt>
      <trkpt lat="44.84839" lon="6.73957">
        <ele>1842.5</ele>
        <time>2017-01-25T08:39:01Z</time>
      </trkpt>
      <trkpt lat="44.84836" lon="6.73972">
        <ele>1842.98</ele>
        <time>2017-01-25T08:39:21Z</time>
      </trkpt>
      <trkpt lat="44.84826" lon="6.74001">
        <ele>1844.91</ele>
        <time>2017-01-25T08:39:45Z</time>
      </trkpt>
      <trkpt lat="44.84819" lon="6.74014">
        <ele>1845.87</ele>
        <time>2017-01-25T08:40:02Z</time>
      </trkpt>
      <trkpt lat="44.84809" lon="6.7403">
        <ele>1847.31</ele>
        <time>2017-01-25T08:40:21Z</time>
      </trkpt>
      <trkpt lat="44.84798" lon="6.74044">
        <ele>1848.75</ele>
        <time>2017-01-25T08:40:41Z</time>
      </trkpt>
      <trkpt lat="44.84788" lon="6.74056">
        <ele>1850.68</ele>
        <time>2017-01-25T08:41:02Z</time>
      </trkpt>
      <trkpt lat="44.84775" lon="6.74071">
        <ele>1852.6</ele>
        <time>2017-01-25T08:41:22Z</time>
      </trkpt>
      <trkpt lat="44.84768" lon="6.74083">
        <ele>1853.56</ele>
        <time>2017-01-25T08:41:37Z</time>
      </trkpt>
      <trkpt lat="44.84759" lon="6.74094">
        <ele>1855</ele>
        <time>2017-01-25T08:41:53Z</time>
      </trkpt>
      <trkpt lat="44.8475" lon="6.74109">
        <ele>1856.44</ele>
        <time>2017-01-25T08:42:13Z</time>
      </trkpt>
      <trkpt lat="44.84741" lon="6.74125">
        <ele>1858.37</ele>
        <time>2017-01-25T08:42:33Z</time>
      </trkpt>
      <trkpt lat="44.84731" lon="6.74144">
        <ele>1859.81</ele>
        <time>2017-01-25T08:42:53Z</time>
      </trkpt>
      <trkpt lat="44.84717" lon="6.74161">
        <ele>1862.21</ele>
        <time>2017-01-25T08:43:18Z</time>
      </trkpt>
      <trkpt lat="44.84705" lon="6.74177">
        <ele>1864.13</ele>
        <time>2017-01-25T08:43:40Z</time>
      </trkpt>
      <trkpt lat="44.84699" lon="6.74196">
        <ele>1866.06</ele>
        <time>2017-01-25T08:43:59Z</time>
      </trkpt>
      <trkpt lat="44.84691" lon="6.74216">
        <ele>1867.5</ele>
        <time>2017-01-25T08:44:20Z</time>
      </trkpt>
      <trkpt lat="44.84688" lon="6.74234">
        <ele>1869.42</ele>
        <time>2017-01-25T08:44:37Z</time>
      </trkpt>
      <trkpt lat="44.84683" lon="6.74253">
        <ele>1870.86</ele>
        <time>2017-01-25T08:44:55Z</time>
      </trkpt>
      <trkpt lat="44.84677" lon="6.74274">
        <ele>1872.79</ele>
        <time>2017-01-25T08:45:16Z</time>
      </trkpt>
      <trkpt lat="44.84674" lon="6.74293">
        <ele>1874.23</ele>
        <time>2017-01-25T08:45:37Z</time>
      </trkpt>
      <trkpt lat="44.84668" lon="6.74315">
        <ele>1875.67</ele>
        <time>2017-01-25T08:45:58Z</time>
      </trkpt>
      <trkpt lat="44.84663" lon="6.74333">
        <ele>1877.11</ele>
        <time>2017-01-25T08:46:18Z</time>
      </trkpt>
      <trkpt lat="44.84658" lon="6.74354">
        <ele>1878.07</ele>
        <time>2017-01-25T08:46:39Z</time>
      </trkpt>
      <trkpt lat="44.84652" lon="6.74376">
        <ele>1880</ele>
        <time>2017-01-25T08:47:00Z</time>
      </trkpt>
      <trkpt lat="44.84644" lon="6.74393">
        <ele>1883.84</ele>
        <time>2017-01-25T08:47:21Z</time>
      </trkpt>
      <trkpt lat="44.84632" lon="6.74412">
        <ele>1884.8</ele>
        <time>2017-01-25T08:47:45Z</time>
      </trkpt>
      <trkpt lat="44.84622" lon="6.74423">
        <ele>1886.72</ele>
        <time>2017-01-25T08:48:02Z</time>
      </trkpt>
      <trkpt lat="44.84608" lon="6.74439">
        <ele>1888.65</ele>
        <time>2017-01-25T08:48:25Z</time>
      </trkpt>
      <trkpt lat="44.84596" lon="6.7445">
        <ele>1890.57</ele>
        <time>2017-01-25T08:48:44Z</time>
      </trkpt>
      <trkpt lat="44.84583" lon="6.74464">
        <ele>1892.49</ele>
        <time>2017-01-25T08:49:07Z</time>
      </trkpt>
      <trkpt lat="44.84575" lon="6.74476">
        <ele>1895.86</ele>
        <time>2017-01-25T08:49:22Z</time>
      </trkpt>
      <trkpt lat="44.84564" lon="6.74493">
        <ele>1896.34</ele>
        <time>2017-01-25T08:49:44Z</time>
      </trkpt>
      <trkpt lat="44.84554" lon="6.74504">
        <ele>1897.78</ele>
        <time>2017-01-25T08:50:02Z</time>
      </trkpt>
      <trkpt lat="44.84543" lon="6.74511">
        <ele>1899.7</ele>
        <time>2017-01-25T08:50:21Z</time>
      </trkpt>
      <trkpt lat="44.84528" lon="6.74512">
        <ele>1901.63</ele>
        <time>2017-01-25T08:50:42Z</time>
      </trkpt>
      <trkpt lat="44.8451" lon="6.7451">
        <ele>1904.03</ele>
        <time>2017-01-25T08:51:05Z</time>
      </trkpt>
      <trkpt lat="44.84497" lon="6.74506">
        <ele>1907.87</ele>
        <time>2017-01-25T08:51:24Z</time>
      </trkpt>
      <trkpt lat="44.84483" lon="6.74503">
        <ele>1907.87</ele>
        <time>2017-01-25T08:51:41Z</time>
      </trkpt>
      <trkpt lat="44.84466" lon="6.745">
        <ele>1909.8</ele>
        <time>2017-01-25T08:52:03Z</time>
      </trkpt>
      <trkpt lat="44.8445" lon="6.74501">
        <ele>1911.72</ele>
        <time>2017-01-25T08:52:25Z</time>
      </trkpt>
      <trkpt lat="44.84434" lon="6.74504">
        <ele>1913.64</ele>
        <time>2017-01-25T08:52:46Z</time>
      </trkpt>
      <trkpt lat="44.84419" lon="6.74508">
        <ele>1915.56</ele>
        <time>2017-01-25T08:53:07Z</time>
      </trkpt>
      <trkpt lat="44.84406" lon="6.74513">
        <ele>1918.93</ele>
        <time>2017-01-25T08:53:25Z</time>
      </trkpt>
      <trkpt lat="44.84391" lon="6.74517">
        <ele>1918.45</ele>
        <time>2017-01-25T08:53:45Z</time>
      </trkpt>
      <trkpt lat="44.84375" lon="6.74524">
        <ele>1920.85</ele>
        <time>2017-01-25T08:54:06Z</time>
      </trkpt>
      <trkpt lat="44.84358" lon="6.74529">
        <ele>1922.77</ele>
        <time>2017-01-25T08:54:28Z</time>
      </trkpt>
      <trkpt lat="44.8435" lon="6.74535">
        <ele>1923.74</ele>
        <time>2017-01-25T08:54:45Z</time>
      </trkpt>
      <trkpt lat="44.84341" lon="6.74536">
        <ele>1925.18</ele>
        <time>2017-01-25T08:54:56Z</time>
      </trkpt>
      <trkpt lat="44.84325" lon="6.74544">
        <ele>1927.1</ele>
        <time>2017-01-25T08:55:18Z</time>
      </trkpt>
      <trkpt lat="44.84311" lon="6.74549">
        <ele>1928.54</ele>
        <time>2017-01-25T08:55:37Z</time>
      </trkpt>
      <trkpt lat="44.84296" lon="6.74553">
        <ele>1930.95</ele>
        <time>2017-01-25T08:55:58Z</time>
      </trkpt>
      <trkpt lat="44.84284" lon="6.74556">
        <ele>1932.87</ele>
        <time>2017-01-25T08:56:18Z</time>
      </trkpt>
      <trkpt lat="44.84268" lon="6.74563">
        <ele>1935.27</ele>
        <time>2017-01-25T08:56:39Z</time>
      </trkpt>
      <trkpt lat="44.84256" lon="6.74569">
        <ele>1936.23</ele>
        <time>2017-01-25T08:56:55Z</time>
      </trkpt>
      <trkpt lat="44.84241" lon="6.74576">
        <ele>1937.67</ele>
        <time>2017-01-25T08:57:14Z</time>
      </trkpt>
      <trkpt lat="44.84231" lon="6.74581">
        <ele>1939.12</ele>
        <time>2017-01-25T08:57:31Z</time>
      </trkpt>
      <trkpt lat="44.84216" lon="6.74589">
        <ele>1941.04</ele>
        <time>2017-01-25T08:57:51Z</time>
      </trkpt>
      <trkpt lat="44.84203" lon="6.74597">
        <ele>1942.48</ele>
        <time>2017-01-25T08:58:09Z</time>
      </trkpt>
      <trkpt lat="44.84193" lon="6.74605">
        <ele>1943.92</ele>
        <time>2017-01-25T08:58:26Z</time>
      </trkpt>
      <trkpt lat="44.84194" lon="6.74604">
        <ele>1943.92</ele>
        <time>2017-01-25T08:58:42Z</time>
      </trkpt>
      <trkpt lat="44.84193" lon="6.74609">
        <ele>1943.92</ele>
        <time>2017-01-25T08:59:05Z</time>
      </trkpt>
      <trkpt lat="44.84191" lon="6.74612">
        <ele>1944.4</ele>
        <time>2017-01-25T08:59:19Z</time>
      </trkpt>
      <trkpt lat="44.84191" lon="6.74612">
        <ele>1944.4</ele>
        <time>2017-01-25T08:59:40Z</time>
      </trkpt>
      <trkpt lat="44.84188" lon="6.74612">
        <ele>1944.4</ele>
        <time>2017-01-25T09:00:09Z</time>
      </trkpt>
      <trkpt lat="44.8419" lon="6.74611">
        <ele>1943.44</ele>
        <time>2017-01-25T09:00:27Z</time>
      </trkpt>
      <trkpt lat="44.84194" lon="6.74609">
        <ele>1943.44</ele>
        <time>2017-01-25T09:00:50Z</time>
      </trkpt>
      <trkpt lat="44.84189" lon="6.74613">
        <ele>1942.96</ele>
        <time>2017-01-25T09:01:28Z</time>
      </trkpt>
      <trkpt lat="44.8419" lon="6.74614">
        <ele>1942.96</ele>
        <time>2017-01-25T09:02:00Z</time>
      </trkpt>
      <trkpt lat="44.84196" lon="6.74615">
        <ele>1942.96</ele>
        <time>2017-01-25T09:02:33Z</time>
      </trkpt>
      <trkpt lat="44.842" lon="6.74614">
        <ele>1942.96</ele>
        <time>2017-01-25T09:03:10Z</time>
      </trkpt>
      <trkpt lat="44.84192" lon="6.74609">
        <ele>1942.96</ele>
        <time>2017-01-25T09:03:41Z</time>
      </trkpt>
      <trkpt lat="44.8419" lon="6.7461">
        <ele>1947.29</ele>
        <time>2017-01-25T09:04:03Z</time>
      </trkpt>
      <trkpt lat="44.8419" lon="6.7461">
        <ele>1943.92</ele>
        <time>2017-01-25T09:04:05Z</time>
      </trkpt>
      <trkpt lat="44.84193" lon="6.74604">
        <ele>1943.44</ele>
        <time>2017-01-25T09:04:34Z</time>
      </trkpt>
      <trkpt lat="44.84193" lon="6.746">
        <ele>1943.44</ele>
        <time>2017-01-25T09:05:07Z</time>
      </trkpt>
      <trkpt lat="44.84191" lon="6.74609">
        <ele>1943.44</ele>
        <time>2017-01-25T09:05:42Z</time>
      </trkpt>
      <trkpt lat="44.84192" lon="6.74606">
        <ele>1943.44</ele>
        <time>2017-01-25T09:06:12Z</time>
      </trkpt>
      <trkpt lat="44.84195" lon="6.74606">
        <ele>1943.44</ele>
        <time>2017-01-25T09:06:40Z</time>
      </trkpt>
      <trkpt lat="44.84193" lon="6.74608">
        <ele>1943.92</ele>
        <time>2017-01-25T09:07:08Z</time>
      </trkpt>
      <trkpt lat="44.84193" lon="6.74607">
        <ele>1943.92</ele>
        <time>2017-01-25T09:07:34Z</time>
      </trkpt>
      <trkpt lat="44.84196" lon="6.74605">
        <ele>1943.92</ele>
        <time>2017-01-25T09:08:04Z</time>
      </trkpt>
      <trkpt lat="44.84192" lon="6.74609">
        <ele>1944.88</ele>
        <time>2017-01-25T09:08:30Z</time>
      </trkpt>
      <trkpt lat="44.84187" lon="6.74611">
        <ele>1945.36</ele>
        <time>2017-01-25T09:08:44Z</time>
      </trkpt>
      <trkpt lat="44.84179" lon="6.74616">
        <ele>1946.33</ele>
        <time>2017-01-25T09:09:00Z</time>
      </trkpt>
      <trkpt lat="44.84171" lon="6.74628">
        <ele>1947.29</ele>
        <time>2017-01-25T09:09:17Z</time>
      </trkpt>
      <trkpt lat="44.84162" lon="6.74635">
        <ele>1950.65</ele>
        <time>2017-01-25T09:09:33Z</time>
      </trkpt>
      <trkpt lat="44.84156" lon="6.74646">
        <ele>1950.17</ele>
        <time>2017-01-25T09:09:50Z</time>
      </trkpt>
      <trkpt lat="44.8415" lon="6.74656">
        <ele>1951.61</ele>
        <time>2017-01-25T09:10:06Z</time>
      </trkpt>
      <trkpt lat="44.84143" lon="6.74667">
        <ele>1953.06</ele>
        <time>2017-01-25T09:10:21Z</time>
      </trkpt>
      <trkpt lat="44.84136" lon="6.74678">
        <ele>1954.5</ele>
        <time>2017-01-25T09:10:38Z</time>
      </trkpt>
      <trkpt lat="44.84127" lon="6.74686">
        <ele>1955.94</ele>
        <time>2017-01-25T09:10:56Z</time>
      </trkpt>
      <trkpt lat="44.84117" lon="6.74692">
        <ele>1957.38</ele>
        <time>2017-01-25T09:11:12Z</time>
      </trkpt>
      <trkpt lat="44.84107" lon="6.74698">
        <ele>1959.3</ele>
        <time>2017-01-25T09:11:28Z</time>
      </trkpt>
      <trkpt lat="44.84098" lon="6.747">
        <ele>1960.27</ele>
        <time>2017-01-25T09:11:42Z</time>
      </trkpt>
      <trkpt lat="44.8409" lon="6.74699">
        <ele>1961.71</ele>
        <time>2017-01-25T09:11:54Z</time>
      </trkpt>
      <trkpt lat="44.84082" lon="6.74701">
        <ele>1962.67</ele>
        <time>2017-01-25T09:12:07Z</time>
      </trkpt>
      <trkpt lat="44.84073" lon="6.747">
        <ele>1964.11</ele>
        <time>2017-01-25T09:12:21Z</time>
      </trkpt>
      <trkpt lat="44.84064" lon="6.747">
        <ele>1965.07</ele>
        <time>2017-01-25T09:12:36Z</time>
      </trkpt>
      <trkpt lat="44.84054" lon="6.74701">
        <ele>1966.51</ele>
        <time>2017-01-25T09:12:52Z</time>
      </trkpt>
      <trkpt lat="44.84043" lon="6.74703">
        <ele>1967.48</ele>
        <time>2017-01-25T09:13:08Z</time>
      </trkpt>
      <trkpt lat="44.84033" lon="6.74704">
        <ele>1968.92</ele>
        <time>2017-01-25T09:13:23Z</time>
      </trkpt>
      <trkpt lat="44.84022" lon="6.74706">
        <ele>1969.88</ele>
        <time>2017-01-25T09:13:38Z</time>
      </trkpt>
      <trkpt lat="44.84013" lon="6.74708">
        <ele>1970.84</ele>
        <time>2017-01-25T09:13:53Z</time>
      </trkpt>
      <trkpt lat="44.84003" lon="6.74715">
        <ele>1972.28</ele>
        <time>2017-01-25T09:14:10Z</time>
      </trkpt>
      <trkpt lat="44.83993" lon="6.74722">
        <ele>1973.72</ele>
        <time>2017-01-25T09:14:25Z</time>
      </trkpt>
      <trkpt lat="44.83983" lon="6.74725">
        <ele>1975.17</ele>
        <time>2017-01-25T09:14:44Z</time>
      </trkpt>
      <trkpt lat="44.83973" lon="6.74735">
        <ele>1977.09</ele>
        <time>2017-01-25T09:15:04Z</time>
      </trkpt>
      <trkpt lat="44.83962" lon="6.74738">
        <ele>1979.01</ele>
        <time>2017-01-25T09:15:21Z</time>
      </trkpt>
      <trkpt lat="44.8395" lon="6.74741">
        <ele>1980.45</ele>
        <time>2017-01-25T09:15:41Z</time>
      </trkpt>
      <trkpt lat="44.83942" lon="6.74743">
        <ele>1981.41</ele>
        <time>2017-01-25T09:15:53Z</time>
      </trkpt>
      <trkpt lat="44.8393" lon="6.74748">
        <ele>1983.34</ele>
        <time>2017-01-25T09:16:09Z</time>
      </trkpt>
      <trkpt lat="44.83917" lon="6.74752">
        <ele>1984.78</ele>
        <time>2017-01-25T09:16:28Z</time>
      </trkpt>
      <trkpt lat="44.83906" lon="6.74756">
        <ele>1985.74</ele>
        <time>2017-01-25T09:16:45Z</time>
      </trkpt>
      <trkpt lat="44.83895" lon="6.74765">
        <ele>1986.7</ele>
        <time>2017-01-25T09:17:00Z</time>
      </trkpt>
      <trkpt lat="44.83883" lon="6.7477">
        <ele>1987.66</ele>
        <time>2017-01-25T09:17:16Z</time>
      </trkpt>
      <trkpt lat="44.83866" lon="6.74773">
        <ele>1989.1</ele>
        <time>2017-01-25T09:17:31Z</time>
      </trkpt>
      <trkpt lat="44.83856" lon="6.74781">
        <ele>1990.07</ele>
        <time>2017-01-25T09:17:46Z</time>
      </trkpt>
      <trkpt lat="44.83844" lon="6.74782">
        <ele>1991.03</ele>
        <time>2017-01-25T09:18:01Z</time>
      </trkpt>
      <trkpt lat="44.83833" lon="6.74786">
        <ele>1991.99</ele>
        <time>2017-01-25T09:18:16Z</time>
      </trkpt>
      <trkpt lat="44.83825" lon="6.7479">
        <ele>1992.47</ele>
        <time>2017-01-25T09:18:27Z</time>
      </trkpt>
      <trkpt lat="44.83813" lon="6.74799">
        <ele>1993.43</ele>
        <time>2017-01-25T09:18:43Z</time>
      </trkpt>
      <trkpt lat="44.838" lon="6.74803">
        <ele>1994.87</ele>
        <time>2017-01-25T09:18:59Z</time>
      </trkpt>
      <trkpt lat="44.83791" lon="6.74817">
        <ele>1995.35</ele>
        <time>2017-01-25T09:19:15Z</time>
      </trkpt>
      <trkpt lat="44.83774" lon="6.74823">
        <ele>1996.8</ele>
        <time>2017-01-25T09:19:36Z</time>
      </trkpt>
      <trkpt lat="44.8376" lon="6.74839">
        <ele>1997.76</ele>
        <time>2017-01-25T09:19:56Z</time>
      </trkpt>
      <trkpt lat="44.83747" lon="6.74859">
        <ele>1999.2</ele>
        <time>2017-01-25T09:20:18Z</time>
      </trkpt>
      <trkpt lat="44.83737" lon="6.74874">
        <ele>2000.16</ele>
        <time>2017-01-25T09:20:36Z</time>
      </trkpt>
      <trkpt lat="44.83727" lon="6.74891">
        <ele>2001.12</ele>
        <time>2017-01-25T09:20:55Z</time>
      </trkpt>
      <trkpt lat="44.83726" lon="6.74892">
        <ele>2001.12</ele>
        <time>2017-01-25T09:20:57Z</time>
      </trkpt>
      <trkpt lat="44.83718" lon="6.74909">
        <ele>2002.08</ele>
        <time>2017-01-25T09:21:14Z</time>
      </trkpt>
      <trkpt lat="44.83714" lon="6.74923">
        <ele>2002.56</ele>
        <time>2017-01-25T09:21:30Z</time>
      </trkpt>
      <trkpt lat="44.83714" lon="6.74925">
        <ele>2002.56</ele>
        <time>2017-01-25T09:21:48Z</time>
      </trkpt>
      <trkpt lat="44.83713" lon="6.74925">
        <ele>2002.56</ele>
        <time>2017-01-25T09:22:15Z</time>
      </trkpt>
      <trkpt lat="44.83716" lon="6.74927">
        <ele>2002.56</ele>
        <time>2017-01-25T09:22:37Z</time>
      </trkpt>
      <trkpt lat="44.83717" lon="6.74926">
        <ele>2002.08</ele>
        <time>2017-01-25T09:23:00Z</time>
      </trkpt>
      <trkpt lat="44.83718" lon="6.74925">
        <ele>2002.08</ele>
        <time>2017-01-25T09:23:27Z</time>
      </trkpt>
      <trkpt lat="44.83716" lon="6.74924">
        <ele>2002.08</ele>
        <time>2017-01-25T09:23:48Z</time>
      </trkpt>
      <trkpt lat="44.83714" lon="6.74923">
        <ele>2002.08</ele>
        <time>2017-01-25T09:24:11Z</time>
      </trkpt>
      <trkpt lat="44.8371" lon="6.74932">
        <ele>2002.08</ele>
        <time>2017-01-25T09:24:28Z</time>
      </trkpt>
      <trkpt lat="44.83708" lon="6.74931">
        <ele>2002.56</ele>
        <time>2017-01-25T09:24:43Z</time>
      </trkpt>
      <trkpt lat="44.8371" lon="6.74935">
        <ele>2002.56</ele>
        <time>2017-01-25T09:25:10Z</time>
      </trkpt>
      <trkpt lat="44.83712" lon="6.74933">
        <ele>2002.08</ele>
        <time>2017-01-25T09:25:26Z</time>
      </trkpt>
      <trkpt lat="44.83712" lon="6.74924">
        <ele>2001.6</ele>
        <time>2017-01-25T09:25:42Z</time>
      </trkpt>
      <trkpt lat="44.83706" lon="6.74917">
        <ele>2001.6</ele>
        <time>2017-01-25T09:25:49Z</time>
      </trkpt>
      <trkpt lat="44.83689" lon="6.74911">
        <ele>2002.08</ele>
        <time>2017-01-25T09:26:09Z</time>
      </trkpt>
      <trkpt lat="44.83677" lon="6.74903">
        <ele>2002.08</ele>
        <time>2017-01-25T09:26:33Z</time>
      </trkpt>
      <trkpt lat="44.83673" lon="6.74902">
        <ele>2002.56</ele>
        <time>2017-01-25T09:26:53Z</time>
      </trkpt>
      <trkpt lat="44.83667" lon="6.74908">
        <ele>2002.56</ele>
        <time>2017-01-25T09:27:11Z</time>
      </trkpt>
      <trkpt lat="44.83653" lon="6.74903">
        <ele>2004.01</ele>
        <time>2017-01-25T09:27:28Z</time>
      </trkpt>
      <trkpt lat="44.83641" lon="6.74916">
        <ele>2005.45</ele>
        <time>2017-01-25T09:27:45Z</time>
      </trkpt>
      <trkpt lat="44.83628" lon="6.74928">
        <ele>2007.37</ele>
        <time>2017-01-25T09:28:08Z</time>
      </trkpt>
      <trkpt lat="44.83618" lon="6.74937">
        <ele>2009.29</ele>
        <time>2017-01-25T09:28:30Z</time>
      </trkpt>
      <trkpt lat="44.83607" lon="6.74947">
        <ele>2011.7</ele>
        <time>2017-01-25T09:28:52Z</time>
      </trkpt>
      <trkpt lat="44.83597" lon="6.7496">
        <ele>2013.62</ele>
        <time>2017-01-25T09:29:11Z</time>
      </trkpt>
      <trkpt lat="44.83591" lon="6.74977">
        <ele>2015.54</ele>
        <time>2017-01-25T09:29:31Z</time>
      </trkpt>
      <trkpt lat="44.83583" lon="6.74985">
        <ele>2017.46</ele>
        <time>2017-01-25T09:29:52Z</time>
      </trkpt>
      <trkpt lat="44.83572" lon="6.74999">
        <ele>2019.39</ele>
        <time>2017-01-25T09:30:15Z</time>
      </trkpt>
      <trkpt lat="44.83562" lon="6.75014">
        <ele>2022.27</ele>
        <time>2017-01-25T09:30:39Z</time>
      </trkpt>
      <trkpt lat="44.83552" lon="6.75026">
        <ele>2025.15</ele>
        <time>2017-01-25T09:31:02Z</time>
      </trkpt>
      <trkpt lat="44.83539" lon="6.75039">
        <ele>2027.08</ele>
        <time>2017-01-25T09:31:26Z</time>
      </trkpt>
      <trkpt lat="44.83533" lon="6.7505">
        <ele>2029.96</ele>
        <time>2017-01-25T09:31:42Z</time>
      </trkpt>
      <trkpt lat="44.8352" lon="6.75068">
        <ele>2031.4</ele>
        <time>2017-01-25T09:32:08Z</time>
      </trkpt>
      <trkpt lat="44.83508" lon="6.75082">
        <ele>2034.29</ele>
        <time>2017-01-25T09:32:33Z</time>
      </trkpt>
      <trkpt lat="44.83493" lon="6.75085">
        <ele>2036.21</ele>
        <time>2017-01-25T09:32:59Z</time>
      </trkpt>
      <trkpt lat="44.83495" lon="6.75096">
        <ele>2037.65</ele>
        <time>2017-01-25T09:33:21Z</time>
      </trkpt>
      <trkpt lat="44.83483" lon="6.75088">
        <ele>2041.02</ele>
        <time>2017-01-25T09:33:42Z</time>
      </trkpt>
      <trkpt lat="44.83469" lon="6.75081">
        <ele>2043.42</ele>
        <time>2017-01-25T09:34:05Z</time>
      </trkpt>
      <trkpt lat="44.83456" lon="6.75073">
        <ele>2045.34</ele>
        <time>2017-01-25T09:34:26Z</time>
      </trkpt>
      <trkpt lat="44.83445" lon="6.75075">
        <ele>2048.23</ele>
        <time>2017-01-25T09:34:51Z</time>
      </trkpt>
      <trkpt lat="44.83431" lon="6.75073">
        <ele>2051.59</ele>
        <time>2017-01-25T09:35:15Z</time>
      </trkpt>
      <trkpt lat="44.83425" lon="6.75079">
        <ele>2053.51</ele>
        <time>2017-01-25T09:35:35Z</time>
      </trkpt>
      <trkpt lat="44.83407" lon="6.75082">
        <ele>2056.4</ele>
        <time>2017-01-25T09:36:02Z</time>
      </trkpt>
      <trkpt lat="44.83397" lon="6.75084">
        <ele>2059.28</ele>
        <time>2017-01-25T09:36:26Z</time>
      </trkpt>
      <trkpt lat="44.83386" lon="6.75079">
        <ele>2061.68</ele>
        <time>2017-01-25T09:36:49Z</time>
      </trkpt>
      <trkpt lat="44.83379" lon="6.75079">
        <ele>2064.57</ele>
        <time>2017-01-25T09:37:12Z</time>
      </trkpt>
      <trkpt lat="44.83361" lon="6.75072">
        <ele>2067.93</ele>
        <time>2017-01-25T09:37:37Z</time>
      </trkpt>
      <trkpt lat="44.83354" lon="6.75076">
        <ele>2070.82</ele>
        <time>2017-01-25T09:38:02Z</time>
      </trkpt>
      <trkpt lat="44.8335" lon="6.75074">
        <ele>2073.22</ele>
        <time>2017-01-25T09:38:23Z</time>
      </trkpt>
      <trkpt lat="44.83344" lon="6.75064">
        <ele>2075.14</ele>
        <time>2017-01-25T09:38:42Z</time>
      </trkpt>
      <trkpt lat="44.83336" lon="6.75058">
        <ele>2078.03</ele>
        <time>2017-01-25T09:39:02Z</time>
      </trkpt>
      <trkpt lat="44.83328" lon="6.75047">
        <ele>2080.43</ele>
        <time>2017-01-25T09:39:25Z</time>
      </trkpt>
      <trkpt lat="44.8332" lon="6.75043">
        <ele>2082.83</ele>
        <time>2017-01-25T09:39:46Z</time>
      </trkpt>
      <trkpt lat="44.8331" lon="6.75037">
        <ele>2085.72</ele>
        <time>2017-01-25T09:40:08Z</time>
      </trkpt>
      <trkpt lat="44.83297" lon="6.75043">
        <ele>2087.64</ele>
        <time>2017-01-25T09:40:30Z</time>
      </trkpt>
      <trkpt lat="44.83291" lon="6.75043">
        <ele>2089.56</ele>
        <time>2017-01-25T09:40:49Z</time>
      </trkpt>
      <trkpt lat="44.8328" lon="6.75039">
        <ele>2091.97</ele>
        <time>2017-01-25T09:41:11Z</time>
      </trkpt>
      <trkpt lat="44.83272" lon="6.75035">
        <ele>2095.33</ele>
        <time>2017-01-25T09:41:35Z</time>
      </trkpt>
      <trkpt lat="44.83259" lon="6.75036">
        <ele>2097.73</ele>
        <time>2017-01-25T09:41:59Z</time>
      </trkpt>
      <trkpt lat="44.83248" lon="6.75042">
        <ele>2100.14</ele>
        <time>2017-01-25T09:42:25Z</time>
      </trkpt>
      <trkpt lat="44.83238" lon="6.75037">
        <ele>2103.02</ele>
        <time>2017-01-25T09:42:46Z</time>
      </trkpt>
      <trkpt lat="44.83233" lon="6.7503">
        <ele>2105.91</ele>
        <time>2017-01-25T09:43:10Z</time>
      </trkpt>
      <trkpt lat="44.83222" lon="6.75025">
        <ele>2108.79</ele>
        <time>2017-01-25T09:43:32Z</time>
      </trkpt>
      <trkpt lat="44.8321" lon="6.75023">
        <ele>2111.67</ele>
        <time>2017-01-25T09:43:55Z</time>
      </trkpt>
      <trkpt lat="44.83215" lon="6.75033">
        <ele>2112.15</ele>
        <time>2017-01-25T09:44:19Z</time>
      </trkpt>
      <trkpt lat="44.83214" lon="6.75034">
        <ele>2112.15</ele>
        <time>2017-01-25T09:44:51Z</time>
      </trkpt>
      <trkpt lat="44.83214" lon="6.75034">
        <ele>2112.15</ele>
        <time>2017-01-25T09:45:20Z</time>
      </trkpt>
      <trkpt lat="44.83209" lon="6.75027">
        <ele>2112.63</ele>
        <time>2017-01-25T09:45:51Z</time>
      </trkpt>
      <trkpt lat="44.83208" lon="6.75026">
        <ele>2112.15</ele>
        <time>2017-01-25T09:46:14Z</time>
      </trkpt>
      <trkpt lat="44.83208" lon="6.7503">
        <ele>2112.63</ele>
        <time>2017-01-25T09:46:36Z</time>
      </trkpt>
      <trkpt lat="44.83207" lon="6.75028">
        <ele>2113.12</ele>
        <time>2017-01-25T09:47:00Z</time>
      </trkpt>
      <trkpt lat="44.83202" lon="6.75027">
        <ele>2113.12</ele>
        <time>2017-01-25T09:47:22Z</time>
      </trkpt>
      <trkpt lat="44.83198" lon="6.75026">
        <ele>2116</ele>
        <time>2017-01-25T09:47:48Z</time>
      </trkpt>
      <trkpt lat="44.83189" lon="6.7502">
        <ele>2117.92</ele>
        <time>2017-01-25T09:48:08Z</time>
      </trkpt>
      <trkpt lat="44.83181" lon="6.75016">
        <ele>2120.32</ele>
        <time>2017-01-25T09:48:29Z</time>
      </trkpt>
      <trkpt lat="44.83177" lon="6.75015">
        <ele>2121.77</ele>
        <time>2017-01-25T09:48:48Z</time>
      </trkpt>
      <trkpt lat="44.83167" lon="6.75004">
        <ele>2124.65</ele>
        <time>2017-01-25T09:49:12Z</time>
      </trkpt>
      <trkpt lat="44.83157" lon="6.74996">
        <ele>2127.53</ele>
        <time>2017-01-25T09:49:33Z</time>
      </trkpt>
      <trkpt lat="44.83148" lon="6.74991">
        <ele>2129.46</ele>
        <time>2017-01-25T09:49:52Z</time>
      </trkpt>
      <trkpt lat="44.83142" lon="6.74988">
        <ele>2132.82</ele>
        <time>2017-01-25T09:50:13Z</time>
      </trkpt>
      <trkpt lat="44.83138" lon="6.74983">
        <ele>2134.26</ele>
        <time>2017-01-25T09:50:30Z</time>
      </trkpt>
      <trkpt lat="44.83135" lon="6.74977">
        <ele>2137.63</ele>
        <time>2017-01-25T09:50:42Z</time>
      </trkpt>
      <trkpt lat="44.83133" lon="6.74966">
        <ele>2138.59</ele>
        <time>2017-01-25T09:51:04Z</time>
      </trkpt>
      <trkpt lat="44.83122" lon="6.74956">
        <ele>2141.47</ele>
        <time>2017-01-25T09:51:26Z</time>
      </trkpt>
      <trkpt lat="44.83114" lon="6.74958">
        <ele>2143.4</ele>
        <time>2017-01-25T09:51:43Z</time>
      </trkpt>
      <trkpt lat="44.831" lon="6.74956">
        <ele>2145.8</ele>
        <time>2017-01-25T09:52:08Z</time>
      </trkpt>
      <trkpt lat="44.83087" lon="6.74957">
        <ele>2147.72</ele>
        <time>2017-01-25T09:52:30Z</time>
      </trkpt>
      <trkpt lat="44.83081" lon="6.74963">
        <ele>2151.09</ele>
        <time>2017-01-25T09:52:43Z</time>
      </trkpt>
      <trkpt lat="44.8308" lon="6.74961">
        <ele>2151.09</ele>
        <time>2017-01-25T09:53:02Z</time>
      </trkpt>
      <trkpt lat="44.83065" lon="6.74959">
        <ele>2152.53</ele>
        <time>2017-01-25T09:53:24Z</time>
      </trkpt>
      <trkpt lat="44.83054" lon="6.74959">
        <ele>2154.45</ele>
        <time>2017-01-25T09:53:46Z</time>
      </trkpt>
      <trkpt lat="44.83043" lon="6.74961">
        <ele>2156.86</ele>
        <time>2017-01-25T09:54:08Z</time>
      </trkpt>
      <trkpt lat="44.83031" lon="6.74959">
        <ele>2158.3</ele>
        <time>2017-01-25T09:54:27Z</time>
      </trkpt>
      <trkpt lat="44.83021" lon="6.74957">
        <ele>2161.66</ele>
        <time>2017-01-25T09:54:44Z</time>
      </trkpt>
      <trkpt lat="44.83016" lon="6.74958">
        <ele>2161.18</ele>
        <time>2017-01-25T09:54:58Z</time>
      </trkpt>
      <trkpt lat="44.83006" lon="6.74958">
        <ele>2163.1</ele>
        <time>2017-01-25T09:55:17Z</time>
      </trkpt>
      <trkpt lat="44.82998" lon="6.74958">
        <ele>2164.55</ele>
        <time>2017-01-25T09:55:36Z</time>
      </trkpt>
      <trkpt lat="44.82989" lon="6.74963">
        <ele>2165.99</ele>
        <time>2017-01-25T09:55:51Z</time>
      </trkpt>
      <trkpt lat="44.82978" lon="6.7497">
        <ele>2167.43</ele>
        <time>2017-01-25T09:56:11Z</time>
      </trkpt>
      <trkpt lat="44.82973" lon="6.74972">
        <ele>2168.39</ele>
        <time>2017-01-25T09:56:31Z</time>
      </trkpt>
      <trkpt lat="44.82968" lon="6.74974">
        <ele>2170.31</ele>
        <time>2017-01-25T09:56:50Z</time>
      </trkpt>
      <trkpt lat="44.82965" lon="6.74964">
        <ele>2172.72</ele>
        <time>2017-01-25T09:57:10Z</time>
      </trkpt>
      <trkpt lat="44.82955" lon="6.74964">
        <ele>2174.64</ele>
        <time>2017-01-25T09:57:31Z</time>
      </trkpt>
      <trkpt lat="44.82956" lon="6.74963">
        <ele>2176.56</ele>
        <time>2017-01-25T09:57:47Z</time>
      </trkpt>
      <trkpt lat="44.82951" lon="6.74952">
        <ele>2178.97</ele>
        <time>2017-01-25T09:58:08Z</time>
      </trkpt>
      <trkpt lat="44.82948" lon="6.7495">
        <ele>2180.89</ele>
        <time>2017-01-25T09:58:26Z</time>
      </trkpt>
      <trkpt lat="44.8295" lon="6.74942">
        <ele>2182.81</ele>
        <time>2017-01-25T09:58:45Z</time>
      </trkpt>
      <trkpt lat="44.8294" lon="6.74937">
        <ele>2185.69</ele>
        <time>2017-01-25T09:59:05Z</time>
      </trkpt>
      <trkpt lat="44.8293" lon="6.7494">
        <ele>2187.62</ele>
        <time>2017-01-25T09:59:26Z</time>
      </trkpt>
      <trkpt lat="44.82923" lon="6.74941">
        <ele>2189.54</ele>
        <time>2017-01-25T09:59:46Z</time>
      </trkpt>
      <trkpt lat="44.82923" lon="6.74937">
        <ele>2191.46</ele>
        <time>2017-01-25T10:00:07Z</time>
      </trkpt>
      <trkpt lat="44.82918" lon="6.74931">
        <ele>2193.39</ele>
        <time>2017-01-25T10:00:24Z</time>
      </trkpt>
      <trkpt lat="44.8291" lon="6.74933">
        <ele>2194.83</ele>
        <time>2017-01-25T10:00:44Z</time>
      </trkpt>
      <trkpt lat="44.82897" lon="6.74933">
        <ele>2196.75</ele>
        <time>2017-01-25T10:01:06Z</time>
      </trkpt>
      <trkpt lat="44.82893" lon="6.74941">
        <ele>2198.67</ele>
        <time>2017-01-25T10:01:25Z</time>
      </trkpt>
      <trkpt lat="44.82885" lon="6.74943">
        <ele>2199.15</ele>
        <time>2017-01-25T10:01:44Z</time>
      </trkpt>
      <trkpt lat="44.82871" lon="6.74945">
        <ele>2201.08</ele>
        <time>2017-01-25T10:02:01Z</time>
      </trkpt>
      <trkpt lat="44.82863" lon="6.74948">
        <ele>2202.04</ele>
        <time>2017-01-25T10:02:17Z</time>
      </trkpt>
      <trkpt lat="44.82856" lon="6.74952">
        <ele>2203.96</ele>
        <time>2017-01-25T10:02:35Z</time>
      </trkpt>
      <trkpt lat="44.82843" lon="6.74955">
        <ele>2204.92</ele>
        <time>2017-01-25T10:02:52Z</time>
      </trkpt>
      <trkpt lat="44.82835" lon="6.74959">
        <ele>2206.36</ele>
        <time>2017-01-25T10:03:07Z</time>
      </trkpt>
      <trkpt lat="44.82826" lon="6.74965">
        <ele>2208.29</ele>
        <time>2017-01-25T10:03:23Z</time>
      </trkpt>
      <trkpt lat="44.82821" lon="6.74967">
        <ele>2209.73</ele>
        <time>2017-01-25T10:03:41Z</time>
      </trkpt>
      <trkpt lat="44.82812" lon="6.74971">
        <ele>2212.13</ele>
        <time>2017-01-25T10:04:00Z</time>
      </trkpt>
      <trkpt lat="44.82803" lon="6.74978">
        <ele>2214.05</ele>
        <time>2017-01-25T10:04:19Z</time>
      </trkpt>
      <trkpt lat="44.82796" lon="6.7498">
        <ele>2215.01</ele>
        <time>2017-01-25T10:04:36Z</time>
      </trkpt>
      <trkpt lat="44.82786" lon="6.7498">
        <ele>2217.42</ele>
        <time>2017-01-25T10:04:57Z</time>
      </trkpt>
      <trkpt lat="44.82778" lon="6.74981">
        <ele>2219.34</ele>
        <time>2017-01-25T10:05:13Z</time>
      </trkpt>
      <trkpt lat="44.82767" lon="6.74982">
        <ele>2220.78</ele>
        <time>2017-01-25T10:05:29Z</time>
      </trkpt>
      <trkpt lat="44.82756" lon="6.74985">
        <ele>2221.74</ele>
        <time>2017-01-25T10:05:49Z</time>
      </trkpt>
      <trkpt lat="44.82749" lon="6.74987">
        <ele>2222.71</ele>
        <time>2017-01-25T10:06:07Z</time>
      </trkpt>
      <trkpt lat="44.8274" lon="6.7499">
        <ele>2224.15</ele>
        <time>2017-01-25T10:06:23Z</time>
      </trkpt>
      <trkpt lat="44.82727" lon="6.74988">
        <ele>2225.59</ele>
        <time>2017-01-25T10:06:41Z</time>
      </trkpt>
      <trkpt lat="44.82718" lon="6.74988">
        <ele>2226.55</ele>
        <time>2017-01-25T10:07:00Z</time>
      </trkpt>
      <trkpt lat="44.82712" lon="6.74987">
        <ele>2227.51</ele>
        <time>2017-01-25T10:07:16Z</time>
      </trkpt>
      <trkpt lat="44.82699" lon="6.74985">
        <ele>2228.47</ele>
        <time>2017-01-25T10:07:35Z</time>
      </trkpt>
      <trkpt lat="44.82691" lon="6.74982">
        <ele>2230.88</ele>
        <time>2017-01-25T10:07:55Z</time>
      </trkpt>
      <trkpt lat="44.82683" lon="6.74976">
        <ele>2233.28</ele>
        <time>2017-01-25T10:08:14Z</time>
      </trkpt>
      <trkpt lat="44.82673" lon="6.74974">
        <ele>2235.2</ele>
        <time>2017-01-25T10:08:34Z</time>
      </trkpt>
      <trkpt lat="44.82666" lon="6.74973">
        <ele>2239.05</ele>
        <time>2017-01-25T10:08:52Z</time>
      </trkpt>
      <trkpt lat="44.82659" lon="6.74972">
        <ele>2240.01</ele>
        <time>2017-01-25T10:09:11Z</time>
      </trkpt>
      <trkpt lat="44.82648" lon="6.74968">
        <ele>2241.45</ele>
        <time>2017-01-25T10:09:31Z</time>
      </trkpt>
      <trkpt lat="44.82643" lon="6.74972">
        <ele>2242.41</ele>
        <time>2017-01-25T10:09:52Z</time>
      </trkpt>
      <trkpt lat="44.82643" lon="6.74968">
        <ele>2241.93</ele>
        <time>2017-01-25T10:10:23Z</time>
      </trkpt>
      <trkpt lat="44.82643" lon="6.74968">
        <ele>2241.93</ele>
        <time>2017-01-25T10:10:59Z</time>
      </trkpt>
      <trkpt lat="44.82648" lon="6.74976">
        <ele>2241.93</ele>
        <time>2017-01-25T10:11:28Z</time>
      </trkpt>
      <trkpt lat="44.82646" lon="6.7497">
        <ele>2242.41</ele>
        <time>2017-01-25T10:11:59Z</time>
      </trkpt>
      <trkpt lat="44.82638" lon="6.74971">
        <ele>2242.41</ele>
        <time>2017-01-25T10:12:26Z</time>
      </trkpt>
      <trkpt lat="44.82643" lon="6.74968">
        <ele>2242.89</ele>
        <time>2017-01-25T10:12:55Z</time>
      </trkpt>
      <trkpt lat="44.82644" lon="6.7497">
        <ele>2242.41</ele>
        <time>2017-01-25T10:13:26Z</time>
      </trkpt>
      <trkpt lat="44.82643" lon="6.74973">
        <ele>2242.41</ele>
        <time>2017-01-25T10:13:56Z</time>
      </trkpt>
      <trkpt lat="44.82643" lon="6.74972">
        <ele>2242.41</ele>
        <time>2017-01-25T10:14:28Z</time>
      </trkpt>
      <trkpt lat="44.82641" lon="6.74971">
        <ele>2242.41</ele>
        <time>2017-01-25T10:15:02Z</time>
      </trkpt>
      <trkpt lat="44.82641" lon="6.7497">
        <ele>2242.41</ele>
        <time>2017-01-25T10:15:27Z</time>
      </trkpt>
      <trkpt lat="44.8264" lon="6.74966">
        <ele>2242.41</ele>
        <time>2017-01-25T10:15:58Z</time>
      </trkpt>
      <trkpt lat="44.82639" lon="6.74965">
        <ele>2242.41</ele>
        <time>2017-01-25T10:16:28Z</time>
      </trkpt>
      <trkpt lat="44.82642" lon="6.74969">
        <ele>2243.85</ele>
        <time>2017-01-25T10:16:56Z</time>
      </trkpt>
      <trkpt lat="44.82644" lon="6.74967">
        <ele>2242.41</ele>
        <time>2017-01-25T10:17:16Z</time>
      </trkpt>
      <trkpt lat="44.82644" lon="6.74967">
        <ele>2242.89</ele>
        <time>2017-01-25T10:17:46Z</time>
      </trkpt>
      <trkpt lat="44.82643" lon="6.74969">
        <ele>2242.89</ele>
        <time>2017-01-25T10:18:20Z</time>
      </trkpt>
      <trkpt lat="44.82643" lon="6.74968">
        <ele>2242.89</ele>
        <time>2017-01-25T10:18:54Z</time>
      </trkpt>
      <trkpt lat="44.82644" lon="6.7497">
        <ele>2242.89</ele>
        <time>2017-01-25T10:19:26Z</time>
      </trkpt>
      <trkpt lat="44.82643" lon="6.74971">
        <ele>2242.89</ele>
        <time>2017-01-25T10:20:03Z</time>
      </trkpt>
      <trkpt lat="44.82645" lon="6.74968">
        <ele>2243.85</ele>
        <time>2017-01-25T10:20:32Z</time>
      </trkpt>
      <trkpt lat="44.82643" lon="6.74969">
        <ele>2244.33</ele>
        <time>2017-01-25T10:20:43Z</time>
      </trkpt>
      <trkpt lat="44.82644" lon="6.74967">
        <ele>2243.85</ele>
        <time>2017-01-25T10:21:02Z</time>
      </trkpt>
      <trkpt lat="44.82645" lon="6.74967">
        <ele>2244.33</ele>
        <time>2017-01-25T10:21:20Z</time>
      </trkpt>
      <trkpt lat="44.82642" lon="6.74967">
        <ele>2244.33</ele>
        <time>2017-01-25T10:21:37Z</time>
      </trkpt>
      <trkpt lat="44.82644" lon="6.74966">
        <ele>2244.33</ele>
        <time>2017-01-25T10:21:56Z</time>
      </trkpt>
      <trkpt lat="44.82641" lon="6.74966">
        <ele>2245.78</ele>
        <time>2017-01-25T10:22:09Z</time>
      </trkpt>
      <trkpt lat="44.82636" lon="6.74961">
        <ele>2248.18</ele>
        <time>2017-01-25T10:22:25Z</time>
      </trkpt>
      <trkpt lat="44.82631" lon="6.74958">
        <ele>2249.62</ele>
        <time>2017-01-25T10:22:39Z</time>
      </trkpt>
      <trkpt lat="44.82628" lon="6.74955">
        <ele>2251.54</ele>
        <time>2017-01-25T10:22:52Z</time>
      </trkpt>
      <trkpt lat="44.82623" lon="6.74957">
        <ele>2251.54</ele>
        <time>2017-01-25T10:23:09Z</time>
      </trkpt>
      <trkpt lat="44.82624" lon="6.74951">
        <ele>2251.54</ele>
        <time>2017-01-25T10:23:33Z</time>
      </trkpt>
      <trkpt lat="44.82621" lon="6.74953">
        <ele>2252.99</ele>
        <time>2017-01-25T10:23:47Z</time>
      </trkpt>
      <trkpt lat="44.82615" lon="6.74949">
        <ele>2254.91</ele>
        <time>2017-01-25T10:24:04Z</time>
      </trkpt>
      <trkpt lat="44.82607" lon="6.74945">
        <ele>2256.83</ele>
        <time>2017-01-25T10:24:20Z</time>
      </trkpt>
      <trkpt lat="44.82599" lon="6.7494">
        <ele>2258.75</ele>
        <time>2017-01-25T10:24:38Z</time>
      </trkpt>
      <trkpt lat="44.82589" lon="6.74932">
        <ele>2262.12</ele>
        <time>2017-01-25T10:25:00Z</time>
      </trkpt>
      <trkpt lat="44.82581" lon="6.74924">
        <ele>2262.6</ele>
        <time>2017-01-25T10:25:19Z</time>
      </trkpt>
      <trkpt lat="44.82572" lon="6.74917">
        <ele>2264.52</ele>
        <time>2017-01-25T10:25:36Z</time>
      </trkpt>
      <trkpt lat="44.82562" lon="6.74909">
        <ele>2265.96</ele>
        <time>2017-01-25T10:25:56Z</time>
      </trkpt>
      <trkpt lat="44.82554" lon="6.74901">
        <ele>2268.37</ele>
        <time>2017-01-25T10:26:14Z</time>
      </trkpt>
      <trkpt lat="44.82547" lon="6.74894">
        <ele>2269.33</ele>
        <time>2017-01-25T10:26:31Z</time>
      </trkpt>
      <trkpt lat="44.82542" lon="6.74889">
        <ele>2270.29</ele>
        <time>2017-01-25T10:26:47Z</time>
      </trkpt>
      <trkpt lat="44.82533" lon="6.74883">
        <ele>2272.21</ele>
        <time>2017-01-25T10:27:07Z</time>
      </trkpt>
      <trkpt lat="44.82525" lon="6.74879">
        <ele>2273.66</ele>
        <time>2017-01-25T10:27:21Z</time>
      </trkpt>
      <trkpt lat="44.82514" lon="6.74874">
        <ele>2275.58</ele>
        <time>2017-01-25T10:27:40Z</time>
      </trkpt>
      <trkpt lat="44.82505" lon="6.7487">
        <ele>2277.5</ele>
        <time>2017-01-25T10:27:55Z</time>
      </trkpt>
      <trkpt lat="44.82499" lon="6.74867">
        <ele>2278.46</ele>
        <time>2017-01-25T10:28:10Z</time>
      </trkpt>
      <trkpt lat="44.82489" lon="6.74863">
        <ele>2281.35</ele>
        <time>2017-01-25T10:28:29Z</time>
      </trkpt>
      <trkpt lat="44.82481" lon="6.74859">
        <ele>2282.31</ele>
        <time>2017-01-25T10:28:43Z</time>
      </trkpt>
      <trkpt lat="44.82472" lon="6.74854">
        <ele>2284.71</ele>
        <time>2017-01-25T10:29:00Z</time>
      </trkpt>
      <trkpt lat="44.82464" lon="6.7485">
        <ele>2286.15</ele>
        <time>2017-01-25T10:29:16Z</time>
      </trkpt>
      <trkpt lat="44.82456" lon="6.74846">
        <ele>2288.08</ele>
        <time>2017-01-25T10:29:35Z</time>
      </trkpt>
      <trkpt lat="44.82448" lon="6.7484">
        <ele>2290</ele>
        <time>2017-01-25T10:29:53Z</time>
      </trkpt>
      <trkpt lat="44.8244" lon="6.74834">
        <ele>2291.44</ele>
        <time>2017-01-25T10:30:12Z</time>
      </trkpt>
      <trkpt lat="44.82434" lon="6.74823">
        <ele>2294.32</ele>
        <time>2017-01-25T10:30:34Z</time>
      </trkpt>
      <trkpt lat="44.8243" lon="6.74812">
        <ele>2296.25</ele>
        <time>2017-01-25T10:30:53Z</time>
      </trkpt>
      <trkpt lat="44.82427" lon="6.7481">
        <ele>2299.61</ele>
        <time>2017-01-25T10:31:03Z</time>
      </trkpt>
      <trkpt lat="44.82424" lon="6.74809">
        <ele>2298.65</ele>
        <time>2017-01-25T10:31:15Z</time>
      </trkpt>
      <trkpt lat="44.82419" lon="6.74808">
        <ele>2300.57</ele>
        <time>2017-01-25T10:31:27Z</time>
      </trkpt>
      <trkpt lat="44.82409" lon="6.74808">
        <ele>2301.53</ele>
        <time>2017-01-25T10:31:45Z</time>
      </trkpt>
      <trkpt lat="44.824" lon="6.74809">
        <ele>2303.46</ele>
        <time>2017-01-25T10:32:05Z</time>
      </trkpt>
      <trkpt lat="44.82392" lon="6.74815">
        <ele>2306.34</ele>
        <time>2017-01-25T10:32:28Z</time>
      </trkpt>
      <trkpt lat="44.82386" lon="6.74818">
        <ele>2308.26</ele>
        <time>2017-01-25T10:32:49Z</time>
      </trkpt>
      <trkpt lat="44.82381" lon="6.74819">
        <ele>2311.63</ele>
        <time>2017-01-25T10:33:04Z</time>
      </trkpt>
      <trkpt lat="44.82375" lon="6.7482">
        <ele>2312.59</ele>
        <time>2017-01-25T10:33:24Z</time>
      </trkpt>
      <trkpt lat="44.82368" lon="6.74819">
        <ele>2314.51</ele>
        <time>2017-01-25T10:33:42Z</time>
      </trkpt>
      <trkpt lat="44.82356" lon="6.74818">
        <ele>2316.43</ele>
        <time>2017-01-25T10:34:00Z</time>
      </trkpt>
      <trkpt lat="44.82349" lon="6.74816">
        <ele>2317.4</ele>
        <time>2017-01-25T10:34:18Z</time>
      </trkpt>
      <trkpt lat="44.82345" lon="6.74815">
        <ele>2318.84</ele>
        <time>2017-01-25T10:34:33Z</time>
      </trkpt>
      <trkpt lat="44.82338" lon="6.74814">
        <ele>2321.24</ele>
        <time>2017-01-25T10:34:54Z</time>
      </trkpt>
      <trkpt lat="44.8233" lon="6.74812">
        <ele>2323.16</ele>
        <time>2017-01-25T10:35:15Z</time>
      </trkpt>
      <trkpt lat="44.82325" lon="6.74813">
        <ele>2325.09</ele>
        <time>2017-01-25T10:35:31Z</time>
      </trkpt>
      <trkpt lat="44.82315" lon="6.74813">
        <ele>2327.01</ele>
        <time>2017-01-25T10:35:51Z</time>
      </trkpt>
      <trkpt lat="44.82307" lon="6.74812">
        <ele>2328.93</ele>
        <time>2017-01-25T10:36:13Z</time>
      </trkpt>
      <trkpt lat="44.82306" lon="6.74813">
        <ele>2329.89</ele>
        <time>2017-01-25T10:36:36Z</time>
      </trkpt>
      <trkpt lat="44.82304" lon="6.74812">
        <ele>2330.37</ele>
        <time>2017-01-25T10:36:59Z</time>
      </trkpt>
      <trkpt lat="44.82306" lon="6.7481">
        <ele>2330.85</ele>
        <time>2017-01-25T10:37:18Z</time>
      </trkpt>
      <trkpt lat="44.82301" lon="6.74813">
        <ele>2329.89</ele>
        <time>2017-01-25T10:37:48Z</time>
      </trkpt>
      <trkpt lat="44.82297" lon="6.74812">
        <ele>2329.41</ele>
        <time>2017-01-25T10:38:18Z</time>
      </trkpt>
      <trkpt lat="44.82298" lon="6.74812">
        <ele>2329.41</ele>
        <time>2017-01-25T10:38:44Z</time>
      </trkpt>
      <trkpt lat="44.82301" lon="6.74816">
        <ele>2329.41</ele>
        <time>2017-01-25T10:39:11Z</time>
      </trkpt>
      <trkpt lat="44.82301" lon="6.74819">
        <ele>2329.41</ele>
        <time>2017-01-25T10:39:47Z</time>
      </trkpt>
      <trkpt lat="44.82301" lon="6.74817">
        <ele>2329.41</ele>
        <time>2017-01-25T10:40:12Z</time>
      </trkpt>
      <trkpt lat="44.82301" lon="6.74813">
        <ele>2329.89</ele>
        <time>2017-01-25T10:40:33Z</time>
      </trkpt>
      <trkpt lat="44.82302" lon="6.74811">
        <ele>2329.89</ele>
        <time>2017-01-25T10:40:48Z</time>
      </trkpt>
      <trkpt lat="44.82303" lon="6.74807">
        <ele>2331.81</ele>
        <time>2017-01-25T10:41:07Z</time>
      </trkpt>
      <trkpt lat="44.82303" lon="6.74809">
        <ele>2329.89</ele>
        <time>2017-01-25T10:41:10Z</time>
      </trkpt>
      <trkpt lat="44.82303" lon="6.74814">
        <ele>2330.37</ele>
        <time>2017-01-25T10:41:26Z</time>
      </trkpt>
      <trkpt lat="44.82304" lon="6.74811">
        <ele>2329.89</ele>
        <time>2017-01-25T10:41:46Z</time>
      </trkpt>
      <trkpt lat="44.823" lon="6.7481">
        <ele>2330.37</ele>
        <time>2017-01-25T10:42:03Z</time>
      </trkpt>
      <trkpt lat="44.82302" lon="6.74809">
        <ele>2329.89</ele>
        <time>2017-01-25T10:42:22Z</time>
      </trkpt>
      <trkpt lat="44.82299" lon="6.74808">
        <ele>2330.85</ele>
        <time>2017-01-25T10:42:38Z</time>
      </trkpt>
      <trkpt lat="44.82293" lon="6.74808">
        <ele>2332.78</ele>
        <time>2017-01-25T10:42:52Z</time>
      </trkpt>
      <trkpt lat="44.82288" lon="6.74805">
        <ele>2333.74</ele>
        <time>2017-01-25T10:43:06Z</time>
      </trkpt>
      <trkpt lat="44.82284" lon="6.74807">
        <ele>2335.66</ele>
        <time>2017-01-25T10:43:23Z</time>
      </trkpt>
      <trkpt lat="44.82281" lon="6.74803">
        <ele>2337.1</ele>
        <time>2017-01-25T10:43:39Z</time>
      </trkpt>
      <trkpt lat="44.82274" lon="6.74798">
        <ele>2339.02</ele>
        <time>2017-01-25T10:43:56Z</time>
      </trkpt>
      <trkpt lat="44.82269" lon="6.74798">
        <ele>2340.47</ele>
        <time>2017-01-25T10:44:13Z</time>
      </trkpt>
      <trkpt lat="44.82261" lon="6.74801">
        <ele>2341.91</ele>
        <time>2017-01-25T10:44:30Z</time>
      </trkpt>
      <trkpt lat="44.82257" lon="6.74807">
        <ele>2344.31</ele>
        <time>2017-01-25T10:44:47Z</time>
      </trkpt>
      <trkpt lat="44.82249" lon="6.7481">
        <ele>2346.23</ele>
        <time>2017-01-25T10:45:06Z</time>
      </trkpt>
      <trkpt lat="44.82243" lon="6.74811">
        <ele>2348.16</ele>
        <time>2017-01-25T10:45:23Z</time>
      </trkpt>
      <trkpt lat="44.82234" lon="6.74819">
        <ele>2350.08</ele>
        <time>2017-01-25T10:45:41Z</time>
      </trkpt>
      <trkpt lat="44.82227" lon="6.74824">
        <ele>2351.52</ele>
        <time>2017-01-25T10:46:00Z</time>
      </trkpt>
      <trkpt lat="44.8222" lon="6.74821">
        <ele>2352.96</ele>
        <time>2017-01-25T10:46:16Z</time>
      </trkpt>
      <trkpt lat="44.82216" lon="6.74828">
        <ele>2354.89</ele>
        <time>2017-01-25T10:46:34Z</time>
      </trkpt>
      <trkpt lat="44.8221" lon="6.74825">
        <ele>2356.33</ele>
        <time>2017-01-25T10:46:51Z</time>
      </trkpt>
      <trkpt lat="44.82202" lon="6.74825">
        <ele>2358.25</ele>
        <time>2017-01-25T10:47:07Z</time>
      </trkpt>
      <trkpt lat="44.82196" lon="6.74824">
        <ele>2359.21</ele>
        <time>2017-01-25T10:47:23Z</time>
      </trkpt>
      <trkpt lat="44.82192" lon="6.74826">
        <ele>2360.65</ele>
        <time>2017-01-25T10:47:38Z</time>
      </trkpt>
      <trkpt lat="44.82187" lon="6.74825">
        <ele>2362.1</ele>
        <time>2017-01-25T10:47:53Z</time>
      </trkpt>
      <trkpt lat="44.82183" lon="6.74825">
        <ele>2363.54</ele>
        <time>2017-01-25T10:48:10Z</time>
      </trkpt>
      <trkpt lat="44.82178" lon="6.74823">
        <ele>2365.46</ele>
        <time>2017-01-25T10:48:27Z</time>
      </trkpt>
      <trkpt lat="44.82172" lon="6.74831">
        <ele>2366.9</ele>
        <time>2017-01-25T10:48:44Z</time>
      </trkpt>
      <trkpt lat="44.82168" lon="6.74835">
        <ele>2368.35</ele>
        <time>2017-01-25T10:49:00Z</time>
      </trkpt>
      <trkpt lat="44.82163" lon="6.74836">
        <ele>2370.27</ele>
        <time>2017-01-25T10:49:15Z</time>
      </trkpt>
      <trkpt lat="44.82159" lon="6.74839">
        <ele>2371.23</ele>
        <time>2017-01-25T10:49:33Z</time>
      </trkpt>
      <trkpt lat="44.82154" lon="6.74836">
        <ele>2373.15</ele>
        <time>2017-01-25T10:49:49Z</time>
      </trkpt>
      <trkpt lat="44.8215" lon="6.74845">
        <ele>2374.59</ele>
        <time>2017-01-25T10:50:07Z</time>
      </trkpt>
      <trkpt lat="44.82147" lon="6.74851">
        <ele>2376.52</ele>
        <time>2017-01-25T10:50:24Z</time>
      </trkpt>
      <trkpt lat="44.82141" lon="6.74847">
        <ele>2378.44</ele>
        <time>2017-01-25T10:50:42Z</time>
      </trkpt>
      <trkpt lat="44.82136" lon="6.74846">
        <ele>2379.88</ele>
        <time>2017-01-25T10:50:58Z</time>
      </trkpt>
      <trkpt lat="44.82132" lon="6.74847">
        <ele>2382.76</ele>
        <time>2017-01-25T10:51:13Z</time>
      </trkpt>
      <trkpt lat="44.82128" lon="6.74846">
        <ele>2383.25</ele>
        <time>2017-01-25T10:51:30Z</time>
      </trkpt>
      <trkpt lat="44.82123" lon="6.74846">
        <ele>2385.17</ele>
        <time>2017-01-25T10:51:47Z</time>
      </trkpt>
      <trkpt lat="44.82117" lon="6.74842">
        <ele>2387.09</ele>
        <time>2017-01-25T10:52:04Z</time>
      </trkpt>
      <trkpt lat="44.82113" lon="6.74848">
        <ele>2388.53</ele>
        <time>2017-01-25T10:52:22Z</time>
      </trkpt>
      <trkpt lat="44.82108" lon="6.74853">
        <ele>2389.49</ele>
        <time>2017-01-25T10:52:38Z</time>
      </trkpt>
      <trkpt lat="44.82103" lon="6.74857">
        <ele>2390.94</ele>
        <time>2017-01-25T10:52:56Z</time>
      </trkpt>
      <trkpt lat="44.82099" lon="6.74867">
        <ele>2394.3</ele>
        <time>2017-01-25T10:53:14Z</time>
      </trkpt>
      <trkpt lat="44.82096" lon="6.74874">
        <ele>2394.3</ele>
        <time>2017-01-25T10:53:31Z</time>
      </trkpt>
      <trkpt lat="44.82094" lon="6.74881">
        <ele>2395.26</ele>
        <time>2017-01-25T10:53:47Z</time>
      </trkpt>
      <trkpt lat="44.8209" lon="6.74887">
        <ele>2397.18</ele>
        <time>2017-01-25T10:54:05Z</time>
      </trkpt>
      <trkpt lat="44.82084" lon="6.74895">
        <ele>2399.11</ele>
        <time>2017-01-25T10:54:24Z</time>
      </trkpt>
      <trkpt lat="44.82079" lon="6.74897">
        <ele>2400.55</ele>
        <time>2017-01-25T10:54:41Z</time>
      </trkpt>
      <trkpt lat="44.82073" lon="6.74903">
        <ele>2402.95</ele>
        <time>2017-01-25T10:55:00Z</time>
      </trkpt>
      <trkpt lat="44.82069" lon="6.74905">
        <ele>2405.84</ele>
        <time>2017-01-25T10:55:15Z</time>
      </trkpt>
      <trkpt lat="44.82064" lon="6.74913">
        <ele>2405.84</ele>
        <time>2017-01-25T10:55:33Z</time>
      </trkpt>
      <trkpt lat="44.82061" lon="6.74918">
        <ele>2407.28</ele>
        <time>2017-01-25T10:55:51Z</time>
      </trkpt>
      <trkpt lat="44.82055" lon="6.74924">
        <ele>2408.72</ele>
        <time>2017-01-25T10:56:08Z</time>
      </trkpt>
      <trkpt lat="44.82049" lon="6.74928">
        <ele>2410.64</ele>
        <time>2017-01-25T10:56:26Z</time>
      </trkpt>
      <trkpt lat="44.82044" lon="6.7493">
        <ele>2412.57</ele>
        <time>2017-01-25T10:56:42Z</time>
      </trkpt>
      <trkpt lat="44.82039" lon="6.74934">
        <ele>2414.01</ele>
        <time>2017-01-25T10:57:00Z</time>
      </trkpt>
      <trkpt lat="44.82036" lon="6.7494">
        <ele>2417.37</ele>
        <time>2017-01-25T10:57:16Z</time>
      </trkpt>
      <trkpt lat="44.8203" lon="6.74945">
        <ele>2416.89</ele>
        <time>2017-01-25T10:57:35Z</time>
      </trkpt>
      <trkpt lat="44.82025" lon="6.74951">
        <ele>2418.33</ele>
        <time>2017-01-25T10:57:52Z</time>
      </trkpt>
      <trkpt lat="44.82021" lon="6.74955">
        <ele>2419.78</ele>
        <time>2017-01-25T10:58:08Z</time>
      </trkpt>
      <trkpt lat="44.82018" lon="6.74955">
        <ele>2421.22</ele>
        <time>2017-01-25T10:58:26Z</time>
      </trkpt>
      <trkpt lat="44.82013" lon="6.7496">
        <ele>2422.66</ele>
        <time>2017-01-25T10:58:46Z</time>
      </trkpt>
      <trkpt lat="44.82009" lon="6.74964">
        <ele>2424.1</ele>
        <time>2017-01-25T10:59:03Z</time>
      </trkpt>
      <trkpt lat="44.82008" lon="6.74965">
        <ele>2425.06</ele>
        <time>2017-01-25T10:59:22Z</time>
      </trkpt>
      <trkpt lat="44.82003" lon="6.74969">
        <ele>2426.99</ele>
        <time>2017-01-25T10:59:45Z</time>
      </trkpt>
      <trkpt lat="44.82004" lon="6.74971">
        <ele>2427.95</ele>
        <time>2017-01-25T10:59:59Z</time>
      </trkpt>
      <trkpt lat="44.82003" lon="6.74961">
        <ele>2429.39</ele>
        <time>2017-01-25T11:00:18Z</time>
      </trkpt>
      <trkpt lat="44.82005" lon="6.74955">
        <ele>2430.83</ele>
        <time>2017-01-25T11:00:34Z</time>
      </trkpt>
      <trkpt lat="44.82003" lon="6.74948">
        <ele>2432.27</ele>
        <time>2017-01-25T11:00:51Z</time>
      </trkpt>
      <trkpt lat="44.82003" lon="6.74942">
        <ele>2433.71</ele>
        <time>2017-01-25T11:01:06Z</time>
      </trkpt>
      <trkpt lat="44.82002" lon="6.74933">
        <ele>2435.16</ele>
        <time>2017-01-25T11:01:22Z</time>
      </trkpt>
      <trkpt lat="44.82002" lon="6.74924">
        <ele>2436.12</ele>
        <time>2017-01-25T11:01:37Z</time>
      </trkpt>
      <trkpt lat="44.82001" lon="6.74917">
        <ele>2437.56</ele>
        <time>2017-01-25T11:01:54Z</time>
      </trkpt>
      <trkpt lat="44.82" lon="6.74909">
        <ele>2439</ele>
        <time>2017-01-25T11:02:10Z</time>
      </trkpt>
      <trkpt lat="44.81998" lon="6.749">
        <ele>2440.44</ele>
        <time>2017-01-25T11:02:27Z</time>
      </trkpt>
      <trkpt lat="44.81996" lon="6.74893">
        <ele>2441.41</ele>
        <time>2017-01-25T11:02:43Z</time>
      </trkpt>
      <trkpt lat="44.81994" lon="6.74887">
        <ele>2442.37</ele>
        <time>2017-01-25T11:02:59Z</time>
      </trkpt>
      <trkpt lat="44.81994" lon="6.7488">
        <ele>2443.33</ele>
        <time>2017-01-25T11:03:12Z</time>
      </trkpt>
      <trkpt lat="44.81994" lon="6.74873">
        <ele>2444.29</ele>
        <time>2017-01-25T11:03:27Z</time>
      </trkpt>
      <trkpt lat="44.81991" lon="6.74866">
        <ele>2445.73</ele>
        <time>2017-01-25T11:03:43Z</time>
      </trkpt>
      <trkpt lat="44.81991" lon="6.7486">
        <ele>2446.69</ele>
        <time>2017-01-25T11:03:56Z</time>
      </trkpt>
      <trkpt lat="44.81991" lon="6.74853">
        <ele>2447.65</ele>
        <time>2017-01-25T11:04:12Z</time>
      </trkpt>
      <trkpt lat="44.81985" lon="6.74849">
        <ele>2449.1</ele>
        <time>2017-01-25T11:04:27Z</time>
      </trkpt>
      <trkpt lat="44.81978" lon="6.74854">
        <ele>2450.54</ele>
        <time>2017-01-25T11:04:46Z</time>
      </trkpt>
      <trkpt lat="44.81975" lon="6.74858">
        <ele>2452.46</ele>
        <time>2017-01-25T11:05:04Z</time>
      </trkpt>
      <trkpt lat="44.81971" lon="6.74864">
        <ele>2455.82</ele>
        <time>2017-01-25T11:05:21Z</time>
      </trkpt>
      <trkpt lat="44.81966" lon="6.74868">
        <ele>2455.34</ele>
        <time>2017-01-25T11:05:38Z</time>
      </trkpt>
      <trkpt lat="44.81963" lon="6.74874">
        <ele>2456.79</ele>
        <time>2017-01-25T11:05:54Z</time>
      </trkpt>
      <trkpt lat="44.81958" lon="6.74879">
        <ele>2458.71</ele>
        <time>2017-01-25T11:06:12Z</time>
      </trkpt>
      <trkpt lat="44.81952" lon="6.74885">
        <ele>2460.15</ele>
        <time>2017-01-25T11:06:31Z</time>
      </trkpt>
      <trkpt lat="44.81948" lon="6.74891">
        <ele>2461.59</ele>
        <time>2017-01-25T11:06:48Z</time>
      </trkpt>
      <trkpt lat="44.81944" lon="6.74895">
        <ele>2463.04</ele>
        <time>2017-01-25T11:07:06Z</time>
      </trkpt>
      <trkpt lat="44.81945" lon="6.74898">
        <ele>2463.52</ele>
        <time>2017-01-25T11:07:27Z</time>
      </trkpt>
      <trkpt lat="44.81943" lon="6.74895">
        <ele>2464</ele>
        <time>2017-01-25T11:07:47Z</time>
      </trkpt>
      <trkpt lat="44.81942" lon="6.74889">
        <ele>2465.44</ele>
        <time>2017-01-25T11:08:04Z</time>
      </trkpt>
      <trkpt lat="44.81941" lon="6.7488">
        <ele>2467.36</ele>
        <time>2017-01-25T11:08:22Z</time>
      </trkpt>
      <trkpt lat="44.8194" lon="6.74868">
        <ele>2468.8</ele>
        <time>2017-01-25T11:08:42Z</time>
      </trkpt>
      <trkpt lat="44.81939" lon="6.7486">
        <ele>2470.24</ele>
        <time>2017-01-25T11:08:59Z</time>
      </trkpt>
      <trkpt lat="44.81936" lon="6.74854">
        <ele>2471.69</ele>
        <time>2017-01-25T11:09:14Z</time>
      </trkpt>
      <trkpt lat="44.81935" lon="6.74846">
        <ele>2472.65</ele>
        <time>2017-01-25T11:09:30Z</time>
      </trkpt>
      <trkpt lat="44.81934" lon="6.7484">
        <ele>2474.09</ele>
        <time>2017-01-25T11:09:46Z</time>
      </trkpt>
      <trkpt lat="44.81936" lon="6.74832">
        <ele>2475.53</ele>
        <time>2017-01-25T11:10:03Z</time>
      </trkpt>
      <trkpt lat="44.81938" lon="6.74824">
        <ele>2476.97</ele>
        <time>2017-01-25T11:10:19Z</time>
      </trkpt>
      <trkpt lat="44.81938" lon="6.74816">
        <ele>2478.42</ele>
        <time>2017-01-25T11:10:36Z</time>
      </trkpt>
      <trkpt lat="44.81937" lon="6.74808">
        <ele>2479.38</ele>
        <time>2017-01-25T11:10:52Z</time>
      </trkpt>
      <trkpt lat="44.81938" lon="6.74802">
        <ele>2480.82</ele>
        <time>2017-01-25T11:11:09Z</time>
      </trkpt>
      <trkpt lat="44.81937" lon="6.74795">
        <ele>2483.7</ele>
        <time>2017-01-25T11:11:24Z</time>
      </trkpt>
      <trkpt lat="44.81938" lon="6.74788">
        <ele>2483.7</ele>
        <time>2017-01-25T11:11:40Z</time>
      </trkpt>
      <trkpt lat="44.81939" lon="6.74782">
        <ele>2485.15</ele>
        <time>2017-01-25T11:11:56Z</time>
      </trkpt>
      <trkpt lat="44.8194" lon="6.74773">
        <ele>2486.11</ele>
        <time>2017-01-25T11:12:11Z</time>
      </trkpt>
      <trkpt lat="44.81939" lon="6.74767">
        <ele>2487.55</ele>
        <time>2017-01-25T11:12:27Z</time>
      </trkpt>
      <trkpt lat="44.81941" lon="6.7476">
        <ele>2488.51</ele>
        <time>2017-01-25T11:12:44Z</time>
      </trkpt>
      <trkpt lat="44.81937" lon="6.74758">
        <ele>2489.47</ele>
        <time>2017-01-25T11:12:56Z</time>
      </trkpt>
      <trkpt lat="44.81938" lon="6.74759">
        <ele>2489.47</ele>
        <time>2017-01-25T11:13:21Z</time>
      </trkpt>
      <trkpt lat="44.81931" lon="6.74765">
        <ele>2490.91</ele>
        <time>2017-01-25T11:13:38Z</time>
      </trkpt>
      <trkpt lat="44.81927" lon="6.74771">
        <ele>2491.39</ele>
        <time>2017-01-25T11:13:56Z</time>
      </trkpt>
      <trkpt lat="44.81924" lon="6.74772">
        <ele>2491.87</ele>
        <time>2017-01-25T11:14:19Z</time>
      </trkpt>
      <trkpt lat="44.8192" lon="6.74775">
        <ele>2492.36</ele>
        <time>2017-01-25T11:14:36Z</time>
      </trkpt>
      <trkpt lat="44.81915" lon="6.74779">
        <ele>2493.8</ele>
        <time>2017-01-25T11:14:53Z</time>
      </trkpt>
      <trkpt lat="44.81909" lon="6.74785">
        <ele>2495.72</ele>
        <time>2017-01-25T11:15:13Z</time>
      </trkpt>
      <trkpt lat="44.81904" lon="6.74789">
        <ele>2497.64</ele>
        <time>2017-01-25T11:15:33Z</time>
      </trkpt>
      <trkpt lat="44.81899" lon="6.74794">
        <ele>2499.08</ele>
        <time>2017-01-25T11:15:50Z</time>
      </trkpt>
      <trkpt lat="44.81894" lon="6.74799">
        <ele>2500.53</ele>
        <time>2017-01-25T11:16:08Z</time>
      </trkpt>
      <trkpt lat="44.81888" lon="6.74804">
        <ele>2501.97</ele>
        <time>2017-01-25T11:16:26Z</time>
      </trkpt>
      <trkpt lat="44.81883" lon="6.74811">
        <ele>2503.89</ele>
        <time>2017-01-25T11:16:44Z</time>
      </trkpt>
      <trkpt lat="44.81878" lon="6.74817">
        <ele>2505.33</ele>
        <time>2017-01-25T11:17:03Z</time>
      </trkpt>
      <trkpt lat="44.81879" lon="6.74819">
        <ele>2505.33</ele>
        <time>2017-01-25T11:17:21Z</time>
      </trkpt>
      <trkpt lat="44.81881" lon="6.74814">
        <ele>2506.29</ele>
        <time>2017-01-25T11:17:34Z</time>
      </trkpt>
      <trkpt lat="44.81883" lon="6.74808">
        <ele>2506.77</ele>
        <time>2017-01-25T11:17:51Z</time>
      </trkpt>
      <trkpt lat="44.81882" lon="6.74799">
        <ele>2508.22</ele>
        <time>2017-01-25T11:18:10Z</time>
      </trkpt>
      <trkpt lat="44.81882" lon="6.74794">
        <ele>2509.66</ele>
        <time>2017-01-25T11:18:25Z</time>
      </trkpt>
      <trkpt lat="44.81884" lon="6.74785">
        <ele>2511.1</ele>
        <time>2017-01-25T11:18:44Z</time>
      </trkpt>
      <trkpt lat="44.81885" lon="6.74779">
        <ele>2513.02</ele>
        <time>2017-01-25T11:19:00Z</time>
      </trkpt>
      <trkpt lat="44.81884" lon="6.74772">
        <ele>2513.98</ele>
        <time>2017-01-25T11:19:14Z</time>
      </trkpt>
      <trkpt lat="44.8188" lon="6.74767">
        <ele>2515.43</ele>
        <time>2017-01-25T11:19:31Z</time>
      </trkpt>
      <trkpt lat="44.81875" lon="6.74772">
        <ele>2516.39</ele>
        <time>2017-01-25T11:19:49Z</time>
      </trkpt>
      <trkpt lat="44.81871" lon="6.74778">
        <ele>2517.35</ele>
        <time>2017-01-25T11:20:04Z</time>
      </trkpt>
      <trkpt lat="44.81867" lon="6.74779">
        <ele>2518.79</ele>
        <time>2017-01-25T11:20:21Z</time>
      </trkpt>
      <trkpt lat="44.81862" lon="6.74788">
        <ele>2520.23</ele>
        <time>2017-01-25T11:20:37Z</time>
      </trkpt>
      <trkpt lat="44.81859" lon="6.74787">
        <ele>2521.19</ele>
        <time>2017-01-25T11:20:52Z</time>
      </trkpt>
      <trkpt lat="44.81855" lon="6.7479">
        <ele>2523.12</ele>
        <time>2017-01-25T11:21:09Z</time>
      </trkpt>
      <trkpt lat="44.8185" lon="6.74793">
        <ele>2524.56</ele>
        <time>2017-01-25T11:21:27Z</time>
      </trkpt>
      <trkpt lat="44.81847" lon="6.74794">
        <ele>2525.52</ele>
        <time>2017-01-25T11:21:43Z</time>
      </trkpt>
      <trkpt lat="44.81842" lon="6.74797">
        <ele>2526.96</ele>
        <time>2017-01-25T11:21:59Z</time>
      </trkpt>
      <trkpt lat="44.81838" lon="6.74799">
        <ele>2528.4</ele>
        <time>2017-01-25T11:22:14Z</time>
      </trkpt>
      <trkpt lat="44.81835" lon="6.74802">
        <ele>2529.37</ele>
        <time>2017-01-25T11:22:31Z</time>
      </trkpt>
      <trkpt lat="44.81834" lon="6.74802">
        <ele>2529.85</ele>
        <time>2017-01-25T11:22:51Z</time>
      </trkpt>
      <trkpt lat="44.8183" lon="6.74807">
        <ele>2531.29</ele>
        <time>2017-01-25T11:23:09Z</time>
      </trkpt>
      <trkpt lat="44.81825" lon="6.74811">
        <ele>2533.21</ele>
        <time>2017-01-25T11:23:27Z</time>
      </trkpt>
      <trkpt lat="44.81825" lon="6.74817">
        <ele>2533.69</ele>
        <time>2017-01-25T11:23:45Z</time>
      </trkpt>
      <trkpt lat="44.81826" lon="6.7481">
        <ele>2534.65</ele>
        <time>2017-01-25T11:24:04Z</time>
      </trkpt>
      <trkpt lat="44.81826" lon="6.74801">
        <ele>2536.1</ele>
        <time>2017-01-25T11:24:20Z</time>
      </trkpt>
      <trkpt lat="44.81825" lon="6.74793">
        <ele>2536.58</ele>
        <time>2017-01-25T11:24:35Z</time>
      </trkpt>
      <trkpt lat="44.81821" lon="6.74796">
        <ele>2537.54</ele>
        <time>2017-01-25T11:24:49Z</time>
      </trkpt>
      <trkpt lat="44.81821" lon="6.74796">
        <ele>2538.98</ele>
        <time>2017-01-25T11:25:05Z</time>
      </trkpt>
      <trkpt lat="44.81822" lon="6.74796">
        <ele>2538.98</ele>
        <time>2017-01-25T11:25:24Z</time>
      </trkpt>
      <trkpt lat="44.81821" lon="6.7479">
        <ele>2539.94</ele>
        <time>2017-01-25T11:25:37Z</time>
      </trkpt>
      <trkpt lat="44.81821" lon="6.74786">
        <ele>2539.94</ele>
        <time>2017-01-25T11:25:54Z</time>
      </trkpt>
      <trkpt lat="44.81821" lon="6.74787">
        <ele>2539.94</ele>
        <time>2017-01-25T11:26:10Z</time>
      </trkpt>
      <trkpt lat="44.8182" lon="6.74786">
        <ele>2539.94</ele>
        <time>2017-01-25T11:26:30Z</time>
      </trkpt>
      <trkpt lat="44.81825" lon="6.74779">
        <ele>2541.38</ele>
        <time>2017-01-25T11:26:48Z</time>
      </trkpt>
      <trkpt lat="44.81826" lon="6.74772">
        <ele>2542.82</ele>
        <time>2017-01-25T11:27:05Z</time>
      </trkpt>
      <trkpt lat="44.81827" lon="6.74766">
        <ele>2544.27</ele>
        <time>2017-01-25T11:27:21Z</time>
      </trkpt>
      <trkpt lat="44.81826" lon="6.7476">
        <ele>2545.23</ele>
        <time>2017-01-25T11:27:39Z</time>
      </trkpt>
      <trkpt lat="44.81826" lon="6.74754">
        <ele>2546.67</ele>
        <time>2017-01-25T11:27:55Z</time>
      </trkpt>
      <trkpt lat="44.81827" lon="6.74749">
        <ele>2547.63</ele>
        <time>2017-01-25T11:28:11Z</time>
      </trkpt>
      <trkpt lat="44.81827" lon="6.74743">
        <ele>2549.07</ele>
        <time>2017-01-25T11:28:28Z</time>
      </trkpt>
      <trkpt lat="44.81827" lon="6.74737">
        <ele>2550.51</ele>
        <time>2017-01-25T11:28:44Z</time>
      </trkpt>
      <trkpt lat="44.81823" lon="6.74733">
        <ele>2551.48</ele>
        <time>2017-01-25T11:28:59Z</time>
      </trkpt>
      <trkpt lat="44.81823" lon="6.74734">
        <ele>2551.48</ele>
        <time>2017-01-25T11:29:28Z</time>
      </trkpt>
      <trkpt lat="44.81823" lon="6.74734">
        <ele>2551.48</ele>
        <time>2017-01-25T11:29:58Z</time>
      </trkpt>
      <trkpt lat="44.81822" lon="6.74733">
        <ele>2551.48</ele>
        <time>2017-01-25T11:30:22Z</time>
      </trkpt>
      <trkpt lat="44.81821" lon="6.74731">
        <ele>2551</ele>
        <time>2017-01-25T11:30:46Z</time>
      </trkpt>
      <trkpt lat="44.8182" lon="6.74735">
        <ele>2552.44</ele>
        <time>2017-01-25T11:31:09Z</time>
      </trkpt>
      <trkpt lat="44.81815" lon="6.7474">
        <ele>2553.88</ele>
        <time>2017-01-25T11:31:28Z</time>
      </trkpt>
      <trkpt lat="44.81811" lon="6.74742">
        <ele>2555.32</ele>
        <time>2017-01-25T11:31:47Z</time>
      </trkpt>
      <trkpt lat="44.81807" lon="6.74742">
        <ele>2556.28</ele>
        <time>2017-01-25T11:32:03Z</time>
      </trkpt>
      <trkpt lat="44.81804" lon="6.74744">
        <ele>2558.21</ele>
        <time>2017-01-25T11:32:21Z</time>
      </trkpt>
      <trkpt lat="44.818" lon="6.74747">
        <ele>2559.65</ele>
        <time>2017-01-25T11:32:39Z</time>
      </trkpt>
      <trkpt lat="44.81802" lon="6.74752">
        <ele>2559.65</ele>
        <time>2017-01-25T11:32:56Z</time>
      </trkpt>
      <trkpt lat="44.81803" lon="6.74749">
        <ele>2560.61</ele>
        <time>2017-01-25T11:33:11Z</time>
      </trkpt>
      <trkpt lat="44.81804" lon="6.74744">
        <ele>2561.57</ele>
        <time>2017-01-25T11:33:31Z</time>
      </trkpt>
      <trkpt lat="44.81805" lon="6.74738">
        <ele>2562.53</ele>
        <time>2017-01-25T11:33:46Z</time>
      </trkpt>
      <trkpt lat="44.81805" lon="6.74731">
        <ele>2563.97</ele>
        <time>2017-01-25T11:34:02Z</time>
      </trkpt>
      <trkpt lat="44.81805" lon="6.74724">
        <ele>2565.42</ele>
        <time>2017-01-25T11:34:17Z</time>
      </trkpt>
      <trkpt lat="44.81805" lon="6.74718">
        <ele>2566.38</ele>
        <time>2017-01-25T11:34:33Z</time>
      </trkpt>
      <trkpt lat="44.81807" lon="6.74712">
        <ele>2567.34</ele>
        <time>2017-01-25T11:34:50Z</time>
      </trkpt>
      <trkpt lat="44.81808" lon="6.74706">
        <ele>2568.3</ele>
        <time>2017-01-25T11:35:05Z</time>
      </trkpt>
      <trkpt lat="44.81808" lon="6.747">
        <ele>2569.74</ele>
        <time>2017-01-25T11:35:20Z</time>
      </trkpt>
      <trkpt lat="44.81805" lon="6.74702">
        <ele>2568.78</ele>
        <time>2017-01-25T11:35:37Z</time>
      </trkpt>
      <trkpt lat="44.81803" lon="6.74702">
        <ele>2567.82</ele>
        <time>2017-01-25T11:36:08Z</time>
      </trkpt>
      <trkpt lat="44.81804" lon="6.74701">
        <ele>2568.78</ele>
        <time>2017-01-25T11:36:53Z</time>
      </trkpt>
      <trkpt lat="44.81806" lon="6.74702">
        <ele>2569.26</ele>
        <time>2017-01-25T11:37:30Z</time>
      </trkpt>
      <trkpt lat="44.81808" lon="6.74702">
        <ele>2568.78</ele>
        <time>2017-01-25T11:38:06Z</time>
      </trkpt>
      <trkpt lat="44.81808" lon="6.74702">
        <ele>2569.26</ele>
        <time>2017-01-25T11:38:47Z</time>
      </trkpt>
      <trkpt lat="44.81806" lon="6.74699">
        <ele>2569.26</ele>
        <time>2017-01-25T11:39:19Z</time>
      </trkpt>
      <trkpt lat="44.81804" lon="6.74698">
        <ele>2569.26</ele>
        <time>2017-01-25T11:39:55Z</time>
      </trkpt>
      <trkpt lat="44.81804" lon="6.74696">
        <ele>2569.74</ele>
        <time>2017-01-25T11:40:25Z</time>
      </trkpt>
      <trkpt lat="44.81806" lon="6.74699">
        <ele>2569.26</ele>
        <time>2017-01-25T11:40:55Z</time>
      </trkpt>
      <trkpt lat="44.81805" lon="6.74698">
        <ele>2571.18</ele>
        <time>2017-01-25T11:41:05Z</time>
      </trkpt>
      <trkpt lat="44.81805" lon="6.74698">
        <ele>2570.22</ele>
        <time>2017-01-25T11:41:31Z</time>
      </trkpt>
      <trkpt lat="44.81809" lon="6.74696">
        <ele>2570.7</ele>
        <time>2017-01-25T11:42:03Z</time>
      </trkpt>
      <trkpt lat="44.81805" lon="6.74699">
        <ele>2570.7</ele>
        <time>2017-01-25T11:42:34Z</time>
      </trkpt>
      <trkpt lat="44.81804" lon="6.74699">
        <ele>2570.22</ele>
        <time>2017-01-25T11:43:05Z</time>
      </trkpt>
      <trkpt lat="44.81802" lon="6.74699">
        <ele>2570.7</ele>
        <time>2017-01-25T11:43:27Z</time>
      </trkpt>
      <trkpt lat="44.818" lon="6.74705">
        <ele>2572.14</ele>
        <time>2017-01-25T11:43:47Z</time>
      </trkpt>
      <trkpt lat="44.81799" lon="6.74705">
        <ele>2572.14</ele>
        <time>2017-01-25T11:44:20Z</time>
      </trkpt>
      <trkpt lat="44.81795" lon="6.74709">
        <ele>2573.11</ele>
        <time>2017-01-25T11:44:35Z</time>
      </trkpt>
      <trkpt lat="44.81794" lon="6.74708">
        <ele>2573.11</ele>
        <time>2017-01-25T11:44:54Z</time>
      </trkpt>
      <trkpt lat="44.81795" lon="6.74703">
        <ele>2573.59</ele>
        <time>2017-01-25T11:45:14Z</time>
      </trkpt>
      <trkpt lat="44.81794" lon="6.74699">
        <ele>2574.55</ele>
        <time>2017-01-25T11:45:32Z</time>
      </trkpt>
      <trkpt lat="44.81792" lon="6.74699">
        <ele>2575.03</ele>
        <time>2017-01-25T11:45:58Z</time>
      </trkpt>
      <trkpt lat="44.81792" lon="6.74698">
        <ele>2575.03</ele>
        <time>2017-01-25T11:46:25Z</time>
      </trkpt>
      <trkpt lat="44.81787" lon="6.74703">
        <ele>2576.47</ele>
        <time>2017-01-25T11:46:42Z</time>
      </trkpt>
      <trkpt lat="44.81782" lon="6.74709">
        <ele>2577.91</ele>
        <time>2017-01-25T11:47:01Z</time>
      </trkpt>
      <trkpt lat="44.81778" lon="6.74713">
        <ele>2579.35</ele>
        <time>2017-01-25T11:47:26Z</time>
      </trkpt>
      <trkpt lat="44.81776" lon="6.74716">
        <ele>2580.32</ele>
        <time>2017-01-25T11:47:43Z</time>
      </trkpt>
      <trkpt lat="44.81778" lon="6.74718">
        <ele>2580.32</ele>
        <time>2017-01-25T11:48:06Z</time>
      </trkpt>
      <trkpt lat="44.81776" lon="6.74718">
        <ele>2579.84</ele>
        <time>2017-01-25T11:48:27Z</time>
      </trkpt>
      <trkpt lat="44.81778" lon="6.74714">
        <ele>2580.32</ele>
        <time>2017-01-25T11:48:49Z</time>
      </trkpt>
      <trkpt lat="44.81777" lon="6.74708">
        <ele>2581.28</ele>
        <time>2017-01-25T11:49:07Z</time>
      </trkpt>
      <trkpt lat="44.81778" lon="6.74708">
        <ele>2581.28</ele>
        <time>2017-01-25T11:49:38Z</time>
      </trkpt>
      <trkpt lat="44.81777" lon="6.74697">
        <ele>2583.2</ele>
        <time>2017-01-25T11:49:56Z</time>
      </trkpt>
      <trkpt lat="44.81776" lon="6.74694">
        <ele>2584.16</ele>
        <time>2017-01-25T11:50:11Z</time>
      </trkpt>
      <trkpt lat="44.81772" lon="6.74698">
        <ele>2585.12</ele>
        <time>2017-01-25T11:50:26Z</time>
      </trkpt>
      <trkpt lat="44.81773" lon="6.74697">
        <ele>2585.12</ele>
        <time>2017-01-25T11:50:54Z</time>
      </trkpt>
      <trkpt lat="44.81769" lon="6.747">
        <ele>2586.56</ele>
        <time>2017-01-25T11:51:18Z</time>
      </trkpt>
      <trkpt lat="44.81768" lon="6.74704">
        <ele>2587.04</ele>
        <time>2017-01-25T11:51:34Z</time>
      </trkpt>
      <trkpt lat="44.81768" lon="6.74701">
        <ele>2588.01</ele>
        <time>2017-01-25T11:51:51Z</time>
      </trkpt>
      <trkpt lat="44.81767" lon="6.74693">
        <ele>2589.93</ele>
        <time>2017-01-25T11:52:12Z</time>
      </trkpt>
      <trkpt lat="44.81767" lon="6.74692">
        <ele>2589.93</ele>
        <time>2017-01-25T11:52:44Z</time>
      </trkpt>
      <trkpt lat="44.81772" lon="6.7468">
        <ele>2592.33</ele>
        <time>2017-01-25T11:53:05Z</time>
      </trkpt>
      <trkpt lat="44.81771" lon="6.74678">
        <ele>2593.29</ele>
        <time>2017-01-25T11:53:23Z</time>
      </trkpt>
      <trkpt lat="44.81769" lon="6.74672">
        <ele>2593.29</ele>
        <time>2017-01-25T11:53:52Z</time>
      </trkpt>
      <trkpt lat="44.81766" lon="6.74681">
        <ele>2592.81</ele>
        <time>2017-01-25T11:54:23Z</time>
      </trkpt>
      <trkpt lat="44.81764" lon="6.74679">
        <ele>2593.77</ele>
        <time>2017-01-25T11:54:55Z</time>
      </trkpt>
      <trkpt lat="44.81757" lon="6.74684">
        <ele>2595.7</ele>
        <time>2017-01-25T11:55:14Z</time>
      </trkpt>
      <trkpt lat="44.81753" lon="6.74689">
        <ele>2597.14</ele>
        <time>2017-01-25T11:55:32Z</time>
      </trkpt>
      <trkpt lat="44.8175" lon="6.74693">
        <ele>2599.54</ele>
        <time>2017-01-25T11:55:47Z</time>
      </trkpt>
      <trkpt lat="44.81752" lon="6.74693">
        <ele>2598.58</ele>
        <time>2017-01-25T11:56:09Z</time>
      </trkpt>
      <trkpt lat="44.81752" lon="6.74684">
        <ele>2600.02</ele>
        <time>2017-01-25T11:56:30Z</time>
      </trkpt>
      <trkpt lat="44.81753" lon="6.74682">
        <ele>2600.02</ele>
        <time>2017-01-25T11:56:54Z</time>
      </trkpt>
      <trkpt lat="44.81753" lon="6.74682">
        <ele>2600.02</ele>
        <time>2017-01-25T11:57:34Z</time>
      </trkpt>
      <trkpt lat="44.81755" lon="6.74673">
        <ele>2600.98</ele>
        <time>2017-01-25T11:57:59Z</time>
      </trkpt>
      <trkpt lat="44.81757" lon="6.74664">
        <ele>2602.91</ele>
        <time>2017-01-25T11:58:18Z</time>
      </trkpt>
      <trkpt lat="44.81757" lon="6.74658">
        <ele>2603.87</ele>
        <time>2017-01-25T11:58:35Z</time>
      </trkpt>
      <trkpt lat="44.81753" lon="6.74659">
        <ele>2604.35</ele>
        <time>2017-01-25T11:58:52Z</time>
      </trkpt>
      <trkpt lat="44.81754" lon="6.74659">
        <ele>2604.35</ele>
        <time>2017-01-25T11:59:16Z</time>
      </trkpt>
      <trkpt lat="44.81753" lon="6.74661">
        <ele>2604.83</ele>
        <time>2017-01-25T11:59:37Z</time>
      </trkpt>
      <trkpt lat="44.81751" lon="6.74662">
        <ele>2604.83</ele>
        <time>2017-01-25T12:00:11Z</time>
      </trkpt>
      <trkpt lat="44.81749" lon="6.74664">
        <ele>2605.79</ele>
        <time>2017-01-25T12:00:34Z</time>
      </trkpt>
      <trkpt lat="44.81744" lon="6.74668">
        <ele>2607.23</ele>
        <time>2017-01-25T12:00:51Z</time>
      </trkpt>
      <trkpt lat="44.81737" lon="6.74674">
        <ele>2609.64</ele>
        <time>2017-01-25T12:01:13Z</time>
      </trkpt>
      <trkpt lat="44.81733" lon="6.74679">
        <ele>2611.08</ele>
        <time>2017-01-25T12:01:29Z</time>
      </trkpt>
      <trkpt lat="44.81728" lon="6.74686">
        <ele>2612.52</ele>
        <time>2017-01-25T12:01:47Z</time>
      </trkpt>
      <trkpt lat="44.8173" lon="6.74683">
        <ele>2613</ele>
        <time>2017-01-25T12:02:05Z</time>
      </trkpt>
      <trkpt lat="44.81731" lon="6.7468">
        <ele>2613.96</ele>
        <time>2017-01-25T12:02:20Z</time>
      </trkpt>
      <trkpt lat="44.81731" lon="6.74685">
        <ele>2614.44</ele>
        <time>2017-01-25T12:02:49Z</time>
      </trkpt>
      <trkpt lat="44.81729" lon="6.74682">
        <ele>2614.44</ele>
        <time>2017-01-25T12:03:23Z</time>
      </trkpt>
      <trkpt lat="44.81732" lon="6.74681">
        <ele>2614.44</ele>
        <time>2017-01-25T12:03:48Z</time>
      </trkpt>
      <trkpt lat="44.81732" lon="6.74675">
        <ele>2615.88</ele>
        <time>2017-01-25T12:04:05Z</time>
      </trkpt>
      <trkpt lat="44.81731" lon="6.74666">
        <ele>2618.29</ele>
        <time>2017-01-25T12:04:21Z</time>
      </trkpt>
      <trkpt lat="44.81728" lon="6.74663">
        <ele>2620.21</ele>
        <time>2017-01-25T12:04:39Z</time>
      </trkpt>
      <trkpt lat="44.81733" lon="6.74657">
        <ele>2621.17</ele>
        <time>2017-01-25T12:05:00Z</time>
      </trkpt>
      <trkpt lat="44.81732" lon="6.7465">
        <ele>2622.61</ele>
        <time>2017-01-25T12:05:20Z</time>
      </trkpt>
      <trkpt lat="44.81732" lon="6.74645">
        <ele>2622.61</ele>
        <time>2017-01-25T12:05:55Z</time>
      </trkpt>
      <trkpt lat="44.81733" lon="6.74651">
        <ele>2623.58</ele>
        <time>2017-01-25T12:06:28Z</time>
      </trkpt>
      <trkpt lat="44.8173" lon="6.74651">
        <ele>2625.02</ele>
        <time>2017-01-25T12:06:57Z</time>
      </trkpt>
      <trkpt lat="44.81727" lon="6.74655">
        <ele>2625.5</ele>
        <time>2017-01-25T12:07:37Z</time>
      </trkpt>
      <trkpt lat="44.81725" lon="6.74654">
        <ele>2625.98</ele>
        <time>2017-01-25T12:08:04Z</time>
      </trkpt>
      <trkpt lat="44.81726" lon="6.74654">
        <ele>2625.5</ele>
        <time>2017-01-25T12:08:41Z</time>
      </trkpt>
      <trkpt lat="44.81716" lon="6.74652">
        <ele>2627.9</ele>
        <time>2017-01-25T12:09:03Z</time>
      </trkpt>
      <trkpt lat="44.8171" lon="6.74656">
        <ele>2629.34</ele>
        <time>2017-01-25T12:09:22Z</time>
      </trkpt>
      <trkpt lat="44.81704" lon="6.74663">
        <ele>2631.27</ele>
        <time>2017-01-25T12:09:43Z</time>
      </trkpt>
      <trkpt lat="44.81706" lon="6.74668">
        <ele>2631.75</ele>
        <time>2017-01-25T12:10:06Z</time>
      </trkpt>
      <trkpt lat="44.81707" lon="6.7467">
        <ele>2631.75</ele>
        <time>2017-01-25T12:10:28Z</time>
      </trkpt>
      <trkpt lat="44.8171" lon="6.74672">
        <ele>2631.75</ele>
        <time>2017-01-25T12:10:53Z</time>
      </trkpt>
      <trkpt lat="44.81714" lon="6.74676">
        <ele>2631.27</ele>
        <time>2017-01-25T12:11:19Z</time>
      </trkpt>
      <trkpt lat="44.81713" lon="6.74673">
        <ele>2632.23</ele>
        <time>2017-01-25T12:11:40Z</time>
      </trkpt>
      <trkpt lat="44.817" lon="6.74665">
        <ele>2632.23</ele>
        <time>2017-01-25T12:12:12Z</time>
      </trkpt>
      <trkpt lat="44.81708" lon="6.74665">
        <ele>2632.23</ele>
        <time>2017-01-25T12:12:45Z</time>
      </trkpt>
      <trkpt lat="44.81712" lon="6.74659">
        <ele>2634.15</ele>
        <time>2017-01-25T12:13:09Z</time>
      </trkpt>
      <trkpt lat="44.81706" lon="6.74659">
        <ele>2635.11</ele>
        <time>2017-01-25T12:13:32Z</time>
      </trkpt>
      <trkpt lat="44.81708" lon="6.74666">
        <ele>2637.03</ele>
        <time>2017-01-25T12:13:56Z</time>
      </trkpt>
      <trkpt lat="44.81704" lon="6.74659">
        <ele>2635.59</ele>
        <time>2017-01-25T12:14:26Z</time>
      </trkpt>
      <trkpt lat="44.81696" lon="6.74661">
        <ele>2637.99</ele>
        <time>2017-01-25T12:14:44Z</time>
      </trkpt>
      <trkpt lat="44.81689" lon="6.74667">
        <ele>2640.4</ele>
        <time>2017-01-25T12:15:04Z</time>
      </trkpt>
      <trkpt lat="44.81694" lon="6.74676">
        <ele>2640.88</ele>
        <time>2017-01-25T12:15:20Z</time>
      </trkpt>
      <trkpt lat="44.81688" lon="6.74671">
        <ele>2641.36</ele>
        <time>2017-01-25T12:15:43Z</time>
      </trkpt>
      <trkpt lat="44.81688" lon="6.74667">
        <ele>2641.36</ele>
        <time>2017-01-25T12:16:11Z</time>
      </trkpt>
      <trkpt lat="44.8169" lon="6.74666">
        <ele>2641.36</ele>
        <time>2017-01-25T12:16:52Z</time>
      </trkpt>
      <trkpt lat="44.81698" lon="6.74661">
        <ele>2643.28</ele>
        <time>2017-01-25T12:17:19Z</time>
      </trkpt>
      <trkpt lat="44.81702" lon="6.74651">
        <ele>2646.65</ele>
        <time>2017-01-25T12:17:46Z</time>
      </trkpt>
      <trkpt lat="44.8169" lon="6.74647">
        <ele>2646.65</ele>
        <time>2017-01-25T12:18:09Z</time>
      </trkpt>
      <trkpt lat="44.8169" lon="6.7465">
        <ele>2647.13</ele>
        <time>2017-01-25T12:18:37Z</time>
      </trkpt>
      <trkpt lat="44.81684" lon="6.74659">
        <ele>2647.13</ele>
        <time>2017-01-25T12:19:08Z</time>
      </trkpt>
      <trkpt lat="44.81689" lon="6.74651">
        <ele>2648.09</ele>
        <time>2017-01-25T12:19:37Z</time>
      </trkpt>
      <trkpt lat="44.81682" lon="6.74656">
        <ele>2650.01</ele>
        <time>2017-01-25T12:19:56Z</time>
      </trkpt>
      <trkpt lat="44.81671" lon="6.74657">
        <ele>2652.42</ele>
        <time>2017-01-25T12:20:20Z</time>
      </trkpt>
      <trkpt lat="44.81679" lon="6.74667">
        <ele>2652.9</ele>
        <time>2017-01-25T12:20:37Z</time>
      </trkpt>
      <trkpt lat="44.81678" lon="6.74664">
        <ele>2653.38</ele>
        <time>2017-01-25T12:21:03Z</time>
      </trkpt>
      <trkpt lat="44.81678" lon="6.74655">
        <ele>2653.86</ele>
        <time>2017-01-25T12:21:29Z</time>
      </trkpt>
      <trkpt lat="44.81684" lon="6.74664">
        <ele>2653.86</ele>
        <time>2017-01-25T12:22:06Z</time>
      </trkpt>
      <trkpt lat="44.81683" lon="6.74649">
        <ele>2656.26</ele>
        <time>2017-01-25T12:22:31Z</time>
      </trkpt>
      <trkpt lat="44.81681" lon="6.74639">
        <ele>2658.66</ele>
        <time>2017-01-25T12:22:57Z</time>
      </trkpt>
      <trkpt lat="44.81675" lon="6.74635">
        <ele>2660.11</ele>
        <time>2017-01-25T12:23:15Z</time>
      </trkpt>
      <trkpt lat="44.81673" lon="6.7464">
        <ele>2661.07</ele>
        <time>2017-01-25T12:23:42Z</time>
      </trkpt>
      <trkpt lat="44.81674" lon="6.74639">
        <ele>2661.07</ele>
        <time>2017-01-25T12:24:03Z</time>
      </trkpt>
      <trkpt lat="44.81677" lon="6.7464">
        <ele>2662.51</ele>
        <time>2017-01-25T12:24:26Z</time>
      </trkpt>
      <trkpt lat="44.81677" lon="6.7464">
        <ele>2661.07</ele>
        <time>2017-01-25T12:24:27Z</time>
      </trkpt>
      <trkpt lat="44.81685" lon="6.74641">
        <ele>2661.07</ele>
        <time>2017-01-25T12:25:03Z</time>
      </trkpt>
      <trkpt lat="44.8168" lon="6.74641">
        <ele>2661.07</ele>
        <time>2017-01-25T12:25:34Z</time>
      </trkpt>
      <trkpt lat="44.81669" lon="6.74638">
        <ele>2661.55</ele>
        <time>2017-01-25T12:25:57Z</time>
      </trkpt>
      <trkpt lat="44.81668" lon="6.74641">
        <ele>2662.99</ele>
        <time>2017-01-25T12:26:22Z</time>
      </trkpt>
      <trkpt lat="44.81663" lon="6.74643">
        <ele>2665.39</ele>
        <time>2017-01-25T12:26:43Z</time>
      </trkpt>
      <trkpt lat="44.81658" lon="6.74648">
        <ele>2666.35</ele>
        <time>2017-01-25T12:27:00Z</time>
      </trkpt>
      <trkpt lat="44.81656" lon="6.74651">
        <ele>2667.31</ele>
        <time>2017-01-25T12:27:21Z</time>
      </trkpt>
      <trkpt lat="44.81654" lon="6.74655">
        <ele>2668.28</ele>
        <time>2017-01-25T12:27:44Z</time>
      </trkpt>
      <trkpt lat="44.81659" lon="6.7466">
        <ele>2668.28</ele>
        <time>2017-01-25T12:28:05Z</time>
      </trkpt>
      <trkpt lat="44.81657" lon="6.74649">
        <ele>2669.72</ele>
        <time>2017-01-25T12:28:30Z</time>
      </trkpt>
      <trkpt lat="44.81658" lon="6.74641">
        <ele>2671.16</ele>
        <time>2017-01-25T12:28:54Z</time>
      </trkpt>
      <trkpt lat="44.81663" lon="6.74642">
        <ele>2671.64</ele>
        <time>2017-01-25T12:29:25Z</time>
      </trkpt>
      <trkpt lat="44.8166" lon="6.74644">
        <ele>2673.08</ele>
        <time>2017-01-25T12:29:52Z</time>
      </trkpt>
      <trkpt lat="44.81653" lon="6.74646">
        <ele>2674.52</ele>
        <time>2017-01-25T12:30:12Z</time>
      </trkpt>
      <trkpt lat="44.81656" lon="6.74653">
        <ele>2676.93</ele>
        <time>2017-01-25T12:30:29Z</time>
      </trkpt>
      <trkpt lat="44.81662" lon="6.7465">
        <ele>2675.49</ele>
        <time>2017-01-25T12:30:58Z</time>
      </trkpt>
      <trkpt lat="44.81661" lon="6.74649">
        <ele>2675.01</ele>
        <time>2017-01-25T12:31:27Z</time>
      </trkpt>
      <trkpt lat="44.81655" lon="6.74647">
        <ele>2675.01</ele>
        <time>2017-01-25T12:32:00Z</time>
      </trkpt>
      <trkpt lat="44.81657" lon="6.74637">
        <ele>2676.93</ele>
        <time>2017-01-25T12:32:23Z</time>
      </trkpt>
      <trkpt lat="44.8165" lon="6.74632">
        <ele>2678.37</ele>
        <time>2017-01-25T12:32:42Z</time>
      </trkpt>
      <trkpt lat="44.81647" lon="6.74632">
        <ele>2678.37</ele>
        <time>2017-01-25T12:33:08Z</time>
      </trkpt>
      <trkpt lat="44.81655" lon="6.74639">
        <ele>2678.85</ele>
        <time>2017-01-25T12:33:36Z</time>
      </trkpt>
      <trkpt lat="44.81653" lon="6.7464">
        <ele>2678.85</ele>
        <time>2017-01-25T12:34:13Z</time>
      </trkpt>
      <trkpt lat="44.81649" lon="6.74641">
        <ele>2680.29</ele>
        <time>2017-01-25T12:34:28Z</time>
      </trkpt>
      <trkpt lat="44.81648" lon="6.74642">
        <ele>2681.73</ele>
        <time>2017-01-25T12:34:31Z</time>
      </trkpt>
      <trkpt lat="44.81636" lon="6.7464">
        <ele>2682.22</ele>
        <time>2017-01-25T12:34:51Z</time>
      </trkpt>
      <trkpt lat="44.81626" lon="6.74635">
        <ele>2682.22</ele>
        <time>2017-01-25T12:35:22Z</time>
      </trkpt>
      <trkpt lat="44.81626" lon="6.74639">
        <ele>2683.66</ele>
        <time>2017-01-25T12:35:39Z</time>
      </trkpt>
      <trkpt lat="44.81632" lon="6.74644">
        <ele>2684.14</ele>
        <time>2017-01-25T12:35:59Z</time>
      </trkpt>
      <trkpt lat="44.8163" lon="6.74647">
        <ele>2685.58</ele>
        <time>2017-01-25T12:36:13Z</time>
      </trkpt>
      <trkpt lat="44.81629" lon="6.74649">
        <ele>2685.58</ele>
        <time>2017-01-25T12:36:28Z</time>
      </trkpt>
      <trkpt lat="44.81626" lon="6.74653">
        <ele>2687.5</ele>
        <time>2017-01-25T12:36:46Z</time>
      </trkpt>
      <trkpt lat="44.81622" lon="6.74659">
        <ele>2689.43</ele>
        <time>2017-01-25T12:37:05Z</time>
      </trkpt>
      <trkpt lat="44.81623" lon="6.74661">
        <ele>2690.39</ele>
        <time>2017-01-25T12:37:28Z</time>
      </trkpt>
      <trkpt lat="44.8162" lon="6.74668">
        <ele>2691.35</ele>
        <time>2017-01-25T12:37:45Z</time>
      </trkpt>
      <trkpt lat="44.81619" lon="6.74668">
        <ele>2691.83</ele>
        <time>2017-01-25T12:38:08Z</time>
      </trkpt>
      <trkpt lat="44.81619" lon="6.74669">
        <ele>2691.83</ele>
        <time>2017-01-25T12:38:40Z</time>
      </trkpt>
      <trkpt lat="44.81617" lon="6.74669">
        <ele>2691.83</ele>
        <time>2017-01-25T12:39:10Z</time>
      </trkpt>
      <trkpt lat="44.8162" lon="6.74669">
        <ele>2691.83</ele>
        <time>2017-01-25T12:39:42Z</time>
      </trkpt>
      <trkpt lat="44.81625" lon="6.74665">
        <ele>2691.83</ele>
        <time>2017-01-25T12:40:17Z</time>
      </trkpt>
      <trkpt lat="44.81621" lon="6.74661">
        <ele>2692.31</ele>
        <time>2017-01-25T12:40:35Z</time>
      </trkpt>
      <trkpt lat="44.81624" lon="6.74658">
        <ele>2692.31</ele>
        <time>2017-01-25T12:41:10Z</time>
      </trkpt>
      <trkpt lat="44.81628" lon="6.74659">
        <ele>2692.31</ele>
        <time>2017-01-25T12:41:43Z</time>
      </trkpt>
      <trkpt lat="44.81629" lon="6.74659">
        <ele>2692.31</ele>
        <time>2017-01-25T12:42:19Z</time>
      </trkpt>
      <trkpt lat="44.81623" lon="6.74653">
        <ele>2693.75</ele>
        <time>2017-01-25T12:42:38Z</time>
      </trkpt>
      <trkpt lat="44.81622" lon="6.74643">
        <ele>2695.19</ele>
        <time>2017-01-25T12:42:57Z</time>
      </trkpt>
      <trkpt lat="44.81623" lon="6.74638">
        <ele>2695.67</ele>
        <time>2017-01-25T12:43:19Z</time>
      </trkpt>
      <trkpt lat="44.8162" lon="6.74638">
        <ele>2696.64</ele>
        <time>2017-01-25T12:43:41Z</time>
      </trkpt>
      <trkpt lat="44.81619" lon="6.74643">
        <ele>2697.12</ele>
        <time>2017-01-25T12:44:07Z</time>
      </trkpt>
      <trkpt lat="44.81614" lon="6.74647">
        <ele>2699.04</ele>
        <time>2017-01-25T12:44:27Z</time>
      </trkpt>
      <trkpt lat="44.8161" lon="6.74651">
        <ele>2700</ele>
        <time>2017-01-25T12:44:48Z</time>
      </trkpt>
      <trkpt lat="44.81606" lon="6.74658">
        <ele>2701.92</ele>
        <time>2017-01-25T12:45:08Z</time>
      </trkpt>
      <trkpt lat="44.8161" lon="6.74658">
        <ele>2702.4</ele>
        <time>2017-01-25T12:45:25Z</time>
      </trkpt>
      <trkpt lat="44.81607" lon="6.74655">
        <ele>2702.4</ele>
        <time>2017-01-25T12:45:54Z</time>
      </trkpt>
      <trkpt lat="44.81609" lon="6.74656">
        <ele>2702.4</ele>
        <time>2017-01-25T12:46:16Z</time>
      </trkpt>
      <trkpt lat="44.81607" lon="6.74653">
        <ele>2702.88</ele>
        <time>2017-01-25T12:46:50Z</time>
      </trkpt>
      <trkpt lat="44.81606" lon="6.74646">
        <ele>2704.81</ele>
        <time>2017-01-25T12:47:05Z</time>
      </trkpt>
      <trkpt lat="44.81604" lon="6.7464">
        <ele>2705.77</ele>
        <time>2017-01-25T12:47:22Z</time>
      </trkpt>
      <trkpt lat="44.81603" lon="6.74638">
        <ele>2706.25</ele>
        <time>2017-01-25T12:47:39Z</time>
      </trkpt>
      <trkpt lat="44.81606" lon="6.7464">
        <ele>2706.25</ele>
        <time>2017-01-25T12:48:05Z</time>
      </trkpt>
      <trkpt lat="44.816" lon="6.74642">
        <ele>2707.69</ele>
        <time>2017-01-25T12:48:23Z</time>
      </trkpt>
      <trkpt lat="44.81596" lon="6.74647">
        <ele>2711.06</ele>
        <time>2017-01-25T12:48:36Z</time>
      </trkpt>
      <trkpt lat="44.81592" lon="6.74654">
        <ele>2711.06</ele>
        <time>2017-01-25T12:48:53Z</time>
      </trkpt>
      <trkpt lat="44.81588" lon="6.74659">
        <ele>2712.98</ele>
        <time>2017-01-25T12:49:09Z</time>
      </trkpt>
      <trkpt lat="44.81591" lon="6.74657">
        <ele>2712.5</ele>
        <time>2017-01-25T12:49:27Z</time>
      </trkpt>
      <trkpt lat="44.81593" lon="6.74657">
        <ele>2712.98</ele>
        <time>2017-01-25T12:49:44Z</time>
      </trkpt>
      <trkpt lat="44.81589" lon="6.74653">
        <ele>2714.42</ele>
        <time>2017-01-25T12:50:01Z</time>
      </trkpt>
      <trkpt lat="44.81585" lon="6.74644">
        <ele>2715.86</ele>
        <time>2017-01-25T12:50:19Z</time>
      </trkpt>
      <trkpt lat="44.81582" lon="6.74642">
        <ele>2718.75</ele>
        <time>2017-01-25T12:50:36Z</time>
      </trkpt>
      <trkpt lat="44.81579" lon="6.74646">
        <ele>2719.23</ele>
        <time>2017-01-25T12:50:53Z</time>
      </trkpt>
      <trkpt lat="44.81577" lon="6.74648">
        <ele>2721.15</ele>
        <time>2017-01-25T12:51:09Z</time>
      </trkpt>
      <trkpt lat="44.81574" lon="6.74646">
        <ele>2721.63</ele>
        <time>2017-01-25T12:51:26Z</time>
      </trkpt>
      <trkpt lat="44.8157" lon="6.74652">
        <ele>2723.07</ele>
        <time>2017-01-25T12:51:42Z</time>
      </trkpt>
      <trkpt lat="44.81565" lon="6.74658">
        <ele>2725.48</ele>
        <time>2017-01-25T12:52:01Z</time>
      </trkpt>
      <trkpt lat="44.81564" lon="6.74658">
        <ele>2725.96</ele>
        <time>2017-01-25T12:52:21Z</time>
      </trkpt>
      <trkpt lat="44.81565" lon="6.74662">
        <ele>2725.96</ele>
        <time>2017-01-25T12:52:45Z</time>
      </trkpt>
      <trkpt lat="44.81565" lon="6.74663">
        <ele>2725.48</ele>
        <time>2017-01-25T12:53:24Z</time>
      </trkpt>
      <trkpt lat="44.81563" lon="6.74663">
        <ele>2725.96</ele>
        <time>2017-01-25T12:53:48Z</time>
      </trkpt>
      <trkpt lat="44.81563" lon="6.74662">
        <ele>2725.96</ele>
        <time>2017-01-25T12:54:12Z</time>
      </trkpt>
      <trkpt lat="44.8156" lon="6.74662">
        <ele>2728.36</ele>
        <time>2017-01-25T12:54:38Z</time>
      </trkpt>
      <trkpt lat="44.81561" lon="6.74664">
        <ele>2727.4</ele>
        <time>2017-01-25T12:55:03Z</time>
      </trkpt>
      <trkpt lat="44.8156" lon="6.74663">
        <ele>2726.92</ele>
        <time>2017-01-25T12:55:31Z</time>
      </trkpt>
      <trkpt lat="44.81558" lon="6.74664">
        <ele>2726.92</ele>
        <time>2017-01-25T12:55:49Z</time>
      </trkpt>
      <trkpt lat="44.8156" lon="6.74665">
        <ele>2726.92</ele>
        <time>2017-01-25T12:56:12Z</time>
      </trkpt>
      <trkpt lat="44.8156" lon="6.74665">
        <ele>2725.48</ele>
        <time>2017-01-25T12:56:32Z</time>
      </trkpt>
      <trkpt lat="44.8156" lon="6.7467">
        <ele>2725.96</ele>
        <time>2017-01-25T12:57:01Z</time>
      </trkpt>
      <trkpt lat="44.81563" lon="6.74662">
        <ele>2726.44</ele>
        <time>2017-01-25T12:57:27Z</time>
      </trkpt>
      <trkpt lat="44.81565" lon="6.74662">
        <ele>2726.44</ele>
        <time>2017-01-25T12:58:02Z</time>
      </trkpt>
      <trkpt lat="44.81563" lon="6.74662">
        <ele>2726.44</ele>
        <time>2017-01-25T12:58:27Z</time>
      </trkpt>
      <trkpt lat="44.81561" lon="6.7466">
        <ele>2726.92</ele>
        <time>2017-01-25T12:59:11Z</time>
      </trkpt>
      <trkpt lat="44.81562" lon="6.74661">
        <ele>2726.92</ele>
        <time>2017-01-25T12:59:48Z</time>
      </trkpt>
      <trkpt lat="44.8156" lon="6.74661">
        <ele>2726.92</ele>
        <time>2017-01-25T13:00:18Z</time>
      </trkpt>
      <trkpt lat="44.81556" lon="6.74655">
        <ele>2727.4</ele>
        <time>2017-01-25T13:00:54Z</time>
      </trkpt>
      <trkpt lat="44.8156" lon="6.74666">
        <ele>2727.4</ele>
        <time>2017-01-25T13:01:17Z</time>
      </trkpt>
      <trkpt lat="44.81559" lon="6.74659">
        <ele>2727.4</ele>
        <time>2017-01-25T13:01:41Z</time>
      </trkpt>
      <trkpt lat="44.81561" lon="6.7466">
        <ele>2727.4</ele>
        <time>2017-01-25T13:02:12Z</time>
      </trkpt>
      <trkpt lat="44.81561" lon="6.74658">
        <ele>2727.4</ele>
        <time>2017-01-25T13:02:50Z</time>
      </trkpt>
      <trkpt lat="44.81558" lon="6.74661">
        <ele>2728.84</ele>
        <time>2017-01-25T13:03:06Z</time>
      </trkpt>
      <trkpt lat="44.81559" lon="6.74668">
        <ele>2729.32</ele>
        <time>2017-01-25T13:03:20Z</time>
      </trkpt>
      <trkpt lat="44.81556" lon="6.7467">
        <ele>2730.76</ele>
        <time>2017-01-25T13:03:36Z</time>
      </trkpt>
      <trkpt lat="44.81556" lon="6.74674">
        <ele>2732.68</ele>
        <time>2017-01-25T13:03:53Z</time>
      </trkpt>
      <trkpt lat="44.81556" lon="6.74678">
        <ele>2734.61</ele>
        <time>2017-01-25T13:04:11Z</time>
      </trkpt>
      <trkpt lat="44.81555" lon="6.7468">
        <ele>2736.05</ele>
        <time>2017-01-25T13:04:25Z</time>
      </trkpt>
      <trkpt lat="44.81554" lon="6.74684">
        <ele>2739.89</ele>
        <time>2017-01-25T13:04:42Z</time>
      </trkpt>
      <trkpt lat="44.81553" lon="6.74685">
        <ele>2739.89</ele>
        <time>2017-01-25T13:04:57Z</time>
      </trkpt>
      <trkpt lat="44.81552" lon="6.74689">
        <ele>2741.82</ele>
        <time>2017-01-25T13:05:14Z</time>
      </trkpt>
      <trkpt lat="44.81552" lon="6.74692">
        <ele>2743.26</ele>
        <time>2017-01-25T13:05:31Z</time>
      </trkpt>
      <trkpt lat="44.81552" lon="6.74694">
        <ele>2744.7</ele>
        <time>2017-01-25T13:05:49Z</time>
      </trkpt>
      <trkpt lat="44.8155" lon="6.74696">
        <ele>2746.14</ele>
        <time>2017-01-25T13:06:04Z</time>
      </trkpt>
      <trkpt lat="44.81549" lon="6.74699">
        <ele>2747.59</ele>
        <time>2017-01-25T13:06:20Z</time>
      </trkpt>
      <trkpt lat="44.81549" lon="6.74703">
        <ele>2749.03</ele>
        <time>2017-01-25T13:06:35Z</time>
      </trkpt>
      <trkpt lat="44.81549" lon="6.74707">
        <ele>2750.47</ele>
        <time>2017-01-25T13:06:51Z</time>
      </trkpt>
      <trkpt lat="44.81548" lon="6.7471">
        <ele>2751.91</ele>
        <time>2017-01-25T13:07:09Z</time>
      </trkpt>
      <trkpt lat="44.81546" lon="6.74713">
        <ele>2753.83</ele>
        <time>2017-01-25T13:07:28Z</time>
      </trkpt>
      <trkpt lat="44.81545" lon="6.74714">
        <ele>2754.8</ele>
        <time>2017-01-25T13:07:42Z</time>
      </trkpt>
      <trkpt lat="44.81542" lon="6.74717">
        <ele>2756.72</ele>
        <time>2017-01-25T13:08:01Z</time>
      </trkpt>
      <trkpt lat="44.81541" lon="6.7472">
        <ele>2757.68</ele>
        <time>2017-01-25T13:08:15Z</time>
      </trkpt>
      <trkpt lat="44.81539" lon="6.7472">
        <ele>2758.64</ele>
        <time>2017-01-25T13:08:30Z</time>
      </trkpt>
      <trkpt lat="44.81537" lon="6.74719">
        <ele>2760.08</ele>
        <time>2017-01-25T13:08:47Z</time>
      </trkpt>
      <trkpt lat="44.81534" lon="6.7472">
        <ele>2761.52</ele>
        <time>2017-01-25T13:09:08Z</time>
      </trkpt>
      <trkpt lat="44.8153" lon="6.74722">
        <ele>2761.52</ele>
        <time>2017-01-25T13:09:33Z</time>
      </trkpt>
      <trkpt lat="44.81527" lon="6.74725">
        <ele>2762.97</ele>
        <time>2017-01-25T13:09:48Z</time>
      </trkpt>
      <trkpt lat="44.81523" lon="6.74728">
        <ele>2763.93</ele>
        <time>2017-01-25T13:10:03Z</time>
      </trkpt>
      <trkpt lat="44.81522" lon="6.74731">
        <ele>2764.89</ele>
        <time>2017-01-25T13:10:17Z</time>
      </trkpt>
      <trkpt lat="44.8152" lon="6.74735">
        <ele>2765.85</ele>
        <time>2017-01-25T13:10:34Z</time>
      </trkpt>
      <trkpt lat="44.81517" lon="6.74734">
        <ele>2767.29</ele>
        <time>2017-01-25T13:10:52Z</time>
      </trkpt>
      <trkpt lat="44.81513" lon="6.74735">
        <ele>2767.77</ele>
        <time>2017-01-25T13:11:09Z</time>
      </trkpt>
      <trkpt lat="44.81508" lon="6.74738">
        <ele>2767.77</ele>
        <time>2017-01-25T13:11:24Z</time>
      </trkpt>
      <trkpt lat="44.81503" lon="6.74743">
        <ele>2768.25</ele>
        <time>2017-01-25T13:11:40Z</time>
      </trkpt>
      <trkpt lat="44.81499" lon="6.74745">
        <ele>2769.21</ele>
        <time>2017-01-25T13:11:56Z</time>
      </trkpt>
      <trkpt lat="44.81492" lon="6.74744">
        <ele>2768.73</ele>
        <time>2017-01-25T13:12:15Z</time>
      </trkpt>
      <trkpt lat="44.81486" lon="6.74745">
        <ele>2769.7</ele>
        <time>2017-01-25T13:12:31Z</time>
      </trkpt>
      <trkpt lat="44.8148" lon="6.74746">
        <ele>2770.18</ele>
        <time>2017-01-25T13:12:49Z</time>
      </trkpt>
      <trkpt lat="44.81477" lon="6.74753">
        <ele>2771.14</ele>
        <time>2017-01-25T13:13:04Z</time>
      </trkpt>
      <trkpt lat="44.81476" lon="6.74752">
        <ele>2771.14</ele>
        <time>2017-01-25T13:13:23Z</time>
      </trkpt>
      <trkpt lat="44.81473" lon="6.74753">
        <ele>2772.58</ele>
        <time>2017-01-25T13:13:39Z</time>
      </trkpt>
      <trkpt lat="44.81474" lon="6.74754">
        <ele>2771.62</ele>
        <time>2017-01-25T13:13:56Z</time>
      </trkpt>
      <trkpt lat="44.81475" lon="6.74757">
        <ele>2771.62</ele>
        <time>2017-01-25T13:14:17Z</time>
      </trkpt>
      <trkpt lat="44.81474" lon="6.74759">
        <ele>2772.58</ele>
        <time>2017-01-25T13:14:41Z</time>
      </trkpt>
      <trkpt lat="44.81475" lon="6.74757">
        <ele>2772.1</ele>
        <time>2017-01-25T13:15:02Z</time>
      </trkpt>
      <trkpt lat="44.81475" lon="6.74754">
        <ele>2772.1</ele>
        <time>2017-01-25T13:15:22Z</time>
      </trkpt>
      <trkpt lat="44.81474" lon="6.74757">
        <ele>2772.58</ele>
        <time>2017-01-25T13:15:36Z</time>
      </trkpt>
      <trkpt lat="44.81471" lon="6.74759">
        <ele>2774.02</ele>
        <time>2017-01-25T13:15:50Z</time>
      </trkpt>
      <trkpt lat="44.81469" lon="6.74758">
        <ele>2776.42</ele>
        <time>2017-01-25T13:16:06Z</time>
      </trkpt>
      <trkpt lat="44.81467" lon="6.74762">
        <ele>2777.87</ele>
        <time>2017-01-25T13:16:22Z</time>
      </trkpt>
      <trkpt lat="44.81466" lon="6.74761">
        <ele>2779.79</ele>
        <time>2017-01-25T13:16:40Z</time>
      </trkpt>
      <trkpt lat="44.81466" lon="6.74765">
        <ele>2780.27</ele>
        <time>2017-01-25T13:16:53Z</time>
      </trkpt>
      <trkpt lat="44.81464" lon="6.74769">
        <ele>2782.67</ele>
        <time>2017-01-25T13:17:09Z</time>
      </trkpt>
      <trkpt lat="44.81462" lon="6.74773">
        <ele>2784.12</ele>
        <time>2017-01-25T13:17:24Z</time>
      </trkpt>
      <trkpt lat="44.81461" lon="6.74776">
        <ele>2786.04</ele>
        <time>2017-01-25T13:17:40Z</time>
      </trkpt>
      <trkpt lat="44.81459" lon="6.74778">
        <ele>2787</ele>
        <time>2017-01-25T13:17:55Z</time>
      </trkpt>
      <trkpt lat="44.81458" lon="6.74781">
        <ele>2788.92</ele>
        <time>2017-01-25T13:18:11Z</time>
      </trkpt>
      <trkpt lat="44.81456" lon="6.74784">
        <ele>2790.84</ele>
        <time>2017-01-25T13:18:27Z</time>
      </trkpt>
      <trkpt lat="44.81456" lon="6.74786">
        <ele>2791.33</ele>
        <time>2017-01-25T13:18:45Z</time>
      </trkpt>
      <trkpt lat="44.81454" lon="6.74788">
        <ele>2793.25</ele>
        <time>2017-01-25T13:19:03Z</time>
      </trkpt>
      <trkpt lat="44.81453" lon="6.74791">
        <ele>2794.21</ele>
        <time>2017-01-25T13:19:16Z</time>
      </trkpt>
      <trkpt lat="44.81451" lon="6.74793">
        <ele>2795.65</ele>
        <time>2017-01-25T13:19:30Z</time>
      </trkpt>
      <trkpt lat="44.81449" lon="6.74796">
        <ele>2797.09</ele>
        <time>2017-01-25T13:19:46Z</time>
      </trkpt>
      <trkpt lat="44.81447" lon="6.74799">
        <ele>2798.54</ele>
        <time>2017-01-25T13:20:00Z</time>
      </trkpt>
      <trkpt lat="44.81446" lon="6.74799">
        <ele>2799.98</ele>
        <time>2017-01-25T13:20:14Z</time>
      </trkpt>
      <trkpt lat="44.81445" lon="6.74796">
        <ele>2800.94</ele>
        <time>2017-01-25T13:20:28Z</time>
      </trkpt>
      <trkpt lat="44.81445" lon="6.74796">
        <ele>2801.42</ele>
        <time>2017-01-25T13:20:57Z</time>
      </trkpt>
      <trkpt lat="44.81443" lon="6.74798">
        <ele>2802.38</ele>
        <time>2017-01-25T13:21:17Z</time>
      </trkpt>
      <trkpt lat="44.81441" lon="6.748">
        <ele>2803.82</ele>
        <time>2017-01-25T13:21:30Z</time>
      </trkpt>
      <trkpt lat="44.81439" lon="6.74802">
        <ele>2805.75</ele>
        <time>2017-01-25T13:21:48Z</time>
      </trkpt>
      <trkpt lat="44.81437" lon="6.74803">
        <ele>2807.19</ele>
        <time>2017-01-25T13:22:02Z</time>
      </trkpt>
      <trkpt lat="44.81435" lon="6.74804">
        <ele>2808.63</ele>
        <time>2017-01-25T13:22:19Z</time>
      </trkpt>
      <trkpt lat="44.81433" lon="6.74806">
        <ele>2810.07</ele>
        <time>2017-01-25T13:22:33Z</time>
      </trkpt>
      <trkpt lat="44.81432" lon="6.74806">
        <ele>2810.07</ele>
        <time>2017-01-25T13:22:58Z</time>
      </trkpt>
      <trkpt lat="44.81429" lon="6.74807">
        <ele>2811.99</ele>
        <time>2017-01-25T13:23:14Z</time>
      </trkpt>
      <trkpt lat="44.81428" lon="6.74806">
        <ele>2812.96</ele>
        <time>2017-01-25T13:23:29Z</time>
      </trkpt>
      <trkpt lat="44.81426" lon="6.7481">
        <ele>2813.92</ele>
        <time>2017-01-25T13:23:45Z</time>
      </trkpt>
      <trkpt lat="44.81424" lon="6.74808">
        <ele>2815.84</ele>
        <time>2017-01-25T13:24:01Z</time>
      </trkpt>
      <trkpt lat="44.81424" lon="6.74806">
        <ele>2816.8</ele>
        <time>2017-01-25T13:24:15Z</time>
      </trkpt>
      <trkpt lat="44.81423" lon="6.74803">
        <ele>2818.24</ele>
        <time>2017-01-25T13:24:33Z</time>
      </trkpt>
      <trkpt lat="44.81423" lon="6.748">
        <ele>2819.2</ele>
        <time>2017-01-25T13:24:49Z</time>
      </trkpt>
      <trkpt lat="44.81422" lon="6.74802">
        <ele>2820.16</ele>
        <time>2017-01-25T13:25:05Z</time>
      </trkpt>
      <trkpt lat="44.8142" lon="6.748">
        <ele>2822.57</ele>
        <time>2017-01-25T13:25:22Z</time>
      </trkpt>
      <trkpt lat="44.81418" lon="6.74799">
        <ele>2824.01</ele>
        <time>2017-01-25T13:25:38Z</time>
      </trkpt>
      <trkpt lat="44.81415" lon="6.74802">
        <ele>2825.45</ele>
        <time>2017-01-25T13:25:56Z</time>
      </trkpt>
      <trkpt lat="44.81413" lon="6.74802">
        <ele>2826.89</ele>
        <time>2017-01-25T13:26:14Z</time>
      </trkpt>
      <trkpt lat="44.81411" lon="6.74802">
        <ele>2828.82</ele>
        <time>2017-01-25T13:26:31Z</time>
      </trkpt>
      <trkpt lat="44.8141" lon="6.74803">
        <ele>2829.78</ele>
        <time>2017-01-25T13:26:54Z</time>
      </trkpt>
      <trkpt lat="44.81407" lon="6.74803">
        <ele>2831.22</ele>
        <time>2017-01-25T13:27:12Z</time>
      </trkpt>
      <trkpt lat="44.81404" lon="6.74808">
        <ele>2832.66</ele>
        <time>2017-01-25T13:27:31Z</time>
      </trkpt>
      <trkpt lat="44.81401" lon="6.74813">
        <ele>2833.62</ele>
        <time>2017-01-25T13:27:48Z</time>
      </trkpt>
      <trkpt lat="44.81401" lon="6.74816">
        <ele>2833.62</ele>
        <time>2017-01-25T13:28:03Z</time>
      </trkpt>
      <trkpt lat="44.81399" lon="6.74819">
        <ele>2834.1</ele>
        <time>2017-01-25T13:28:22Z</time>
      </trkpt>
      <trkpt lat="44.81397" lon="6.74823">
        <ele>2835.55</ele>
        <time>2017-01-25T13:28:39Z</time>
      </trkpt>
      <trkpt lat="44.81395" lon="6.74825">
        <ele>2836.51</ele>
        <time>2017-01-25T13:28:54Z</time>
      </trkpt>
      <trkpt lat="44.81392" lon="6.74829">
        <ele>2837.95</ele>
        <time>2017-01-25T13:29:10Z</time>
      </trkpt>
      <trkpt lat="44.81391" lon="6.7483">
        <ele>2838.43</ele>
        <time>2017-01-25T13:29:27Z</time>
      </trkpt>
      <trkpt lat="44.81389" lon="6.74832">
        <ele>2840.83</ele>
        <time>2017-01-25T13:29:45Z</time>
      </trkpt>
      <trkpt lat="44.81388" lon="6.74833">
        <ele>2841.79</ele>
        <time>2017-01-25T13:30:02Z</time>
      </trkpt>
      <trkpt lat="44.81386" lon="6.74835">
        <ele>2843.24</ele>
        <time>2017-01-25T13:30:21Z</time>
      </trkpt>
      <trkpt lat="44.81384" lon="6.74836">
        <ele>2844.68</ele>
        <time>2017-01-25T13:30:36Z</time>
      </trkpt>
      <trkpt lat="44.81383" lon="6.74837">
        <ele>2846.6</ele>
        <time>2017-01-25T13:30:49Z</time>
      </trkpt>
      <trkpt lat="44.81381" lon="6.74839">
        <ele>2846.6</ele>
        <time>2017-01-25T13:31:02Z</time>
      </trkpt>
      <trkpt lat="44.8138" lon="6.74841">
        <ele>2847.56</ele>
        <time>2017-01-25T13:31:19Z</time>
      </trkpt>
      <trkpt lat="44.81379" lon="6.74843">
        <ele>2849</ele>
        <time>2017-01-25T13:31:36Z</time>
      </trkpt>
      <trkpt lat="44.8138" lon="6.74845">
        <ele>2849.48</ele>
        <time>2017-01-25T13:31:59Z</time>
      </trkpt>
      <trkpt lat="44.81379" lon="6.74844">
        <ele>2849.48</ele>
        <time>2017-01-25T13:32:23Z</time>
      </trkpt>
      <trkpt lat="44.81379" lon="6.74846">
        <ele>2850.93</ele>
        <time>2017-01-25T13:32:39Z</time>
      </trkpt>
      <trkpt lat="44.81377" lon="6.74848">
        <ele>2851.41</ele>
        <time>2017-01-25T13:32:55Z</time>
      </trkpt>
      <trkpt lat="44.81376" lon="6.74849">
        <ele>2853.81</ele>
        <time>2017-01-25T13:33:11Z</time>
      </trkpt>
      <trkpt lat="44.81375" lon="6.74848">
        <ele>2853.81</ele>
        <time>2017-01-25T13:33:30Z</time>
      </trkpt>
      <trkpt lat="44.81375" lon="6.74849">
        <ele>2855.25</ele>
        <time>2017-01-25T13:33:43Z</time>
      </trkpt>
      <trkpt lat="44.81372" lon="6.74848">
        <ele>2857.18</ele>
        <time>2017-01-25T13:33:57Z</time>
      </trkpt>
      <trkpt lat="44.81366" lon="6.74848">
        <ele>2859.58</ele>
        <time>2017-01-25T13:34:12Z</time>
      </trkpt>
      <trkpt lat="44.81364" lon="6.74844">
        <ele>2860.06</ele>
        <time>2017-01-25T13:34:38Z</time>
      </trkpt>
      <trkpt lat="44.81364" lon="6.74845">
        <ele>2860.54</ele>
        <time>2017-01-25T13:34:58Z</time>
      </trkpt>
      <trkpt lat="44.81363" lon="6.74845">
        <ele>2860.54</ele>
        <time>2017-01-25T13:35:18Z</time>
      </trkpt>
      <trkpt lat="44.81362" lon="6.74845">
        <ele>2861.98</ele>
        <time>2017-01-25T13:35:38Z</time>
      </trkpt>
      <trkpt lat="44.81362" lon="6.74849">
        <ele>2862.94</ele>
        <time>2017-01-25T13:35:55Z</time>
      </trkpt>
      <trkpt lat="44.8136" lon="6.74851">
        <ele>2861.98</ele>
        <time>2017-01-25T13:36:16Z</time>
      </trkpt>
      <trkpt lat="44.81359" lon="6.74849">
        <ele>2862.46</ele>
        <time>2017-01-25T13:36:28Z</time>
      </trkpt>
      <trkpt lat="44.8136" lon="6.7485">
        <ele>2862.46</ele>
        <time>2017-01-25T13:36:41Z</time>
      </trkpt>
      <trkpt lat="44.81361" lon="6.7485">
        <ele>2862.94</ele>
        <time>2017-01-25T13:36:57Z</time>
      </trkpt>
      <trkpt lat="44.81362" lon="6.7485">
        <ele>2862.46</ele>
        <time>2017-01-25T13:37:17Z</time>
      </trkpt>
      <trkpt lat="44.81361" lon="6.74852">
        <ele>2862.46</ele>
        <time>2017-01-25T13:37:31Z</time>
      </trkpt>
      <trkpt lat="44.81359" lon="6.7485">
        <ele>2862.46</ele>
        <time>2017-01-25T13:37:48Z</time>
      </trkpt>
      <trkpt lat="44.81361" lon="6.74849">
        <ele>2862.94</ele>
        <time>2017-01-25T13:38:09Z</time>
      </trkpt>
      <trkpt lat="44.81362" lon="6.7485">
        <ele>2862.94</ele>
        <time>2017-01-25T13:38:25Z</time>
      </trkpt>
      <trkpt lat="44.81363" lon="6.7485">
        <ele>2862.94</ele>
        <time>2017-01-25T13:38:47Z</time>
      </trkpt>
      <trkpt lat="44.81362" lon="6.74849">
        <ele>2862.94</ele>
        <time>2017-01-25T13:39:14Z</time>
      </trkpt>
      <trkpt lat="44.81362" lon="6.74849">
        <ele>2862.94</ele>
        <time>2017-01-25T13:39:30Z</time>
      </trkpt>
      <trkpt lat="44.81362" lon="6.74848">
        <ele>2862.94</ele>
        <time>2017-01-25T13:39:47Z</time>
      </trkpt>
      <trkpt lat="44.81362" lon="6.7485">
        <ele>2862.94</ele>
        <time>2017-01-25T13:40:07Z</time>
      </trkpt>
      <trkpt lat="44.81363" lon="6.74847">
        <ele>2862.46</ele>
        <time>2017-01-25T13:40:24Z</time>
      </trkpt>
      <trkpt lat="44.81365" lon="6.74843">
        <ele>2860.54</ele>
        <time>2017-01-25T13:40:39Z</time>
      </trkpt>
      <trkpt lat="44.81368" lon="6.74846">
        <ele>2859.58</ele>
        <time>2017-01-25T13:40:51Z</time>
      </trkpt>
      <trkpt lat="44.81368" lon="6.74846">
        <ele>2858.14</ele>
        <time>2017-01-25T13:41:10Z</time>
      </trkpt>
      <trkpt lat="44.81369" lon="6.74846">
        <ele>2856.21</ele>
        <time>2017-01-25T13:41:22Z</time>
      </trkpt>
      <trkpt lat="44.81369" lon="6.74846">
        <ele>2855.25</ele>
        <time>2017-01-25T13:41:37Z</time>
      </trkpt>
      <trkpt lat="44.81369" lon="6.74846">
        <ele>2854.77</ele>
        <time>2017-01-25T13:41:54Z</time>
      </trkpt>
      <trkpt lat="44.81371" lon="6.74846">
        <ele>2852.37</ele>
        <time>2017-01-25T13:42:10Z</time>
      </trkpt>
      <trkpt lat="44.81372" lon="6.74846">
        <ele>2851.89</ele>
        <time>2017-01-25T13:42:29Z</time>
      </trkpt>
      <trkpt lat="44.81373" lon="6.74844">
        <ele>2849.97</ele>
        <time>2017-01-25T13:42:47Z</time>
      </trkpt>
      <trkpt lat="44.81375" lon="6.74842">
        <ele>2849.48</ele>
        <time>2017-01-25T13:43:03Z</time>
      </trkpt>
      <trkpt lat="44.81376" lon="6.74841">
        <ele>2848.52</ele>
        <time>2017-01-25T13:43:20Z</time>
      </trkpt>
      <trkpt lat="44.81377" lon="6.74839">
        <ele>2847.08</ele>
        <time>2017-01-25T13:43:35Z</time>
      </trkpt>
      <trkpt lat="44.81379" lon="6.74836">
        <ele>2846.12</ele>
        <time>2017-01-25T13:43:50Z</time>
      </trkpt>
      <trkpt lat="44.81379" lon="6.74834">
        <ele>2845.16</ele>
        <time>2017-01-25T13:44:06Z</time>
      </trkpt>
      <trkpt lat="44.8138" lon="6.74832">
        <ele>2844.2</ele>
        <time>2017-01-25T13:44:28Z</time>
      </trkpt>
      <trkpt lat="44.81381" lon="6.74833">
        <ele>2843.72</ele>
        <time>2017-01-25T13:44:54Z</time>
      </trkpt>
      <trkpt lat="44.81383" lon="6.74829">
        <ele>2842.28</ele>
        <time>2017-01-25T13:45:09Z</time>
      </trkpt>
      <trkpt lat="44.81384" lon="6.74829">
        <ele>2841.79</ele>
        <time>2017-01-25T13:45:22Z</time>
      </trkpt>
      <trkpt lat="44.81386" lon="6.74828">
        <ele>2840.83</ele>
        <time>2017-01-25T13:45:36Z</time>
      </trkpt>
      <trkpt lat="44.81388" lon="6.74826">
        <ele>2840.35</ele>
        <time>2017-01-25T13:45:50Z</time>
      </trkpt>
      <trkpt lat="44.81388" lon="6.74826">
        <ele>2839.39</ele>
        <time>2017-01-25T13:46:08Z</time>
      </trkpt>
      <trkpt lat="44.8139" lon="6.74826">
        <ele>2837.95</ele>
        <time>2017-01-25T13:46:25Z</time>
      </trkpt>
      <trkpt lat="44.81391" lon="6.74826">
        <ele>2836.99</ele>
        <time>2017-01-25T13:46:40Z</time>
      </trkpt>
      <trkpt lat="44.81392" lon="6.74825">
        <ele>2836.51</ele>
        <time>2017-01-25T13:47:01Z</time>
      </trkpt>
      <trkpt lat="44.81393" lon="6.74823">
        <ele>2835.55</ele>
        <time>2017-01-25T13:47:15Z</time>
      </trkpt>
      <trkpt lat="44.81393" lon="6.74821">
        <ele>2834.58</ele>
        <time>2017-01-25T13:47:29Z</time>
      </trkpt>
      <trkpt lat="44.81395" lon="6.74818">
        <ele>2833.62</ele>
        <time>2017-01-25T13:47:48Z</time>
      </trkpt>
      <trkpt lat="44.81396" lon="6.74816">
        <ele>2833.14</ele>
        <time>2017-01-25T13:48:03Z</time>
      </trkpt>
      <trkpt lat="44.81398" lon="6.74813">
        <ele>2832.66</ele>
        <time>2017-01-25T13:48:19Z</time>
      </trkpt>
      <trkpt lat="44.81399" lon="6.74811">
        <ele>2832.66</ele>
        <time>2017-01-25T13:48:33Z</time>
      </trkpt>
      <trkpt lat="44.81401" lon="6.74808">
        <ele>2832.18</ele>
        <time>2017-01-25T13:48:51Z</time>
      </trkpt>
      <trkpt lat="44.81404" lon="6.74801">
        <ele>2831.22</ele>
        <time>2017-01-25T13:49:08Z</time>
      </trkpt>
      <trkpt lat="44.81407" lon="6.74799">
        <ele>2829.78</ele>
        <time>2017-01-25T13:49:27Z</time>
      </trkpt>
      <trkpt lat="44.81411" lon="6.74798">
        <ele>2827.85</ele>
        <time>2017-01-25T13:49:43Z</time>
      </trkpt>
      <trkpt lat="44.81415" lon="6.74796">
        <ele>2824.97</ele>
        <time>2017-01-25T13:49:57Z</time>
      </trkpt>
      <trkpt lat="44.81416" lon="6.74794">
        <ele>2823.05</ele>
        <time>2017-01-25T13:50:13Z</time>
      </trkpt>
      <trkpt lat="44.81421" lon="6.74794">
        <ele>2820.65</ele>
        <time>2017-01-25T13:50:29Z</time>
      </trkpt>
      <trkpt lat="44.81425" lon="6.74797">
        <ele>2818.24</ele>
        <time>2017-01-25T13:50:44Z</time>
      </trkpt>
      <trkpt lat="44.81426" lon="6.74799">
        <ele>2817.76</ele>
        <time>2017-01-25T13:51:03Z</time>
      </trkpt>
      <trkpt lat="44.81426" lon="6.74803">
        <ele>2816.32</ele>
        <time>2017-01-25T13:51:18Z</time>
      </trkpt>
      <trkpt lat="44.81426" lon="6.74804">
        <ele>2815.36</ele>
        <time>2017-01-25T13:51:32Z</time>
      </trkpt>
      <trkpt lat="44.81426" lon="6.74804">
        <ele>2814.88</ele>
        <time>2017-01-25T13:51:47Z</time>
      </trkpt>
      <trkpt lat="44.81427" lon="6.74807">
        <ele>2813.44</ele>
        <time>2017-01-25T13:52:03Z</time>
      </trkpt>
      <trkpt lat="44.8143" lon="6.74805">
        <ele>2811.51</ele>
        <time>2017-01-25T13:52:20Z</time>
      </trkpt>
      <trkpt lat="44.81429" lon="6.74804">
        <ele>2811.03</ele>
        <time>2017-01-25T13:52:41Z</time>
      </trkpt>
      <trkpt lat="44.8143" lon="6.74801">
        <ele>2810.07</ele>
        <time>2017-01-25T13:53:02Z</time>
      </trkpt>
      <trkpt lat="44.81433" lon="6.74801">
        <ele>2807.67</ele>
        <time>2017-01-25T13:53:15Z</time>
      </trkpt>
      <trkpt lat="44.81436" lon="6.74801">
        <ele>2806.71</ele>
        <time>2017-01-25T13:53:27Z</time>
      </trkpt>
      <trkpt lat="44.81438" lon="6.74798">
        <ele>2803.34</ele>
        <time>2017-01-25T13:53:43Z</time>
      </trkpt>
      <trkpt lat="44.81441" lon="6.74798">
        <ele>2801.9</ele>
        <time>2017-01-25T13:53:56Z</time>
      </trkpt>
      <trkpt lat="44.81443" lon="6.74796">
        <ele>2799.98</ele>
        <time>2017-01-25T13:54:10Z</time>
      </trkpt>
      <trkpt lat="44.81443" lon="6.74794">
        <ele>2799.5</ele>
        <time>2017-01-25T13:54:33Z</time>
      </trkpt>
      <trkpt lat="44.81445" lon="6.74792">
        <ele>2798.05</ele>
        <time>2017-01-25T13:54:46Z</time>
      </trkpt>
      <trkpt lat="44.81447" lon="6.74794">
        <ele>2797.57</ele>
        <time>2017-01-25T13:55:14Z</time>
      </trkpt>
      <trkpt lat="44.8145" lon="6.74796">
        <ele>2796.13</ele>
        <time>2017-01-25T13:55:31Z</time>
      </trkpt>
      <trkpt lat="44.8145" lon="6.74794">
        <ele>2795.17</ele>
        <time>2017-01-25T13:55:46Z</time>
      </trkpt>
      <trkpt lat="44.8145" lon="6.74796">
        <ele>2794.69</ele>
        <time>2017-01-25T13:56:04Z</time>
      </trkpt>
      <trkpt lat="44.81451" lon="6.74791">
        <ele>2792.77</ele>
        <time>2017-01-25T13:56:22Z</time>
      </trkpt>
      <trkpt lat="44.81454" lon="6.74786">
        <ele>2790.84</ele>
        <time>2017-01-25T13:56:40Z</time>
      </trkpt>
      <trkpt lat="44.81456" lon="6.74783">
        <ele>2788.92</ele>
        <time>2017-01-25T13:56:58Z</time>
      </trkpt>
      <trkpt lat="44.81457" lon="6.74782">
        <ele>2787.48</ele>
        <time>2017-01-25T13:57:18Z</time>
      </trkpt>
      <trkpt lat="44.8146" lon="6.74777">
        <ele>2785.08</ele>
        <time>2017-01-25T13:57:35Z</time>
      </trkpt>
      <trkpt lat="44.81461" lon="6.74773">
        <ele>2783.15</ele>
        <time>2017-01-25T13:57:51Z</time>
      </trkpt>
      <trkpt lat="44.81464" lon="6.74767">
        <ele>2779.79</ele>
        <time>2017-01-25T13:58:08Z</time>
      </trkpt>
      <trkpt lat="44.81466" lon="6.74764">
        <ele>2777.87</ele>
        <time>2017-01-25T13:58:21Z</time>
      </trkpt>
      <trkpt lat="44.81466" lon="6.74761">
        <ele>2776.91</ele>
        <time>2017-01-25T13:58:37Z</time>
      </trkpt>
      <trkpt lat="44.81467" lon="6.7476">
        <ele>2775.46</ele>
        <time>2017-01-25T13:58:57Z</time>
      </trkpt>
      <trkpt lat="44.81469" lon="6.7476">
        <ele>2774.5</ele>
        <time>2017-01-25T13:59:08Z</time>
      </trkpt>
      <trkpt lat="44.81468" lon="6.74758">
        <ele>2773.06</ele>
        <time>2017-01-25T13:59:27Z</time>
      </trkpt>
      <trkpt lat="44.81474" lon="6.74755">
        <ele>2769.7</ele>
        <time>2017-01-25T13:59:42Z</time>
      </trkpt>
      <trkpt lat="44.81477" lon="6.74757">
        <ele>2768.73</ele>
        <time>2017-01-25T13:59:53Z</time>
      </trkpt>
      <trkpt lat="44.81478" lon="6.74757">
        <ele>2768.73</ele>
        <time>2017-01-25T14:00:12Z</time>
      </trkpt>
      <trkpt lat="44.81476" lon="6.74756">
        <ele>2768.73</ele>
        <time>2017-01-25T14:00:32Z</time>
      </trkpt>
      <trkpt lat="44.81475" lon="6.74759">
        <ele>2768.73</ele>
        <time>2017-01-25T14:00:47Z</time>
      </trkpt>
      <trkpt lat="44.81476" lon="6.74758">
        <ele>2768.25</ele>
        <time>2017-01-25T14:01:11Z</time>
      </trkpt>
      <trkpt lat="44.81476" lon="6.74759">
        <ele>2768.25</ele>
        <time>2017-01-25T14:01:34Z</time>
      </trkpt>
      <trkpt lat="44.81477" lon="6.7476">
        <ele>2768.25</ele>
        <time>2017-01-25T14:01:58Z</time>
      </trkpt>
      <trkpt lat="44.81478" lon="6.74758">
        <ele>2769.21</ele>
        <time>2017-01-25T14:02:16Z</time>
      </trkpt>
      <trkpt lat="44.81479" lon="6.74757">
        <ele>2768.25</ele>
        <time>2017-01-25T14:02:20Z</time>
      </trkpt>
      <trkpt lat="44.81484" lon="6.74752">
        <ele>2767.29</ele>
        <time>2017-01-25T14:02:32Z</time>
      </trkpt>
      <trkpt lat="44.81487" lon="6.7475">
        <ele>2766.81</ele>
        <time>2017-01-25T14:02:38Z</time>
      </trkpt>
      <trkpt lat="44.81492" lon="6.74748">
        <ele>2766.81</ele>
        <time>2017-01-25T14:02:52Z</time>
      </trkpt>
      <trkpt lat="44.81498" lon="6.74747">
        <ele>2765.85</ele>
        <time>2017-01-25T14:03:11Z</time>
      </trkpt>
      <trkpt lat="44.81505" lon="6.74746">
        <ele>2765.37</ele>
        <time>2017-01-25T14:03:27Z</time>
      </trkpt>
      <trkpt lat="44.81509" lon="6.74737">
        <ele>2764.89</ele>
        <time>2017-01-25T14:03:41Z</time>
      </trkpt>
      <trkpt lat="44.81515" lon="6.74735">
        <ele>2763.93</ele>
        <time>2017-01-25T14:03:55Z</time>
      </trkpt>
      <trkpt lat="44.8152" lon="6.74738">
        <ele>2764.41</ele>
        <time>2017-01-25T14:04:11Z</time>
      </trkpt>
      <trkpt lat="44.81521" lon="6.74736">
        <ele>2763.45</ele>
        <time>2017-01-25T14:04:27Z</time>
      </trkpt>
      <trkpt lat="44.81524" lon="6.74734">
        <ele>2761.04</ele>
        <time>2017-01-25T14:04:43Z</time>
      </trkpt>
      <trkpt lat="44.81525" lon="6.74733">
        <ele>2759.6</ele>
        <time>2017-01-25T14:04:56Z</time>
      </trkpt>
      <trkpt lat="44.8153" lon="6.74729">
        <ele>2759.12</ele>
        <time>2017-01-25T14:05:10Z</time>
      </trkpt>
      <trkpt lat="44.81534" lon="6.74727">
        <ele>2757.68</ele>
        <time>2017-01-25T14:05:24Z</time>
      </trkpt>
      <trkpt lat="44.81537" lon="6.74725">
        <ele>2757.2</ele>
        <time>2017-01-25T14:05:40Z</time>
      </trkpt>
      <trkpt lat="44.8154" lon="6.74724">
        <ele>2755.76</ele>
        <time>2017-01-25T14:05:56Z</time>
      </trkpt>
      <trkpt lat="44.81541" lon="6.74723">
        <ele>2754.31</ele>
        <time>2017-01-25T14:06:14Z</time>
      </trkpt>
      <trkpt lat="44.81543" lon="6.74716">
        <ele>2751.43</ele>
        <time>2017-01-25T14:06:29Z</time>
      </trkpt>
      <trkpt lat="44.81546" lon="6.74711">
        <ele>2748.55</ele>
        <time>2017-01-25T14:06:46Z</time>
      </trkpt>
      <trkpt lat="44.81548" lon="6.74706">
        <ele>2746.62</ele>
        <time>2017-01-25T14:07:00Z</time>
      </trkpt>
      <trkpt lat="44.81552" lon="6.74704">
        <ele>2744.22</ele>
        <time>2017-01-25T14:07:19Z</time>
      </trkpt>
      <trkpt lat="44.81552" lon="6.747">
        <ele>2742.3</ele>
        <time>2017-01-25T14:07:35Z</time>
      </trkpt>
      <trkpt lat="44.81553" lon="6.74699">
        <ele>2740.86</ele>
        <time>2017-01-25T14:07:51Z</time>
      </trkpt>
      <trkpt lat="44.81554" lon="6.74696">
        <ele>2739.41</ele>
        <time>2017-01-25T14:08:07Z</time>
      </trkpt>
      <trkpt lat="44.81555" lon="6.74694">
        <ele>2737.01</ele>
        <time>2017-01-25T14:08:24Z</time>
      </trkpt>
      <trkpt lat="44.81556" lon="6.74691">
        <ele>2735.57</ele>
        <time>2017-01-25T14:08:41Z</time>
      </trkpt>
      <trkpt lat="44.81557" lon="6.74686">
        <ele>2733.17</ele>
        <time>2017-01-25T14:08:53Z</time>
      </trkpt>
      <trkpt lat="44.81557" lon="6.7468">
        <ele>2729.8</ele>
        <time>2017-01-25T14:09:06Z</time>
      </trkpt>
      <trkpt lat="44.81558" lon="6.74672">
        <ele>2726.92</ele>
        <time>2017-01-25T14:09:23Z</time>
      </trkpt>
      <trkpt lat="44.81561" lon="6.74665">
        <ele>2724.03</ele>
        <time>2017-01-25T14:09:39Z</time>
      </trkpt>
      <trkpt lat="44.8156" lon="6.74667">
        <ele>2723.55</ele>
        <time>2017-01-25T14:09:54Z</time>
      </trkpt>
      <trkpt lat="44.8156" lon="6.74667">
        <ele>2723.07</ele>
        <time>2017-01-25T14:10:07Z</time>
      </trkpt>
      <trkpt lat="44.81562" lon="6.74665">
        <ele>2723.55</ele>
        <time>2017-01-25T14:10:21Z</time>
      </trkpt>
      <trkpt lat="44.81561" lon="6.74666">
        <ele>2723.07</ele>
        <time>2017-01-25T14:10:37Z</time>
      </trkpt>
      <trkpt lat="44.8156" lon="6.74665">
        <ele>2723.07</ele>
        <time>2017-01-25T14:10:52Z</time>
      </trkpt>
      <trkpt lat="44.8156" lon="6.74666">
        <ele>2722.11</ele>
        <time>2017-01-25T14:11:14Z</time>
      </trkpt>
      <trkpt lat="44.81561" lon="6.74666">
        <ele>2722.11</ele>
        <time>2017-01-25T14:11:46Z</time>
      </trkpt>
      <trkpt lat="44.8156" lon="6.74665">
        <ele>2722.11</ele>
        <time>2017-01-25T14:12:16Z</time>
      </trkpt>
      <trkpt lat="44.81559" lon="6.74664">
        <ele>2722.11</ele>
        <time>2017-01-25T14:12:45Z</time>
      </trkpt>
      <trkpt lat="44.8156" lon="6.74665">
        <ele>2722.59</ele>
        <time>2017-01-25T14:13:08Z</time>
      </trkpt>
      <trkpt lat="44.81561" lon="6.7467">
        <ele>2722.59</ele>
        <time>2017-01-25T14:13:48Z</time>
      </trkpt>
      <trkpt lat="44.81562" lon="6.7467">
        <ele>2722.59</ele>
        <time>2017-01-25T14:14:30Z</time>
      </trkpt>
      <trkpt lat="44.81562" lon="6.74668">
        <ele>2722.59</ele>
        <time>2017-01-25T14:15:09Z</time>
      </trkpt>
      <trkpt lat="44.81563" lon="6.74663">
        <ele>2722.59</ele>
        <time>2017-01-25T14:15:46Z</time>
      </trkpt>
      <trkpt lat="44.81564" lon="6.74667">
        <ele>2722.59</ele>
        <time>2017-01-25T14:16:16Z</time>
      </trkpt>
      <trkpt lat="44.81563" lon="6.74668">
        <ele>2722.59</ele>
        <time>2017-01-25T14:16:49Z</time>
      </trkpt>
      <trkpt lat="44.81563" lon="6.74666">
        <ele>2722.11</ele>
        <time>2017-01-25T14:17:27Z</time>
      </trkpt>
      <trkpt lat="44.81561" lon="6.7467">
        <ele>2722.59</ele>
        <time>2017-01-25T14:18:05Z</time>
      </trkpt>
      <trkpt lat="44.81561" lon="6.74666">
        <ele>2723.07</ele>
        <time>2017-01-25T14:18:28Z</time>
      </trkpt>
      <trkpt lat="44.81561" lon="6.74664">
        <ele>2723.07</ele>
        <time>2017-01-25T14:18:44Z</time>
      </trkpt>
      <trkpt lat="44.8156" lon="6.74664">
        <ele>2723.07</ele>
        <time>2017-01-25T14:19:05Z</time>
      </trkpt>
      <trkpt lat="44.8156" lon="6.74663">
        <ele>2723.07</ele>
        <time>2017-01-25T14:19:26Z</time>
      </trkpt>
      <trkpt lat="44.81559" lon="6.74664">
        <ele>2723.07</ele>
        <time>2017-01-25T14:19:46Z</time>
      </trkpt>
      <trkpt lat="44.81561" lon="6.74665">
        <ele>2723.07</ele>
        <time>2017-01-25T14:20:03Z</time>
      </trkpt>
      <trkpt lat="44.81561" lon="6.74663">
        <ele>2723.55</ele>
        <time>2017-01-25T14:20:22Z</time>
      </trkpt>
      <trkpt lat="44.8156" lon="6.74665">
        <ele>2723.07</ele>
        <time>2017-01-25T14:20:39Z</time>
      </trkpt>
      <trkpt lat="44.81559" lon="6.74663">
        <ele>2723.07</ele>
        <time>2017-01-25T14:21:00Z</time>
      </trkpt>
      <trkpt lat="44.8156" lon="6.74664">
        <ele>2723.07</ele>
        <time>2017-01-25T14:21:19Z</time>
      </trkpt>
      <trkpt lat="44.81561" lon="6.74667">
        <ele>2723.07</ele>
        <time>2017-01-25T14:21:38Z</time>
      </trkpt>
      <trkpt lat="44.81561" lon="6.74664">
        <ele>2723.07</ele>
        <time>2017-01-25T14:21:50Z</time>
      </trkpt>
      <trkpt lat="44.81559" lon="6.74666">
        <ele>2722.59</ele>
        <time>2017-01-25T14:22:09Z</time>
      </trkpt>
      <trkpt lat="44.8156" lon="6.74667">
        <ele>2722.59</ele>
        <time>2017-01-25T14:22:31Z</time>
      </trkpt>
      <trkpt lat="44.81571" lon="6.7466">
        <ele>2720.19</ele>
        <time>2017-01-25T14:22:35Z</time>
      </trkpt>
      <trkpt lat="44.81579" lon="6.74667">
        <ele>2716.34</ele>
        <time>2017-01-25T14:22:38Z</time>
      </trkpt>
      <trkpt lat="44.81585" lon="6.74659">
        <ele>2713.46</ele>
        <time>2017-01-25T14:22:41Z</time>
      </trkpt>
      <trkpt lat="44.81582" lon="6.74657">
        <ele>2713.46</ele>
        <time>2017-01-25T14:22:57Z</time>
      </trkpt>
      <trkpt lat="44.81581" lon="6.74659">
        <ele>2713.46</ele>
        <time>2017-01-25T14:23:16Z</time>
      </trkpt>
      <trkpt lat="44.81585" lon="6.7465">
        <ele>2712.02</ele>
        <time>2017-01-25T14:23:30Z</time>
      </trkpt>
      <trkpt lat="44.81593" lon="6.74654">
        <ele>2708.17</ele>
        <time>2017-01-25T14:23:35Z</time>
      </trkpt>
      <trkpt lat="44.81599" lon="6.74644">
        <ele>2704.81</ele>
        <time>2017-01-25T14:23:38Z</time>
      </trkpt>
      <trkpt lat="44.81604" lon="6.74649">
        <ele>2700.48</ele>
        <time>2017-01-25T14:23:42Z</time>
      </trkpt>
      <trkpt lat="44.81611" lon="6.74646">
        <ele>2697.12</ele>
        <time>2017-01-25T14:23:45Z</time>
      </trkpt>
      <trkpt lat="44.81613" lon="6.74642">
        <ele>2695.67</ele>
        <time>2017-01-25T14:23:46Z</time>
      </trkpt>
      <trkpt lat="44.81614" lon="6.7464">
        <ele>2694.71</ele>
        <time>2017-01-25T14:24:00Z</time>
      </trkpt>
      <trkpt lat="44.81619" lon="6.7464">
        <ele>2694.71</ele>
        <time>2017-01-25T14:24:32Z</time>
      </trkpt>
      <trkpt lat="44.81617" lon="6.74641">
        <ele>2694.71</ele>
        <time>2017-01-25T14:24:49Z</time>
      </trkpt>
      <trkpt lat="44.8162" lon="6.74648">
        <ele>2691.35</ele>
        <time>2017-01-25T14:24:53Z</time>
      </trkpt>
      <trkpt lat="44.8162" lon="6.74653">
        <ele>2689.43</ele>
        <time>2017-01-25T14:24:54Z</time>
      </trkpt>
      <trkpt lat="44.8162" lon="6.7466">
        <ele>2687.5</ele>
        <time>2017-01-25T14:24:56Z</time>
      </trkpt>
      <trkpt lat="44.81629" lon="6.74653">
        <ele>2683.18</ele>
        <time>2017-01-25T14:25:00Z</time>
      </trkpt>
      <trkpt lat="44.81637" lon="6.74643">
        <ele>2681.25</ele>
        <time>2017-01-25T14:25:03Z</time>
      </trkpt>
      <trkpt lat="44.81644" lon="6.74634">
        <ele>2678.37</ele>
        <time>2017-01-25T14:25:06Z</time>
      </trkpt>
      <trkpt lat="44.81646" lon="6.74644">
        <ele>2673.56</ele>
        <time>2017-01-25T14:25:10Z</time>
      </trkpt>
      <trkpt lat="44.81643" lon="6.74647">
        <ele>2673.08</ele>
        <time>2017-01-25T14:25:13Z</time>
      </trkpt>
      <trkpt lat="44.81652" lon="6.74644">
        <ele>2668.76</ele>
        <time>2017-01-25T14:25:17Z</time>
      </trkpt>
      <trkpt lat="44.81654" lon="6.74642">
        <ele>2668.28</ele>
        <time>2017-01-25T14:25:25Z</time>
      </trkpt>
      <trkpt lat="44.81656" lon="6.74643">
        <ele>2668.28</ele>
        <time>2017-01-25T14:25:44Z</time>
      </trkpt>
      <trkpt lat="44.81656" lon="6.74654">
        <ele>2664.43</ele>
        <time>2017-01-25T14:25:48Z</time>
      </trkpt>
      <trkpt lat="44.81655" lon="6.74657">
        <ele>2663.47</ele>
        <time>2017-01-25T14:25:49Z</time>
      </trkpt>
      <trkpt lat="44.81653" lon="6.74664">
        <ele>2661.55</ele>
        <time>2017-01-25T14:25:51Z</time>
      </trkpt>
      <trkpt lat="44.81662" lon="6.7466">
        <ele>2657.22</ele>
        <time>2017-01-25T14:25:55Z</time>
      </trkpt>
      <trkpt lat="44.81666" lon="6.74656">
        <ele>2656.26</ele>
        <time>2017-01-25T14:25:57Z</time>
      </trkpt>
      <trkpt lat="44.81669" lon="6.74668">
        <ele>2651.45</ele>
        <time>2017-01-25T14:26:01Z</time>
      </trkpt>
      <trkpt lat="44.81668" lon="6.7468">
        <ele>2649.05</ele>
        <time>2017-01-25T14:26:04Z</time>
      </trkpt>
      <trkpt lat="44.81677" lon="6.74674">
        <ele>2645.21</ele>
        <time>2017-01-25T14:26:07Z</time>
      </trkpt>
      <trkpt lat="44.81679" lon="6.74671">
        <ele>2645.21</ele>
        <time>2017-01-25T14:26:08Z</time>
      </trkpt>
      <trkpt lat="44.81681" lon="6.74666">
        <ele>2644.72</ele>
        <time>2017-01-25T14:26:19Z</time>
      </trkpt>
      <trkpt lat="44.81688" lon="6.74657">
        <ele>2642.8</ele>
        <time>2017-01-25T14:26:36Z</time>
      </trkpt>
      <trkpt lat="44.8169" lon="6.74673">
        <ele>2637.51</ele>
        <time>2017-01-25T14:26:40Z</time>
      </trkpt>
      <trkpt lat="44.81689" lon="6.7469">
        <ele>2634.63</ele>
        <time>2017-01-25T14:26:45Z</time>
      </trkpt>
      <trkpt lat="44.81694" lon="6.74684">
        <ele>2631.27</ele>
        <time>2017-01-25T14:26:48Z</time>
      </trkpt>
      <trkpt lat="44.81703" lon="6.74695">
        <ele>2627.42</ele>
        <time>2017-01-25T14:26:52Z</time>
      </trkpt>
      <trkpt lat="44.81707" lon="6.74688">
        <ele>2624.06</ele>
        <time>2017-01-25T14:26:54Z</time>
      </trkpt>
      <trkpt lat="44.81709" lon="6.74681">
        <ele>2623.09</ele>
        <time>2017-01-25T14:26:56Z</time>
      </trkpt>
      <trkpt lat="44.81711" lon="6.74678">
        <ele>2622.13</ele>
        <time>2017-01-25T14:27:06Z</time>
      </trkpt>
      <trkpt lat="44.81711" lon="6.74679">
        <ele>2622.13</ele>
        <time>2017-01-25T14:27:29Z</time>
      </trkpt>
      <trkpt lat="44.81713" lon="6.74679">
        <ele>2621.65</ele>
        <time>2017-01-25T14:27:38Z</time>
      </trkpt>
      <trkpt lat="44.81714" lon="6.74689">
        <ele>2617.81</ele>
        <time>2017-01-25T14:27:42Z</time>
      </trkpt>
      <trkpt lat="44.81721" lon="6.74688">
        <ele>2613.96</ele>
        <time>2017-01-25T14:27:46Z</time>
      </trkpt>
      <trkpt lat="44.81722" lon="6.74685">
        <ele>2613.96</ele>
        <time>2017-01-25T14:27:47Z</time>
      </trkpt>
      <trkpt lat="44.81733" lon="6.74672">
        <ele>2610.6</ele>
        <time>2017-01-25T14:27:54Z</time>
      </trkpt>
      <trkpt lat="44.81733" lon="6.74671">
        <ele>2610.12</ele>
        <time>2017-01-25T14:27:55Z</time>
      </trkpt>
      <trkpt lat="44.81733" lon="6.74671">
        <ele>2610.12</ele>
        <time>2017-01-25T14:28:06Z</time>
      </trkpt>
      <trkpt lat="44.81733" lon="6.74671">
        <ele>2610.12</ele>
        <time>2017-01-25T14:28:15Z</time>
      </trkpt>
      <trkpt lat="44.81743" lon="6.74664">
        <ele>2606.75</ele>
        <time>2017-01-25T14:28:20Z</time>
      </trkpt>
      <trkpt lat="44.81744" lon="6.74672">
        <ele>2603.39</ele>
        <time>2017-01-25T14:28:22Z</time>
      </trkpt>
      <trkpt lat="44.81738" lon="6.74688">
        <ele>2600.5</ele>
        <time>2017-01-25T14:28:26Z</time>
      </trkpt>
      <trkpt lat="44.81745" lon="6.7469">
        <ele>2596.66</ele>
        <time>2017-01-25T14:28:30Z</time>
      </trkpt>
      <trkpt lat="44.81748" lon="6.74686">
        <ele>2594.74</ele>
        <time>2017-01-25T14:28:31Z</time>
      </trkpt>
      <trkpt lat="44.81763" lon="6.74671">
        <ele>2591.85</ele>
        <time>2017-01-25T14:28:38Z</time>
      </trkpt>
      <trkpt lat="44.81761" lon="6.74671">
        <ele>2591.85</ele>
        <time>2017-01-25T14:29:01Z</time>
      </trkpt>
      <trkpt lat="44.81761" lon="6.74672">
        <ele>2591.37</ele>
        <time>2017-01-25T14:29:04Z</time>
      </trkpt>
      <trkpt lat="44.81763" lon="6.74682">
        <ele>2588.49</ele>
        <time>2017-01-25T14:29:07Z</time>
      </trkpt>
      <trkpt lat="44.8176" lon="6.74691">
        <ele>2586.08</ele>
        <time>2017-01-25T14:29:09Z</time>
      </trkpt>
      <trkpt lat="44.81767" lon="6.74695">
        <ele>2581.76</ele>
        <time>2017-01-25T14:29:13Z</time>
      </trkpt>
      <trkpt lat="44.81771" lon="6.74691">
        <ele>2580.32</ele>
        <time>2017-01-25T14:29:14Z</time>
      </trkpt>
      <trkpt lat="44.81776" lon="6.74685">
        <ele>2578.87</ele>
        <time>2017-01-25T14:29:16Z</time>
      </trkpt>
      <trkpt lat="44.81782" lon="6.7469">
        <ele>2574.07</ele>
        <time>2017-01-25T14:29:19Z</time>
      </trkpt>
      <trkpt lat="44.81777" lon="6.74703">
        <ele>2572.63</ele>
        <time>2017-01-25T14:29:21Z</time>
      </trkpt>
      <trkpt lat="44.8178" lon="6.74712">
        <ele>2570.7</ele>
        <time>2017-01-25T14:29:24Z</time>
      </trkpt>
      <trkpt lat="44.81793" lon="6.74697">
        <ele>2566.86</ele>
        <time>2017-01-25T14:29:28Z</time>
      </trkpt>
      <trkpt lat="44.81793" lon="6.74699">
        <ele>2566.86</ele>
        <time>2017-01-25T14:29:45Z</time>
      </trkpt>
      <trkpt lat="44.81793" lon="6.74699">
        <ele>2566.86</ele>
        <time>2017-01-25T14:29:56Z</time>
      </trkpt>
      <trkpt lat="44.81794" lon="6.74713">
        <ele>2562.53</ele>
        <time>2017-01-25T14:30:00Z</time>
      </trkpt>
      <trkpt lat="44.81801" lon="6.74719">
        <ele>2557.73</ele>
        <time>2017-01-25T14:30:05Z</time>
      </trkpt>
      <trkpt lat="44.81807" lon="6.74719">
        <ele>2554.36</ele>
        <time>2017-01-25T14:30:07Z</time>
      </trkpt>
      <trkpt lat="44.81807" lon="6.74729">
        <ele>2552.92</ele>
        <time>2017-01-25T14:30:09Z</time>
      </trkpt>
      <trkpt lat="44.81814" lon="6.74731">
        <ele>2549.07</ele>
        <time>2017-01-25T14:30:12Z</time>
      </trkpt>
      <trkpt lat="44.8182" lon="6.74739">
        <ele>2543.31</ele>
        <time>2017-01-25T14:30:17Z</time>
      </trkpt>
      <trkpt lat="44.81818" lon="6.74743">
        <ele>2542.82</ele>
        <time>2017-01-25T14:30:18Z</time>
      </trkpt>
      <trkpt lat="44.81813" lon="6.74743">
        <ele>2543.31</ele>
        <time>2017-01-25T14:30:32Z</time>
      </trkpt>
      <trkpt lat="44.81813" lon="6.74744">
        <ele>2543.31</ele>
        <time>2017-01-25T14:30:40Z</time>
      </trkpt>
      <trkpt lat="44.81817" lon="6.74757">
        <ele>2539.46</ele>
        <time>2017-01-25T14:30:45Z</time>
      </trkpt>
      <trkpt lat="44.81826" lon="6.74758">
        <ele>2536.58</ele>
        <time>2017-01-25T14:30:47Z</time>
      </trkpt>
      <trkpt lat="44.81828" lon="6.74769">
        <ele>2530.81</ele>
        <time>2017-01-25T14:30:49Z</time>
      </trkpt>
      <trkpt lat="44.81836" lon="6.74772">
        <ele>2526.48</ele>
        <time>2017-01-25T14:30:53Z</time>
      </trkpt>
      <trkpt lat="44.81843" lon="6.74772">
        <ele>2522.64</ele>
        <time>2017-01-25T14:30:56Z</time>
      </trkpt>
      <trkpt lat="44.81841" lon="6.74785">
        <ele>2519.75</ele>
        <time>2017-01-25T14:30:58Z</time>
      </trkpt>
      <trkpt lat="44.81835" lon="6.74808">
        <ele>2516.39</ele>
        <time>2017-01-25T14:31:02Z</time>
      </trkpt>
      <trkpt lat="44.81844" lon="6.74814">
        <ele>2512.54</ele>
        <time>2017-01-25T14:31:06Z</time>
      </trkpt>
      <trkpt lat="44.81844" lon="6.74811">
        <ele>2510.62</ele>
        <time>2017-01-25T14:31:14Z</time>
      </trkpt>
      <trkpt lat="44.81842" lon="6.74811">
        <ele>2510.62</ele>
        <time>2017-01-25T14:31:34Z</time>
      </trkpt>
      <trkpt lat="44.81845" lon="6.74811">
        <ele>2510.62</ele>
        <time>2017-01-25T14:31:53Z</time>
      </trkpt>
      <trkpt lat="44.81847" lon="6.7481">
        <ele>2510.62</ele>
        <time>2017-01-25T14:32:19Z</time>
      </trkpt>
      <trkpt lat="44.81847" lon="6.7481">
        <ele>2510.62</ele>
        <time>2017-01-25T14:32:44Z</time>
      </trkpt>
      <trkpt lat="44.81848" lon="6.74811">
        <ele>2510.14</ele>
        <time>2017-01-25T14:33:17Z</time>
      </trkpt>
      <trkpt lat="44.81849" lon="6.74825">
        <ele>2506.77</ele>
        <time>2017-01-25T14:33:21Z</time>
      </trkpt>
      <trkpt lat="44.81852" lon="6.74842">
        <ele>2503.41</ele>
        <time>2017-01-25T14:33:27Z</time>
      </trkpt>
      <trkpt lat="44.81858" lon="6.74835">
        <ele>2500.05</ele>
        <time>2017-01-25T14:33:29Z</time>
      </trkpt>
      <trkpt lat="44.81865" lon="6.74839">
        <ele>2497.16</ele>
        <time>2017-01-25T14:33:32Z</time>
      </trkpt>
      <trkpt lat="44.81867" lon="6.7485">
        <ele>2493.32</ele>
        <time>2017-01-25T14:33:34Z</time>
      </trkpt>
      <trkpt lat="44.81876" lon="6.74848">
        <ele>2489.95</ele>
        <time>2017-01-25T14:33:37Z</time>
      </trkpt>
      <trkpt lat="44.8188" lon="6.74859">
        <ele>2486.11</ele>
        <time>2017-01-25T14:33:39Z</time>
      </trkpt>
      <trkpt lat="44.81881" lon="6.74878">
        <ele>2483.7</ele>
        <time>2017-01-25T14:33:42Z</time>
      </trkpt>
      <trkpt lat="44.81892" lon="6.74881">
        <ele>2479.38</ele>
        <time>2017-01-25T14:33:46Z</time>
      </trkpt>
      <trkpt lat="44.81896" lon="6.74888">
        <ele>2476.01</ele>
        <time>2017-01-25T14:33:48Z</time>
      </trkpt>
      <trkpt lat="44.81903" lon="6.74894">
        <ele>2472.17</ele>
        <time>2017-01-25T14:33:51Z</time>
      </trkpt>
      <trkpt lat="44.81904" lon="6.749">
        <ele>2469.28</ele>
        <time>2017-01-25T14:33:53Z</time>
      </trkpt>
      <trkpt lat="44.81903" lon="6.74902">
        <ele>2468.8</ele>
        <time>2017-01-25T14:33:54Z</time>
      </trkpt>
      <trkpt lat="44.819" lon="6.74908">
        <ele>2469.76</ele>
        <time>2017-01-25T14:34:16Z</time>
      </trkpt>
      <trkpt lat="44.819" lon="6.74909">
        <ele>2469.76</ele>
        <time>2017-01-25T14:34:21Z</time>
      </trkpt>
      <trkpt lat="44.81909" lon="6.74923">
        <ele>2464.96</ele>
        <time>2017-01-25T14:34:26Z</time>
      </trkpt>
      <trkpt lat="44.8192" lon="6.7492">
        <ele>2461.11</ele>
        <time>2017-01-25T14:34:29Z</time>
      </trkpt>
      <trkpt lat="44.81921" lon="6.74929">
        <ele>2458.23</ele>
        <time>2017-01-25T14:34:31Z</time>
      </trkpt>
      <trkpt lat="44.81927" lon="6.74932">
        <ele>2454.86</ele>
        <time>2017-01-25T14:34:34Z</time>
      </trkpt>
      <trkpt lat="44.81936" lon="6.74934">
        <ele>2450.54</ele>
        <time>2017-01-25T14:34:37Z</time>
      </trkpt>
      <trkpt lat="44.81939" lon="6.74947">
        <ele>2447.65</ele>
        <time>2017-01-25T14:34:40Z</time>
      </trkpt>
      <trkpt lat="44.81946" lon="6.7494">
        <ele>2443.81</ele>
        <time>2017-01-25T14:34:43Z</time>
      </trkpt>
      <trkpt lat="44.81948" lon="6.74938">
        <ele>2443.33</ele>
        <time>2017-01-25T14:34:44Z</time>
      </trkpt>
      <trkpt lat="44.81947" lon="6.74937">
        <ele>2443.81</ele>
        <time>2017-01-25T14:34:52Z</time>
      </trkpt>
      <trkpt lat="44.81953" lon="6.74944">
        <ele>2439.96</ele>
        <time>2017-01-25T14:34:56Z</time>
      </trkpt>
      <trkpt lat="44.81952" lon="6.74951">
        <ele>2439</ele>
        <time>2017-01-25T14:34:58Z</time>
      </trkpt>
      <trkpt lat="44.81958" lon="6.74958">
        <ele>2435.64</ele>
        <time>2017-01-25T14:35:02Z</time>
      </trkpt>
      <trkpt lat="44.81971" lon="6.74954">
        <ele>2432.27</ele>
        <time>2017-01-25T14:35:06Z</time>
      </trkpt>
      <trkpt lat="44.81974" lon="6.74966">
        <ele>2428.43</ele>
        <time>2017-01-25T14:35:08Z</time>
      </trkpt>
      <trkpt lat="44.81982" lon="6.74978">
        <ele>2422.66</ele>
        <time>2017-01-25T14:35:13Z</time>
      </trkpt>
      <trkpt lat="44.81984" lon="6.74989">
        <ele>2419.3</ele>
        <time>2017-01-25T14:35:15Z</time>
      </trkpt>
      <trkpt lat="44.8199" lon="6.7499">
        <ele>2415.93</ele>
        <time>2017-01-25T14:35:17Z</time>
      </trkpt>
      <trkpt lat="44.81992" lon="6.74985">
        <ele>2414.49</ele>
        <time>2017-01-25T14:35:25Z</time>
      </trkpt>
      <trkpt lat="44.81991" lon="6.74985">
        <ele>2414.97</ele>
        <time>2017-01-25T14:35:36Z</time>
      </trkpt>
      <trkpt lat="44.81998" lon="6.74995">
        <ele>2410.64</ele>
        <time>2017-01-25T14:35:40Z</time>
      </trkpt>
      <trkpt lat="44.82008" lon="6.74993">
        <ele>2407.76</ele>
        <time>2017-01-25T14:35:43Z</time>
      </trkpt>
      <trkpt lat="44.82017" lon="6.75002">
        <ele>2402.95</ele>
        <time>2017-01-25T14:35:47Z</time>
      </trkpt>
      <trkpt lat="44.82016" lon="6.75005">
        <ele>2401.99</ele>
        <time>2017-01-25T14:35:49Z</time>
      </trkpt>
      <trkpt lat="44.82013" lon="6.75006">
        <ele>2402.47</ele>
        <time>2017-01-25T14:36:08Z</time>
      </trkpt>
      <trkpt lat="44.82012" lon="6.75008">
        <ele>2402.47</ele>
        <time>2017-01-25T14:36:25Z</time>
      </trkpt>
      <trkpt lat="44.82013" lon="6.75007">
        <ele>2402.95</ele>
        <time>2017-01-25T14:36:51Z</time>
      </trkpt>
      <trkpt lat="44.82013" lon="6.75006">
        <ele>2402.95</ele>
        <time>2017-01-25T14:37:21Z</time>
      </trkpt>
      <trkpt lat="44.82011" lon="6.75009">
        <ele>2402.95</ele>
        <time>2017-01-25T14:37:50Z</time>
      </trkpt>
      <trkpt lat="44.82012" lon="6.75009">
        <ele>2402.95</ele>
        <time>2017-01-25T14:37:51Z</time>
      </trkpt>
      <trkpt lat="44.82028" lon="6.7501">
        <ele>2398.63</ele>
        <time>2017-01-25T14:37:57Z</time>
      </trkpt>
      <trkpt lat="44.82034" lon="6.75018">
        <ele>2395.26</ele>
        <time>2017-01-25T14:37:59Z</time>
      </trkpt>
      <trkpt lat="44.82044" lon="6.75022">
        <ele>2391.9</ele>
        <time>2017-01-25T14:38:02Z</time>
      </trkpt>
      <trkpt lat="44.82058" lon="6.75022">
        <ele>2387.09</ele>
        <time>2017-01-25T14:38:05Z</time>
      </trkpt>
      <trkpt lat="44.82062" lon="6.75025">
        <ele>2385.17</ele>
        <time>2017-01-25T14:38:06Z</time>
      </trkpt>
      <trkpt lat="44.82077" lon="6.75044">
        <ele>2378.92</ele>
        <time>2017-01-25T14:38:11Z</time>
      </trkpt>
      <trkpt lat="44.82091" lon="6.75036">
        <ele>2375.07</ele>
        <time>2017-01-25T14:38:15Z</time>
      </trkpt>
      <trkpt lat="44.82103" lon="6.75044">
        <ele>2370.75</ele>
        <time>2017-01-25T14:38:18Z</time>
      </trkpt>
      <trkpt lat="44.82104" lon="6.75046">
        <ele>2370.75</ele>
        <time>2017-01-25T14:38:19Z</time>
      </trkpt>
      <trkpt lat="44.82104" lon="6.75049">
        <ele>2370.27</ele>
        <time>2017-01-25T14:38:24Z</time>
      </trkpt>
      <trkpt lat="44.82119" lon="6.7505">
        <ele>2366.42</ele>
        <time>2017-01-25T14:38:29Z</time>
      </trkpt>
      <trkpt lat="44.82122" lon="6.75049">
        <ele>2365.46</ele>
        <time>2017-01-25T14:38:30Z</time>
      </trkpt>
      <trkpt lat="44.82129" lon="6.75047">
        <ele>2364.02</ele>
        <time>2017-01-25T14:38:32Z</time>
      </trkpt>
      <trkpt lat="44.82142" lon="6.75056">
        <ele>2359.69</ele>
        <time>2017-01-25T14:38:35Z</time>
      </trkpt>
      <trkpt lat="44.82152" lon="6.75059">
        <ele>2355.85</ele>
        <time>2017-01-25T14:38:40Z</time>
      </trkpt>
      <trkpt lat="44.82148" lon="6.75061">
        <ele>2356.33</ele>
        <time>2017-01-25T14:38:53Z</time>
      </trkpt>
      <trkpt lat="44.82148" lon="6.75061">
        <ele>2356.33</ele>
        <time>2017-01-25T14:39:16Z</time>
      </trkpt>
      <trkpt lat="44.82148" lon="6.75063">
        <ele>2356.33</ele>
        <time>2017-01-25T14:39:35Z</time>
      </trkpt>
      <trkpt lat="44.82144" lon="6.75072">
        <ele>2356.33</ele>
        <time>2017-01-25T14:39:57Z</time>
      </trkpt>
      <trkpt lat="44.82147" lon="6.75066">
        <ele>2355.85</ele>
        <time>2017-01-25T14:40:20Z</time>
      </trkpt>
      <trkpt lat="44.82153" lon="6.75068">
        <ele>2354.89</ele>
        <time>2017-01-25T14:40:32Z</time>
      </trkpt>
      <trkpt lat="44.82154" lon="6.75066">
        <ele>2354.89</ele>
        <time>2017-01-25T14:40:48Z</time>
      </trkpt>
      <trkpt lat="44.82156" lon="6.75065">
        <ele>2354.89</ele>
        <time>2017-01-25T14:41:03Z</time>
      </trkpt>
      <trkpt lat="44.82157" lon="6.75064">
        <ele>2354.41</ele>
        <time>2017-01-25T14:41:06Z</time>
      </trkpt>
      <trkpt lat="44.82163" lon="6.7506">
        <ele>2355.37</ele>
        <time>2017-01-25T14:41:20Z</time>
      </trkpt>
      <trkpt lat="44.82171" lon="6.75058">
        <ele>2352</ele>
        <time>2017-01-25T14:41:33Z</time>
      </trkpt>
      <trkpt lat="44.82175" lon="6.75057">
        <ele>2351.52</ele>
        <time>2017-01-25T14:41:34Z</time>
      </trkpt>
      <trkpt lat="44.8219" lon="6.75049">
        <ele>2346.23</ele>
        <time>2017-01-25T14:41:37Z</time>
      </trkpt>
      <trkpt lat="44.82195" lon="6.75044">
        <ele>2345.75</ele>
        <time>2017-01-25T14:41:38Z</time>
      </trkpt>
      <trkpt lat="44.82215" lon="6.75034">
        <ele>2340.95</ele>
        <time>2017-01-25T14:41:43Z</time>
      </trkpt>
      <trkpt lat="44.82229" lon="6.75028">
        <ele>2336.62</ele>
        <time>2017-01-25T14:41:46Z</time>
      </trkpt>
      <trkpt lat="44.82246" lon="6.75021">
        <ele>2332.3</ele>
        <time>2017-01-25T14:41:50Z</time>
      </trkpt>
      <trkpt lat="44.82269" lon="6.75007">
        <ele>2328.45</ele>
        <time>2017-01-25T14:41:56Z</time>
      </trkpt>
      <trkpt lat="44.82287" lon="6.75004">
        <ele>2324.12</ele>
        <time>2017-01-25T14:42:00Z</time>
      </trkpt>
      <trkpt lat="44.8229" lon="6.75">
        <ele>2323.64</ele>
        <time>2017-01-25T14:42:01Z</time>
      </trkpt>
      <trkpt lat="44.82303" lon="6.74993">
        <ele>2321.72</ele>
        <time>2017-01-25T14:42:04Z</time>
      </trkpt>
      <trkpt lat="44.82325" lon="6.74994">
        <ele>2317.88</ele>
        <time>2017-01-25T14:42:10Z</time>
      </trkpt>
      <trkpt lat="44.82329" lon="6.7499">
        <ele>2316.91</ele>
        <time>2017-01-25T14:42:19Z</time>
      </trkpt>
      <trkpt lat="44.8233" lon="6.7499">
        <ele>2316.91</ele>
        <time>2017-01-25T14:42:20Z</time>
      </trkpt>
      <trkpt lat="44.82345" lon="6.74989">
        <ele>2313.55</ele>
        <time>2017-01-25T14:42:25Z</time>
      </trkpt>
      <trkpt lat="44.82361" lon="6.74989">
        <ele>2310.67</ele>
        <time>2017-01-25T14:42:28Z</time>
      </trkpt>
      <trkpt lat="44.82372" lon="6.74991">
        <ele>2308.74</ele>
        <time>2017-01-25T14:42:30Z</time>
      </trkpt>
      <trkpt lat="44.82394" lon="6.74988">
        <ele>2304.9</ele>
        <time>2017-01-25T14:42:34Z</time>
      </trkpt>
      <trkpt lat="44.82403" lon="6.74985">
        <ele>2303.46</ele>
        <time>2017-01-25T14:42:36Z</time>
      </trkpt>
      <trkpt lat="44.82407" lon="6.74983">
        <ele>2302.49</ele>
        <time>2017-01-25T14:42:37Z</time>
      </trkpt>
      <trkpt lat="44.82415" lon="6.74979">
        <ele>2301.53</ele>
        <time>2017-01-25T14:42:39Z</time>
      </trkpt>
      <trkpt lat="44.82429" lon="6.74987">
        <ele>2298.65</ele>
        <time>2017-01-25T14:42:43Z</time>
      </trkpt>
      <trkpt lat="44.82433" lon="6.74994">
        <ele>2297.21</ele>
        <time>2017-01-25T14:42:45Z</time>
      </trkpt>
      <trkpt lat="44.82435" lon="6.74998">
        <ele>2296.73</ele>
        <time>2017-01-25T14:42:46Z</time>
      </trkpt>
      <trkpt lat="44.82436" lon="6.75003">
        <ele>2296.25</ele>
        <time>2017-01-25T14:42:57Z</time>
      </trkpt>
      <trkpt lat="44.82437" lon="6.75002">
        <ele>2296.73</ele>
        <time>2017-01-25T14:43:18Z</time>
      </trkpt>
      <trkpt lat="44.82431" lon="6.75003">
        <ele>2296.73</ele>
        <time>2017-01-25T14:43:42Z</time>
      </trkpt>
      <trkpt lat="44.82432" lon="6.75004">
        <ele>2296.73</ele>
        <time>2017-01-25T14:44:01Z</time>
      </trkpt>
      <trkpt lat="44.82441" lon="6.75007">
        <ele>2295.77</ele>
        <time>2017-01-25T14:44:06Z</time>
      </trkpt>
      <trkpt lat="44.82458" lon="6.75009">
        <ele>2291.92</ele>
        <time>2017-01-25T14:44:11Z</time>
      </trkpt>
      <trkpt lat="44.82461" lon="6.75011">
        <ele>2290.96</ele>
        <time>2017-01-25T14:44:12Z</time>
      </trkpt>
      <trkpt lat="44.82476" lon="6.75015">
        <ele>2286.15</ele>
        <time>2017-01-25T14:44:17Z</time>
      </trkpt>
      <trkpt lat="44.82479" lon="6.75015">
        <ele>2285.19</ele>
        <time>2017-01-25T14:44:18Z</time>
      </trkpt>
      <trkpt lat="44.82498" lon="6.75007">
        <ele>2278.94</ele>
        <time>2017-01-25T14:44:22Z</time>
      </trkpt>
      <trkpt lat="44.8252" lon="6.75002">
        <ele>2274.14</ele>
        <time>2017-01-25T14:44:26Z</time>
      </trkpt>
      <trkpt lat="44.82531" lon="6.75004">
        <ele>2273.17</ele>
        <time>2017-01-25T14:44:28Z</time>
      </trkpt>
      <trkpt lat="44.82536" lon="6.75006">
        <ele>2271.73</ele>
        <time>2017-01-25T14:44:29Z</time>
      </trkpt>
      <trkpt lat="44.82542" lon="6.75009">
        <ele>2270.77</ele>
        <time>2017-01-25T14:44:31Z</time>
      </trkpt>
      <trkpt lat="44.82548" lon="6.75008">
        <ele>2270.29</ele>
        <time>2017-01-25T14:44:45Z</time>
      </trkpt>
      <trkpt lat="44.82549" lon="6.7501">
        <ele>2270.77</ele>
        <time>2017-01-25T14:45:13Z</time>
      </trkpt>
      <trkpt lat="44.82551" lon="6.75009">
        <ele>2270.29</ele>
        <time>2017-01-25T14:45:16Z</time>
      </trkpt>
      <trkpt lat="44.82559" lon="6.75019">
        <ele>2266.93</ele>
        <time>2017-01-25T14:45:21Z</time>
      </trkpt>
      <trkpt lat="44.82562" lon="6.75019">
        <ele>2266.45</ele>
        <time>2017-01-25T14:45:22Z</time>
      </trkpt>
      <trkpt lat="44.82572" lon="6.75021">
        <ele>2262.6</ele>
        <time>2017-01-25T14:45:27Z</time>
      </trkpt>
      <trkpt lat="44.82585" lon="6.75022">
        <ele>2259.24</ele>
        <time>2017-01-25T14:45:33Z</time>
      </trkpt>
      <trkpt lat="44.82594" lon="6.75021">
        <ele>2256.35</ele>
        <time>2017-01-25T14:45:37Z</time>
      </trkpt>
      <trkpt lat="44.82595" lon="6.75009">
        <ele>2252.03</ele>
        <time>2017-01-25T14:45:40Z</time>
      </trkpt>
      <trkpt lat="44.82596" lon="6.74997">
        <ele>2249.14</ele>
        <time>2017-01-25T14:45:43Z</time>
      </trkpt>
      <trkpt lat="44.82611" lon="6.74984">
        <ele>2245.78</ele>
        <time>2017-01-25T14:45:49Z</time>
      </trkpt>
      <trkpt lat="44.82613" lon="6.74983">
        <ele>2245.3</ele>
        <time>2017-01-25T14:45:50Z</time>
      </trkpt>
      <trkpt lat="44.82619" lon="6.74976">
        <ele>2243.37</ele>
        <time>2017-01-25T14:45:53Z</time>
      </trkpt>
      <trkpt lat="44.8262" lon="6.7497">
        <ele>2242.41</ele>
        <time>2017-01-25T14:45:56Z</time>
      </trkpt>
      <trkpt lat="44.8262" lon="6.74968">
        <ele>2242.41</ele>
        <time>2017-01-25T14:46:00Z</time>
      </trkpt>
      <trkpt lat="44.82623" lon="6.74965">
        <ele>2239.05</ele>
        <time>2017-01-25T14:46:05Z</time>
      </trkpt>
      <trkpt lat="44.82622" lon="6.74966">
        <ele>2239.05</ele>
        <time>2017-01-25T14:46:23Z</time>
      </trkpt>
      <trkpt lat="44.82634" lon="6.74971">
        <ele>2235.2</ele>
        <time>2017-01-25T14:46:28Z</time>
      </trkpt>
      <trkpt lat="44.82647" lon="6.74977">
        <ele>2232.32</ele>
        <time>2017-01-25T14:46:31Z</time>
      </trkpt>
      <trkpt lat="44.82658" lon="6.74981">
        <ele>2229.43</ele>
        <time>2017-01-25T14:46:34Z</time>
      </trkpt>
      <trkpt lat="44.82662" lon="6.74983">
        <ele>2228.47</ele>
        <time>2017-01-25T14:46:35Z</time>
      </trkpt>
      <trkpt lat="44.8268" lon="6.74989">
        <ele>2223.67</ele>
        <time>2017-01-25T14:46:39Z</time>
      </trkpt>
      <trkpt lat="44.82713" lon="6.74986">
        <ele>2218.86</ele>
        <time>2017-01-25T14:46:44Z</time>
      </trkpt>
      <trkpt lat="44.82743" lon="6.74984">
        <ele>2215.5</ele>
        <time>2017-01-25T14:46:50Z</time>
      </trkpt>
      <trkpt lat="44.82763" lon="6.7498">
        <ele>2212.61</ele>
        <time>2017-01-25T14:46:54Z</time>
      </trkpt>
      <trkpt lat="44.82794" lon="6.7497">
        <ele>2209.73</ele>
        <time>2017-01-25T14:47:03Z</time>
      </trkpt>
      <trkpt lat="44.82793" lon="6.7497">
        <ele>2210.21</ele>
        <time>2017-01-25T14:47:14Z</time>
      </trkpt>
      <trkpt lat="44.82799" lon="6.7497">
        <ele>2209.25</ele>
        <time>2017-01-25T14:47:37Z</time>
      </trkpt>
      <trkpt lat="44.82812" lon="6.74963">
        <ele>2206.84</ele>
        <time>2017-01-25T14:47:42Z</time>
      </trkpt>
      <trkpt lat="44.82832" lon="6.7495">
        <ele>2203.48</ele>
        <time>2017-01-25T14:47:47Z</time>
      </trkpt>
      <trkpt lat="44.82842" lon="6.74946">
        <ele>2200.11</ele>
        <time>2017-01-25T14:47:49Z</time>
      </trkpt>
      <trkpt lat="44.82856" lon="6.7494">
        <ele>2199.15</ele>
        <time>2017-01-25T14:47:57Z</time>
      </trkpt>
      <trkpt lat="44.82857" lon="6.7494">
        <ele>2199.15</ele>
        <time>2017-01-25T14:48:10Z</time>
      </trkpt>
      <trkpt lat="44.82852" lon="6.7495">
        <ele>2195.79</ele>
        <time>2017-01-25T14:48:15Z</time>
      </trkpt>
      <trkpt lat="44.8285" lon="6.74953">
        <ele>2195.31</ele>
        <time>2017-01-25T14:48:16Z</time>
      </trkpt>
      <trkpt lat="44.82857" lon="6.74961">
        <ele>2190.98</ele>
        <time>2017-01-25T14:48:19Z</time>
      </trkpt>
      <trkpt lat="44.8286" lon="6.7496">
        <ele>2190.98</ele>
        <time>2017-01-25T14:48:20Z</time>
      </trkpt>
      <trkpt lat="44.82873" lon="6.74957">
        <ele>2189.06</ele>
        <time>2017-01-25T14:48:26Z</time>
      </trkpt>
      <trkpt lat="44.8287" lon="6.7497">
        <ele>2184.25</ele>
        <time>2017-01-25T14:48:30Z</time>
      </trkpt>
      <trkpt lat="44.82872" lon="6.74983">
        <ele>2180.89</ele>
        <time>2017-01-25T14:48:33Z</time>
      </trkpt>
      <trkpt lat="44.82886" lon="6.74984">
        <ele>2177.52</ele>
        <time>2017-01-25T14:48:37Z</time>
      </trkpt>
      <trkpt lat="44.82887" lon="6.74987">
        <ele>2176.56</ele>
        <time>2017-01-25T14:48:38Z</time>
      </trkpt>
      <trkpt lat="44.82882" lon="6.74993">
        <ele>2174.16</ele>
        <time>2017-01-25T14:48:41Z</time>
      </trkpt>
      <trkpt lat="44.82891" lon="6.74998">
        <ele>2170.79</ele>
        <time>2017-01-25T14:48:46Z</time>
      </trkpt>
      <trkpt lat="44.82894" lon="6.74998">
        <ele>2170.79</ele>
        <time>2017-01-25T14:48:47Z</time>
      </trkpt>
      <trkpt lat="44.82911" lon="6.74992">
        <ele>2167.91</ele>
        <time>2017-01-25T14:48:53Z</time>
      </trkpt>
      <trkpt lat="44.82912" lon="6.74993">
        <ele>2167.91</ele>
        <time>2017-01-25T14:48:58Z</time>
      </trkpt>
      <trkpt lat="44.82927" lon="6.74988">
        <ele>2165.99</ele>
        <time>2017-01-25T14:49:09Z</time>
      </trkpt>
      <trkpt lat="44.82949" lon="6.74985">
        <ele>2163.1</ele>
        <time>2017-01-25T14:49:20Z</time>
      </trkpt>
      <trkpt lat="44.82968" lon="6.74967">
        <ele>2160.7</ele>
        <time>2017-01-25T14:49:31Z</time>
      </trkpt>
      <trkpt lat="44.82984" lon="6.74958">
        <ele>2158.78</ele>
        <time>2017-01-25T14:49:39Z</time>
      </trkpt>
      <trkpt lat="44.82997" lon="6.74953">
        <ele>2157.34</ele>
        <time>2017-01-25T14:49:42Z</time>
      </trkpt>
      <trkpt lat="44.8302" lon="6.74952">
        <ele>2153.97</ele>
        <time>2017-01-25T14:49:52Z</time>
      </trkpt>
      <trkpt lat="44.83016" lon="6.74954">
        <ele>2154.45</ele>
        <time>2017-01-25T14:50:09Z</time>
      </trkpt>
      <trkpt lat="44.83024" lon="6.74956">
        <ele>2153.49</ele>
        <time>2017-01-25T14:50:13Z</time>
      </trkpt>
      <trkpt lat="44.83036" lon="6.74958">
        <ele>2151.09</ele>
        <time>2017-01-25T14:50:18Z</time>
      </trkpt>
      <trkpt lat="44.83034" lon="6.74963">
        <ele>2147.72</ele>
        <time>2017-01-25T14:50:25Z</time>
      </trkpt>
      <trkpt lat="44.83032" lon="6.74964">
        <ele>2147.24</ele>
        <time>2017-01-25T14:50:28Z</time>
      </trkpt>
      <trkpt lat="44.83037" lon="6.74979">
        <ele>2143.88</ele>
        <time>2017-01-25T14:50:36Z</time>
      </trkpt>
      <trkpt lat="44.83039" lon="6.74979">
        <ele>2142.92</ele>
        <time>2017-01-25T14:50:37Z</time>
      </trkpt>
      <trkpt lat="44.83044" lon="6.74979">
        <ele>2142.44</ele>
        <time>2017-01-25T14:50:50Z</time>
      </trkpt>
      <trkpt lat="44.83045" lon="6.74981">
        <ele>2142.44</ele>
        <time>2017-01-25T14:50:52Z</time>
      </trkpt>
      <trkpt lat="44.83041" lon="6.74994">
        <ele>2139.07</ele>
        <time>2017-01-25T14:50:58Z</time>
      </trkpt>
      <trkpt lat="44.83046" lon="6.75007">
        <ele>2136.19</ele>
        <time>2017-01-25T14:51:02Z</time>
      </trkpt>
      <trkpt lat="44.83052" lon="6.75012">
        <ele>2134.26</ele>
        <time>2017-01-25T14:51:09Z</time>
      </trkpt>
      <trkpt lat="44.83051" lon="6.75011">
        <ele>2134.26</ele>
        <time>2017-01-25T14:51:29Z</time>
      </trkpt>
      <trkpt lat="44.83052" lon="6.75013">
        <ele>2134.26</ele>
        <time>2017-01-25T14:51:43Z</time>
      </trkpt>
      <trkpt lat="44.83057" lon="6.75034">
        <ele>2132.34</ele>
        <time>2017-01-25T14:51:48Z</time>
      </trkpt>
      <trkpt lat="44.83067" lon="6.75042">
        <ele>2130.42</ele>
        <time>2017-01-25T14:51:55Z</time>
      </trkpt>
      <trkpt lat="44.83068" lon="6.75039">
        <ele>2130.42</ele>
        <time>2017-01-25T14:52:12Z</time>
      </trkpt>
      <trkpt lat="44.83067" lon="6.75041">
        <ele>2130.42</ele>
        <time>2017-01-25T14:52:32Z</time>
      </trkpt>
      <trkpt lat="44.83069" lon="6.7504">
        <ele>2130.42</ele>
        <time>2017-01-25T14:52:54Z</time>
      </trkpt>
      <trkpt lat="44.8307" lon="6.75039">
        <ele>2130.9</ele>
        <time>2017-01-25T14:53:17Z</time>
      </trkpt>
      <trkpt lat="44.83069" lon="6.7504">
        <ele>2130.9</ele>
        <time>2017-01-25T14:53:39Z</time>
      </trkpt>
      <trkpt lat="44.83071" lon="6.75039">
        <ele>2130.9</ele>
        <time>2017-01-25T14:54:05Z</time>
      </trkpt>
      <trkpt lat="44.8307" lon="6.75038">
        <ele>2130.9</ele>
        <time>2017-01-25T14:54:29Z</time>
      </trkpt>
      <trkpt lat="44.83073" lon="6.7504">
        <ele>2130.9</ele>
        <time>2017-01-25T14:54:48Z</time>
      </trkpt>
      <trkpt lat="44.8308" lon="6.75034">
        <ele>2129.46</ele>
        <time>2017-01-25T14:55:01Z</time>
      </trkpt>
      <trkpt lat="44.83081" lon="6.75034">
        <ele>2129.46</ele>
        <time>2017-01-25T14:55:08Z</time>
      </trkpt>
      <trkpt lat="44.83111" lon="6.75036">
        <ele>2126.57</ele>
        <time>2017-01-25T14:55:20Z</time>
      </trkpt>
      <trkpt lat="44.83119" lon="6.75033">
        <ele>2124.65</ele>
        <time>2017-01-25T14:55:23Z</time>
      </trkpt>
      <trkpt lat="44.83126" lon="6.75024">
        <ele>2123.21</ele>
        <time>2017-01-25T14:55:31Z</time>
      </trkpt>
      <trkpt lat="44.83129" lon="6.7502">
        <ele>2123.21</ele>
        <time>2017-01-25T14:55:51Z</time>
      </trkpt>
      <trkpt lat="44.83139" lon="6.75013">
        <ele>2121.77</ele>
        <time>2017-01-25T14:56:10Z</time>
      </trkpt>
      <trkpt lat="44.8315" lon="6.75">
        <ele>2119.36</ele>
        <time>2017-01-25T14:56:13Z</time>
      </trkpt>
      <trkpt lat="44.83162" lon="6.75002">
        <ele>2116</ele>
        <time>2017-01-25T14:56:16Z</time>
      </trkpt>
      <trkpt lat="44.83178" lon="6.75003">
        <ele>2112.63</ele>
        <time>2017-01-25T14:56:20Z</time>
      </trkpt>
      <trkpt lat="44.8318" lon="6.75016">
        <ele>2110.23</ele>
        <time>2017-01-25T14:56:23Z</time>
      </trkpt>
      <trkpt lat="44.83193" lon="6.75028">
        <ele>2106.87</ele>
        <time>2017-01-25T14:56:28Z</time>
      </trkpt>
      <trkpt lat="44.832" lon="6.75035">
        <ele>2103.5</ele>
        <time>2017-01-25T14:56:31Z</time>
      </trkpt>
      <trkpt lat="44.83211" lon="6.75036">
        <ele>2100.62</ele>
        <time>2017-01-25T14:56:35Z</time>
      </trkpt>
      <trkpt lat="44.83217" lon="6.7505">
        <ele>2097.25</ele>
        <time>2017-01-25T14:56:39Z</time>
      </trkpt>
      <trkpt lat="44.83215" lon="6.75058">
        <ele>2096.29</ele>
        <time>2017-01-25T14:56:42Z</time>
      </trkpt>
      <trkpt lat="44.83214" lon="6.75074">
        <ele>2091.49</ele>
        <time>2017-01-25T14:56:47Z</time>
      </trkpt>
      <trkpt lat="44.83215" lon="6.75078">
        <ele>2091</ele>
        <time>2017-01-25T14:56:49Z</time>
      </trkpt>
      <trkpt lat="44.83217" lon="6.75078">
        <ele>2091</ele>
        <time>2017-01-25T14:57:09Z</time>
      </trkpt>
      <trkpt lat="44.83217" lon="6.7508">
        <ele>2091.49</ele>
        <time>2017-01-25T14:57:16Z</time>
      </trkpt>
      <trkpt lat="44.83226" lon="6.75088">
        <ele>2089.08</ele>
        <time>2017-01-25T14:57:21Z</time>
      </trkpt>
      <trkpt lat="44.83231" lon="6.7509">
        <ele>2088.12</ele>
        <time>2017-01-25T14:57:23Z</time>
      </trkpt>
      <trkpt lat="44.83239" lon="6.75101">
        <ele>2083.79</ele>
        <time>2017-01-25T14:57:28Z</time>
      </trkpt>
      <trkpt lat="44.83241" lon="6.75104">
        <ele>2083.31</ele>
        <time>2017-01-25T14:57:29Z</time>
      </trkpt>
      <trkpt lat="44.83243" lon="6.75116">
        <ele>2080.43</ele>
        <time>2017-01-25T14:57:33Z</time>
      </trkpt>
      <trkpt lat="44.83244" lon="6.75128">
        <ele>2077.55</ele>
        <time>2017-01-25T14:57:40Z</time>
      </trkpt>
      <trkpt lat="44.83248" lon="6.75144">
        <ele>2072.74</ele>
        <time>2017-01-25T14:57:46Z</time>
      </trkpt>
      <trkpt lat="44.83247" lon="6.75147">
        <ele>2072.74</ele>
        <time>2017-01-25T14:57:47Z</time>
      </trkpt>
      <trkpt lat="44.83246" lon="6.75149">
        <ele>2072.26</ele>
        <time>2017-01-25T14:57:49Z</time>
      </trkpt>
      <trkpt lat="44.8324" lon="6.75153">
        <ele>2071.3</ele>
        <time>2017-01-25T14:57:52Z</time>
      </trkpt>
      <trkpt lat="44.83239" lon="6.75166">
        <ele>2069.38</ele>
        <time>2017-01-25T14:57:56Z</time>
      </trkpt>
      <trkpt lat="44.83241" lon="6.75169">
        <ele>2069.38</ele>
        <time>2017-01-25T14:57:57Z</time>
      </trkpt>
      <trkpt lat="44.83244" lon="6.7517">
        <ele>2068.41</ele>
        <time>2017-01-25T14:57:58Z</time>
      </trkpt>
      <trkpt lat="44.83246" lon="6.75185">
        <ele>2066.49</ele>
        <time>2017-01-25T14:58:05Z</time>
      </trkpt>
      <trkpt lat="44.83251" lon="6.75189">
        <ele>2065.05</ele>
        <time>2017-01-25T14:58:08Z</time>
      </trkpt>
      <trkpt lat="44.83257" lon="6.75199">
        <ele>2062.17</ele>
        <time>2017-01-25T14:58:12Z</time>
      </trkpt>
      <trkpt lat="44.83259" lon="6.75205">
        <ele>2062.17</ele>
        <time>2017-01-25T14:58:24Z</time>
      </trkpt>
      <trkpt lat="44.8326" lon="6.75206">
        <ele>2062.17</ele>
        <time>2017-01-25T14:58:30Z</time>
      </trkpt>
      <trkpt lat="44.83259" lon="6.75211">
        <ele>2059.76</ele>
        <time>2017-01-25T14:58:35Z</time>
      </trkpt>
      <trkpt lat="44.83255" lon="6.75217">
        <ele>2058.8</ele>
        <time>2017-01-25T14:58:37Z</time>
      </trkpt>
      <trkpt lat="44.83252" lon="6.75226">
        <ele>2058.32</ele>
        <time>2017-01-25T14:58:39Z</time>
      </trkpt>
      <trkpt lat="44.83251" lon="6.75228">
        <ele>2057.84</ele>
        <time>2017-01-25T14:58:40Z</time>
      </trkpt>
      <trkpt lat="44.8325" lon="6.7523">
        <ele>2057.84</ele>
        <time>2017-01-25T14:58:41Z</time>
      </trkpt>
      <trkpt lat="44.83257" lon="6.75239">
        <ele>2056.4</ele>
        <time>2017-01-25T14:58:44Z</time>
      </trkpt>
      <trkpt lat="44.83265" lon="6.75256">
        <ele>2053.03</ele>
        <time>2017-01-25T14:58:49Z</time>
      </trkpt>
      <trkpt lat="44.83267" lon="6.75259">
        <ele>2052.55</ele>
        <time>2017-01-25T14:58:50Z</time>
      </trkpt>
      <trkpt lat="44.83271" lon="6.75264">
        <ele>2051.59</ele>
        <time>2017-01-25T14:58:52Z</time>
      </trkpt>
      <trkpt lat="44.83273" lon="6.75271">
        <ele>2049.67</ele>
        <time>2017-01-25T14:58:54Z</time>
      </trkpt>
      <trkpt lat="44.83275" lon="6.75281">
        <ele>2049.67</ele>
        <time>2017-01-25T14:58:57Z</time>
      </trkpt>
      <trkpt lat="44.83302" lon="6.75285">
        <ele>2047.26</ele>
        <time>2017-01-25T14:59:07Z</time>
      </trkpt>
      <trkpt lat="44.83332" lon="6.75273">
        <ele>2044.38</ele>
        <time>2017-01-25T14:59:17Z</time>
      </trkpt>
      <trkpt lat="44.83344" lon="6.75264">
        <ele>2042.94</ele>
        <time>2017-01-25T14:59:21Z</time>
      </trkpt>
      <trkpt lat="44.83363" lon="6.75258">
        <ele>2041.02</ele>
        <time>2017-01-25T14:59:25Z</time>
      </trkpt>
      <trkpt lat="44.834" lon="6.75243">
        <ele>2038.61</ele>
        <time>2017-01-25T14:59:34Z</time>
      </trkpt>
      <trkpt lat="44.83417" lon="6.7523">
        <ele>2038.13</ele>
        <time>2017-01-25T14:59:43Z</time>
      </trkpt>
      <trkpt lat="44.8344" lon="6.75201">
        <ele>2036.21</ele>
        <time>2017-01-25T14:59:56Z</time>
      </trkpt>
      <trkpt lat="44.83456" lon="6.75182">
        <ele>2033.81</ele>
        <time>2017-01-25T15:00:00Z</time>
      </trkpt>
      <trkpt lat="44.83465" lon="6.75173">
        <ele>2032.84</ele>
        <time>2017-01-25T15:00:02Z</time>
      </trkpt>
      <trkpt lat="44.83495" lon="6.75142">
        <ele>2029</ele>
        <time>2017-01-25T15:00:09Z</time>
      </trkpt>
      <trkpt lat="44.83515" lon="6.75102">
        <ele>2025.15</ele>
        <time>2017-01-25T15:00:16Z</time>
      </trkpt>
      <trkpt lat="44.83522" lon="6.75093">
        <ele>2025.15</ele>
        <time>2017-01-25T15:00:18Z</time>
      </trkpt>
      <trkpt lat="44.83538" lon="6.75076">
        <ele>2023.23</ele>
        <time>2017-01-25T15:00:22Z</time>
      </trkpt>
      <trkpt lat="44.83563" lon="6.7504">
        <ele>2017.46</ele>
        <time>2017-01-25T15:00:29Z</time>
      </trkpt>
      <trkpt lat="44.83566" lon="6.75035">
        <ele>2017.46</ele>
        <time>2017-01-25T15:00:30Z</time>
      </trkpt>
      <trkpt lat="44.83573" lon="6.75027">
        <ele>2016.02</ele>
        <time>2017-01-25T15:00:32Z</time>
      </trkpt>
      <trkpt lat="44.8358" lon="6.75019">
        <ele>2015.06</ele>
        <time>2017-01-25T15:00:34Z</time>
      </trkpt>
      <trkpt lat="44.83582" lon="6.75018">
        <ele>2011.7</ele>
        <time>2017-01-25T15:00:38Z</time>
      </trkpt>
      <trkpt lat="44.83587" lon="6.75024">
        <ele>2009.29</ele>
        <time>2017-01-25T15:00:43Z</time>
      </trkpt>
      <trkpt lat="44.83593" lon="6.75026">
        <ele>2008.33</ele>
        <time>2017-01-25T15:00:46Z</time>
      </trkpt>
      <trkpt lat="44.83609" lon="6.75006">
        <ele>2004.49</ele>
        <time>2017-01-25T15:00:52Z</time>
      </trkpt>
      <trkpt lat="44.83611" lon="6.75005">
        <ele>2004.97</ele>
        <time>2017-01-25T15:00:57Z</time>
      </trkpt>
      <trkpt lat="44.8362" lon="6.74988">
        <ele>2002.08</ele>
        <time>2017-01-25T15:01:03Z</time>
      </trkpt>
      <trkpt lat="44.83627" lon="6.74972">
        <ele>2000.64</ele>
        <time>2017-01-25T15:01:06Z</time>
      </trkpt>
      <trkpt lat="44.83631" lon="6.74965">
        <ele>2000.16</ele>
        <time>2017-01-25T15:01:07Z</time>
      </trkpt>
      <trkpt lat="44.83643" lon="6.74948">
        <ele>1999.2</ele>
        <time>2017-01-25T15:01:11Z</time>
      </trkpt>
      <trkpt lat="44.83656" lon="6.74934">
        <ele>1996.8</ele>
        <time>2017-01-25T15:01:15Z</time>
      </trkpt>
      <trkpt lat="44.83664" lon="6.74914">
        <ele>1995.35</ele>
        <time>2017-01-25T15:01:21Z</time>
      </trkpt>
      <trkpt lat="44.83666" lon="6.74907">
        <ele>1994.87</ele>
        <time>2017-01-25T15:01:31Z</time>
      </trkpt>
      <trkpt lat="44.83683" lon="6.74907">
        <ele>1993.43</ele>
        <time>2017-01-25T15:01:39Z</time>
      </trkpt>
      <trkpt lat="44.83685" lon="6.74908">
        <ele>1992.95</ele>
        <time>2017-01-25T15:01:40Z</time>
      </trkpt>
      <trkpt lat="44.8371" lon="6.74921">
        <ele>1992.47</ele>
        <time>2017-01-25T15:01:55Z</time>
      </trkpt>
      <trkpt lat="44.83713" lon="6.7492">
        <ele>1992.47</ele>
        <time>2017-01-25T15:02:04Z</time>
      </trkpt>
      <trkpt lat="44.83712" lon="6.74921">
        <ele>1992.47</ele>
        <time>2017-01-25T15:02:20Z</time>
      </trkpt>
      <trkpt lat="44.83712" lon="6.74923">
        <ele>1992.47</ele>
        <time>2017-01-25T15:02:41Z</time>
      </trkpt>
      <trkpt lat="44.83713" lon="6.74919">
        <ele>1992.95</ele>
        <time>2017-01-25T15:03:04Z</time>
      </trkpt>
      <trkpt lat="44.83716" lon="6.74918">
        <ele>1993.91</ele>
        <time>2017-01-25T15:03:20Z</time>
      </trkpt>
      <trkpt lat="44.83738" lon="6.74882">
        <ele>1991.03</ele>
        <time>2017-01-25T15:03:37Z</time>
      </trkpt>
      <trkpt lat="44.83777" lon="6.74832">
        <ele>1987.66</ele>
        <time>2017-01-25T15:03:50Z</time>
      </trkpt>
      <trkpt lat="44.83808" lon="6.74807">
        <ele>1984.3</ele>
        <time>2017-01-25T15:03:58Z</time>
      </trkpt>
      <trkpt lat="44.83813" lon="6.74804">
        <ele>1984.78</ele>
        <time>2017-01-25T15:03:59Z</time>
      </trkpt>
      <trkpt lat="44.83862" lon="6.7478">
        <ele>1981.41</ele>
        <time>2017-01-25T15:04:09Z</time>
      </trkpt>
      <trkpt lat="44.83873" lon="6.74778">
        <ele>1980.45</ele>
        <time>2017-01-25T15:04:11Z</time>
      </trkpt>
      <trkpt lat="44.83894" lon="6.74766">
        <ele>1976.61</ele>
        <time>2017-01-25T15:04:15Z</time>
      </trkpt>
      <trkpt lat="44.839" lon="6.74762">
        <ele>1976.13</ele>
        <time>2017-01-25T15:04:16Z</time>
      </trkpt>
      <trkpt lat="44.83922" lon="6.74753">
        <ele>1973.72</ele>
        <time>2017-01-25T15:04:20Z</time>
      </trkpt>
      <trkpt lat="44.83935" lon="6.7475">
        <ele>1972.76</ele>
        <time>2017-01-25T15:04:22Z</time>
      </trkpt>
      <trkpt lat="44.83947" lon="6.74744">
        <ele>1971.8</ele>
        <time>2017-01-25T15:04:24Z</time>
      </trkpt>
      <trkpt lat="44.83953" lon="6.74742">
        <ele>1970.84</ele>
        <time>2017-01-25T15:04:25Z</time>
      </trkpt>
      <trkpt lat="44.83973" lon="6.74735">
        <ele>1968.44</ele>
        <time>2017-01-25T15:04:28Z</time>
      </trkpt>
      <trkpt lat="44.83991" lon="6.74722">
        <ele>1965.55</ele>
        <time>2017-01-25T15:04:31Z</time>
      </trkpt>
      <trkpt lat="44.84004" lon="6.74714">
        <ele>1962.19</ele>
        <time>2017-01-25T15:04:33Z</time>
      </trkpt>
      <trkpt lat="44.84011" lon="6.74711">
        <ele>1962.19</ele>
        <time>2017-01-25T15:04:34Z</time>
      </trkpt>
      <trkpt lat="44.84061" lon="6.747">
        <ele>1956.9</ele>
        <time>2017-01-25T15:04:41Z</time>
      </trkpt>
      <trkpt lat="44.8409" lon="6.74701">
        <ele>1952.57</ele>
        <time>2017-01-25T15:04:45Z</time>
      </trkpt>
      <trkpt lat="44.84119" lon="6.74691">
        <ele>1948.25</ele>
        <time>2017-01-25T15:04:49Z</time>
      </trkpt>
      <trkpt lat="44.84134" lon="6.74679">
        <ele>1945.85</ele>
        <time>2017-01-25T15:04:51Z</time>
      </trkpt>
      <trkpt lat="44.84153" lon="6.74653">
        <ele>1942.96</ele>
        <time>2017-01-25T15:04:54Z</time>
      </trkpt>
      <trkpt lat="44.84166" lon="6.74639">
        <ele>1940.56</ele>
        <time>2017-01-25T15:04:56Z</time>
      </trkpt>
      <trkpt lat="44.84192" lon="6.74614">
        <ele>1936.71</ele>
        <time>2017-01-25T15:05:00Z</time>
      </trkpt>
      <trkpt lat="44.84211" lon="6.74598">
        <ele>1935.27</ele>
        <time>2017-01-25T15:05:03Z</time>
      </trkpt>
      <trkpt lat="44.84228" lon="6.74586">
        <ele>1931.91</ele>
        <time>2017-01-25T15:05:06Z</time>
      </trkpt>
      <trkpt lat="44.84247" lon="6.74575">
        <ele>1929.5</ele>
        <time>2017-01-25T15:05:09Z</time>
      </trkpt>
      <trkpt lat="44.84273" lon="6.74562">
        <ele>1926.62</ele>
        <time>2017-01-25T15:05:13Z</time>
      </trkpt>
      <trkpt lat="44.84298" lon="6.74555">
        <ele>1923.25</ele>
        <time>2017-01-25T15:05:17Z</time>
      </trkpt>
      <trkpt lat="44.84326" lon="6.74545">
        <ele>1918.45</ele>
        <time>2017-01-25T15:05:22Z</time>
      </trkpt>
      <trkpt lat="44.84332" lon="6.74543">
        <ele>1917.49</ele>
        <time>2017-01-25T15:05:23Z</time>
      </trkpt>
      <trkpt lat="44.84353" lon="6.74535">
        <ele>1915.56</ele>
        <time>2017-01-25T15:05:27Z</time>
      </trkpt>
      <trkpt lat="44.84366" lon="6.74529">
        <ele>1913.64</ele>
        <time>2017-01-25T15:05:30Z</time>
      </trkpt>
      <trkpt lat="44.8439" lon="6.7452">
        <ele>1910.28</ele>
        <time>2017-01-25T15:05:35Z</time>
      </trkpt>
      <trkpt lat="44.84408" lon="6.74513">
        <ele>1907.87</ele>
        <time>2017-01-25T15:05:39Z</time>
      </trkpt>
      <trkpt lat="44.84433" lon="6.74508">
        <ele>1904.51</ele>
        <time>2017-01-25T15:05:44Z</time>
      </trkpt>
      <trkpt lat="44.84461" lon="6.74505">
        <ele>1901.63</ele>
        <time>2017-01-25T15:05:50Z</time>
      </trkpt>
      <trkpt lat="44.84484" lon="6.74507">
        <ele>1898.26</ele>
        <time>2017-01-25T15:05:55Z</time>
      </trkpt>
      <trkpt lat="44.84507" lon="6.74514">
        <ele>1895.38</ele>
        <time>2017-01-25T15:06:00Z</time>
      </trkpt>
      <trkpt lat="44.84533" lon="6.74516">
        <ele>1892.01</ele>
        <time>2017-01-25T15:06:05Z</time>
      </trkpt>
      <trkpt lat="44.84548" lon="6.74514">
        <ele>1890.09</ele>
        <time>2017-01-25T15:06:08Z</time>
      </trkpt>
      <trkpt lat="44.84562" lon="6.74503">
        <ele>1888.17</ele>
        <time>2017-01-25T15:06:11Z</time>
      </trkpt>
      <trkpt lat="44.84582" lon="6.74472">
        <ele>1884.8</ele>
        <time>2017-01-25T15:06:16Z</time>
      </trkpt>
      <trkpt lat="44.84594" lon="6.74457">
        <ele>1882.4</ele>
        <time>2017-01-25T15:06:19Z</time>
      </trkpt>
      <trkpt lat="44.84602" lon="6.74447">
        <ele>1881.44</ele>
        <time>2017-01-25T15:06:21Z</time>
      </trkpt>
      <trkpt lat="44.84611" lon="6.7444">
        <ele>1879.51</ele>
        <time>2017-01-25T15:06:23Z</time>
      </trkpt>
      <trkpt lat="44.84636" lon="6.74411">
        <ele>1875.19</ele>
        <time>2017-01-25T15:06:29Z</time>
      </trkpt>
      <trkpt lat="44.84652" lon="6.74387">
        <ele>1872.79</ele>
        <time>2017-01-25T15:06:33Z</time>
      </trkpt>
      <trkpt lat="44.84669" lon="6.74346">
        <ele>1868.46</ele>
        <time>2017-01-25T15:06:38Z</time>
      </trkpt>
      <trkpt lat="44.84676" lon="6.74313">
        <ele>1866.54</ele>
        <time>2017-01-25T15:06:42Z</time>
      </trkpt>
      <trkpt lat="44.84682" lon="6.74284">
        <ele>1864.13</ele>
        <time>2017-01-25T15:06:46Z</time>
      </trkpt>
      <trkpt lat="44.84695" lon="6.7423">
        <ele>1859.33</ele>
        <time>2017-01-25T15:06:55Z</time>
      </trkpt>
      <trkpt lat="44.84705" lon="6.74198">
        <ele>1856.44</ele>
        <time>2017-01-25T15:07:00Z</time>
      </trkpt>
      <trkpt lat="44.84709" lon="6.74184">
        <ele>1855.48</ele>
        <time>2017-01-25T15:07:02Z</time>
      </trkpt>
      <trkpt lat="44.84714" lon="6.74174">
        <ele>1854.52</ele>
        <time>2017-01-25T15:07:04Z</time>
      </trkpt>
      <trkpt lat="44.84731" lon="6.74149">
        <ele>1851.16</ele>
        <time>2017-01-25T15:07:09Z</time>
      </trkpt>
      <trkpt lat="44.84746" lon="6.74128">
        <ele>1848.27</ele>
        <time>2017-01-25T15:07:13Z</time>
      </trkpt>
      <trkpt lat="44.84749" lon="6.74121">
        <ele>1847.79</ele>
        <time>2017-01-25T15:07:14Z</time>
      </trkpt>
      <trkpt lat="44.84755" lon="6.74109">
        <ele>1847.31</ele>
        <time>2017-01-25T15:07:16Z</time>
      </trkpt>
      <trkpt lat="44.84783" lon="6.74072">
        <ele>1842.98</ele>
        <time>2017-01-25T15:07:23Z</time>
      </trkpt>
      <trkpt lat="44.84801" lon="6.74048">
        <ele>1840.58</ele>
        <time>2017-01-25T15:07:28Z</time>
      </trkpt>
      <trkpt lat="44.84826" lon="6.74013">
        <ele>1835.29</ele>
        <time>2017-01-25T15:07:35Z</time>
      </trkpt>
      <trkpt lat="44.84832" lon="6.74002">
        <ele>1834.81</ele>
        <time>2017-01-25T15:07:37Z</time>
      </trkpt>
      <trkpt lat="44.84835" lon="6.73996">
        <ele>1833.85</ele>
        <time>2017-01-25T15:07:38Z</time>
      </trkpt>
      <trkpt lat="44.84844" lon="6.73957">
        <ele>1831.45</ele>
        <time>2017-01-25T15:07:44Z</time>
      </trkpt>
      <trkpt lat="44.84849" lon="6.73935">
        <ele>1830.01</ele>
        <time>2017-01-25T15:07:48Z</time>
      </trkpt>
      <trkpt lat="44.84865" lon="6.73895">
        <ele>1826.64</ele>
        <time>2017-01-25T15:07:56Z</time>
      </trkpt>
      <trkpt lat="44.8488" lon="6.73869">
        <ele>1824.24</ele>
        <time>2017-01-25T15:08:01Z</time>
      </trkpt>
      <trkpt lat="44.84896" lon="6.7384">
        <ele>1820.87</ele>
        <time>2017-01-25T15:08:06Z</time>
      </trkpt>
      <trkpt lat="44.84902" lon="6.73827">
        <ele>1819.91</ele>
        <time>2017-01-25T15:08:08Z</time>
      </trkpt>
      <trkpt lat="44.84905" lon="6.73812">
        <ele>1818.47</ele>
        <time>2017-01-25T15:08:10Z</time>
      </trkpt>
      <trkpt lat="44.84908" lon="6.73796">
        <ele>1817.03</ele>
        <time>2017-01-25T15:08:12Z</time>
      </trkpt>
      <trkpt lat="44.84909" lon="6.73774">
        <ele>1814.15</ele>
        <time>2017-01-25T15:08:17Z</time>
      </trkpt>
      <trkpt lat="44.84908" lon="6.73772">
        <ele>1814.63</ele>
        <time>2017-01-25T15:08:27Z</time>
      </trkpt>
      <trkpt lat="44.84923" lon="6.73724">
        <ele>1811.74</ele>
        <time>2017-01-25T15:08:38Z</time>
      </trkpt>
      <trkpt lat="44.84928" lon="6.7371">
        <ele>1809.82</ele>
        <time>2017-01-25T15:08:40Z</time>
      </trkpt>
      <trkpt lat="44.84941" lon="6.73676">
        <ele>1806.94</ele>
        <time>2017-01-25T15:08:44Z</time>
      </trkpt>
      <trkpt lat="44.84949" lon="6.73648">
        <ele>1804.53</ele>
        <time>2017-01-25T15:08:47Z</time>
      </trkpt>
      <trkpt lat="44.84962" lon="6.7361">
        <ele>1800.69</ele>
        <time>2017-01-25T15:08:51Z</time>
      </trkpt>
      <trkpt lat="44.84971" lon="6.73592">
        <ele>1798.28</ele>
        <time>2017-01-25T15:08:53Z</time>
      </trkpt>
      <trkpt lat="44.8498" lon="6.73571">
        <ele>1796.36</ele>
        <time>2017-01-25T15:08:55Z</time>
      </trkpt>
      <trkpt lat="44.84994" lon="6.73542">
        <ele>1793</ele>
        <time>2017-01-25T15:08:58Z</time>
      </trkpt>
      <trkpt lat="44.85005" lon="6.73523">
        <ele>1792.52</ele>
        <time>2017-01-25T15:09:00Z</time>
      </trkpt>
      <trkpt lat="44.85019" lon="6.73465">
        <ele>1787.23</ele>
        <time>2017-01-25T15:09:05Z</time>
      </trkpt>
      <trkpt lat="44.8502" lon="6.7343">
        <ele>1785.79</ele>
        <time>2017-01-25T15:09:08Z</time>
      </trkpt>
      <trkpt lat="44.85025" lon="6.73387">
        <ele>1782.42</ele>
        <time>2017-01-25T15:09:12Z</time>
      </trkpt>
      <trkpt lat="44.85026" lon="6.73377">
        <ele>1781.94</ele>
        <time>2017-01-25T15:09:13Z</time>
      </trkpt>
      <trkpt lat="44.8503" lon="6.73355">
        <ele>1779.54</ele>
        <time>2017-01-25T15:09:15Z</time>
      </trkpt>
      <trkpt lat="44.85046" lon="6.73318">
        <ele>1776.17</ele>
        <time>2017-01-25T15:09:19Z</time>
      </trkpt>
      <trkpt lat="44.8507" lon="6.73271">
        <ele>1771.85</ele>
        <time>2017-01-25T15:09:24Z</time>
      </trkpt>
      <trkpt lat="44.85082" lon="6.73255">
        <ele>1771.37</ele>
        <time>2017-01-25T15:09:26Z</time>
      </trkpt>
      <trkpt lat="44.85115" lon="6.73219">
        <ele>1767.52</ele>
        <time>2017-01-25T15:09:31Z</time>
      </trkpt>
      <trkpt lat="44.85137" lon="6.73202">
        <ele>1765.6</ele>
        <time>2017-01-25T15:09:34Z</time>
      </trkpt>
      <trkpt lat="44.8517" lon="6.73173">
        <ele>1762.71</ele>
        <time>2017-01-25T15:09:39Z</time>
      </trkpt>
      <trkpt lat="44.85176" lon="6.73167">
        <ele>1762.23</ele>
        <time>2017-01-25T15:09:40Z</time>
      </trkpt>
      <trkpt lat="44.85199" lon="6.73142">
        <ele>1759.83</ele>
        <time>2017-01-25T15:09:44Z</time>
      </trkpt>
      <trkpt lat="44.85231" lon="6.73102">
        <ele>1756.47</ele>
        <time>2017-01-25T15:09:51Z</time>
      </trkpt>
      <trkpt lat="44.85243" lon="6.73086">
        <ele>1755.02</ele>
        <time>2017-01-25T15:09:54Z</time>
      </trkpt>
      <trkpt lat="44.85285" lon="6.73024">
        <ele>1752.14</ele>
        <time>2017-01-25T15:10:05Z</time>
      </trkpt>
      <trkpt lat="44.853" lon="6.73002">
        <ele>1751.18</ele>
        <time>2017-01-25T15:10:09Z</time>
      </trkpt>
      <trkpt lat="44.85339" lon="6.72937">
        <ele>1750.7</ele>
        <time>2017-01-25T15:10:23Z</time>
      </trkpt>
      <trkpt lat="44.85376" lon="6.72892">
        <ele>1748.78</ele>
        <time>2017-01-25T15:10:38Z</time>
      </trkpt>
      <trkpt lat="44.85405" lon="6.72855">
        <ele>1748.78</ele>
        <time>2017-01-25T15:10:54Z</time>
      </trkpt>
      <trkpt lat="44.85432" lon="6.72828">
        <ele>1748.29</ele>
        <time>2017-01-25T15:11:10Z</time>
      </trkpt>
      <trkpt lat="44.85457" lon="6.728">
        <ele>1747.81</ele>
        <time>2017-01-25T15:11:26Z</time>
      </trkpt>
      <trkpt lat="44.8548" lon="6.72773">
        <ele>1747.81</ele>
        <time>2017-01-25T15:11:43Z</time>
      </trkpt>
      <trkpt lat="44.85503" lon="6.72746">
        <ele>1747.33</ele>
        <time>2017-01-25T15:12:02Z</time>
      </trkpt>
      <trkpt lat="44.85521" lon="6.72725">
        <ele>1746.37</ele>
        <time>2017-01-25T15:12:20Z</time>
      </trkpt>
      <trkpt lat="44.85524" lon="6.72726">
        <ele>1746.85</ele>
        <time>2017-01-25T15:12:36Z</time>
      </trkpt>
      <trkpt lat="44.85524" lon="6.72726">
        <ele>1746.85</ele>
        <time>2017-01-25T15:12:53Z</time>
      </trkpt>
      <trkpt lat="44.85524" lon="6.7272">
        <ele>1746.85</ele>
        <time>2017-01-25T15:13:10Z</time>
      </trkpt>
      <trkpt lat="44.85527" lon="6.72716">
        <ele>1747.33</ele>
        <time>2017-01-25T15:13:32Z</time>
      </trkpt>
      <trkpt lat="44.85526" lon="6.72721">
        <ele>1747.81</ele>
        <time>2017-01-25T15:13:51Z</time>
      </trkpt>
      <trkpt lat="44.85532" lon="6.72724">
        <ele>1747.33</ele>
        <time>2017-01-25T15:14:01Z</time>
      </trkpt>
      <trkpt lat="44.85552" lon="6.72719">
        <ele>1746.37</ele>
        <time>2017-01-25T15:14:18Z</time>
      </trkpt>
      <trkpt lat="44.85568" lon="6.7271">
        <ele>1745.89</ele>
        <time>2017-01-25T15:14:34Z</time>
      </trkpt>
      <trkpt lat="44.85585" lon="6.72701">
        <ele>1745.41</ele>
        <time>2017-01-25T15:14:49Z</time>
      </trkpt>
      <trkpt lat="44.85603" lon="6.72688">
        <ele>1744.93</ele>
        <time>2017-01-25T15:15:06Z</time>
      </trkpt>
      <trkpt lat="44.85616" lon="6.72679">
        <ele>1744.93</ele>
        <time>2017-01-25T15:15:19Z</time>
      </trkpt>
      <trkpt lat="44.85616" lon="6.72676">
        <ele>1744.45</ele>
        <time>2017-01-25T15:15:32Z</time>
      </trkpt>
      <trkpt lat="44.85624" lon="6.72672">
        <ele>1744.93</ele>
        <time>2017-01-25T15:15:49Z</time>
      </trkpt>
      <trkpt lat="44.85623" lon="6.7267">
        <ele>1744.45</ele>
        <time>2017-01-25T15:16:02Z</time>
      </trkpt>
      <trkpt lat="44.85622" lon="6.72672">
        <ele>1744.45</ele>
        <time>2017-01-25T15:16:18Z</time>
      </trkpt>
      <trkpt lat="44.85622" lon="6.72672">
        <ele>1741.08</ele>
        <time>2017-01-25T15:16:23Z</time>
      </trkpt>
      <trkpt lat="44.85622" lon="6.72672">
        <ele>1744.45</ele>
        <time>2017-01-25T15:16:38Z</time>
      </trkpt>
      <trkpt lat="44.85625" lon="6.72672">
        <ele>1743.97</ele>
        <time>2017-01-25T15:17:06Z</time>
      </trkpt>
      <trkpt lat="44.85624" lon="6.72672">
        <ele>1743.49</ele>
        <time>2017-01-25T15:17:29Z</time>
      </trkpt>
      <trkpt lat="44.85627" lon="6.72672">
        <ele>1743.49</ele>
        <time>2017-01-25T15:17:54Z</time>
      </trkpt>
      <trkpt lat="44.85626" lon="6.72673">
        <ele>1743.97</ele>
        <time>2017-01-25T15:18:17Z</time>
      </trkpt>
      <trkpt lat="44.85625" lon="6.7267">
        <ele>1743.49</ele>
        <time>2017-01-25T15:18:32Z</time>
      </trkpt>
      <trkpt lat="44.85627" lon="6.72668">
        <ele>1743.97</ele>
        <time>2017-01-25T15:18:53Z</time>
      </trkpt>
      <trkpt lat="44.85628" lon="6.72672">
        <ele>1743.97</ele>
        <time>2017-01-25T15:19:28Z</time>
      </trkpt>
      <trkpt lat="44.85627" lon="6.7267">
        <ele>1743.97</ele>
        <time>2017-01-25T15:19:59Z</time>
      </trkpt>
      <trkpt lat="44.85626" lon="6.7267">
        <ele>1743.97</ele>
        <time>2017-01-25T15:20:32Z</time>
      </trkpt>
      <trkpt lat="44.85627" lon="6.7267">
        <ele>1743.97</ele>
        <time>2017-01-25T15:20:59Z</time>
      </trkpt>
      <trkpt lat="44.85626" lon="6.72668">
        <ele>1745.41</ele>
        <time>2017-01-25T15:21:27Z</time>
      </trkpt>
      <trkpt lat="44.85626" lon="6.72668">
        <ele>1743.97</ele>
        <time>2017-01-25T15:21:58Z</time>
      </trkpt>
      <trkpt lat="44.85626" lon="6.72665">
        <ele>1744.45</ele>
        <time>2017-01-25T15:22:35Z</time>
      </trkpt>
      <trkpt lat="44.85626" lon="6.72666">
        <ele>1744.45</ele>
        <time>2017-01-25T15:23:10Z</time>
      </trkpt>
      <trkpt lat="44.85626" lon="6.72667">
        <ele>1744.45</ele>
        <time>2017-01-25T15:23:35Z</time>
      </trkpt>
      <trkpt lat="44.85626" lon="6.72666">
        <ele>1744.45</ele>
        <time>2017-01-25T15:24:07Z</time>
      </trkpt>
      <trkpt lat="44.85626" lon="6.72665">
        <ele>1744.45</ele>
        <time>2017-01-25T15:24:36Z</time>
      </trkpt>
      <trkpt lat="44.85625" lon="6.72666">
        <ele>1744.45</ele>
        <time>2017-01-25T15:25:14Z</time>
      </trkpt>
      <trkpt lat="44.85626" lon="6.72666">
        <ele>1744.45</ele>
        <time>2017-01-25T15:25:49Z</time>
      </trkpt>
      <trkpt lat="44.85625" lon="6.72668">
        <ele>1744.93</ele>
        <time>2017-01-25T15:26:18Z</time>
      </trkpt>
      <trkpt lat="44.85623" lon="6.7267">
        <ele>1744.93</ele>
        <time>2017-01-25T15:26:48Z</time>
      </trkpt>
      <trkpt lat="44.85622" lon="6.72668">
        <ele>1744.93</ele>
        <time>2017-01-25T15:27:19Z</time>
      </trkpt>
      <trkpt lat="44.85626" lon="6.72669">
        <ele>1744.93</ele>
        <time>2017-01-25T15:27:51Z</time>
      </trkpt>
      <trkpt lat="44.85626" lon="6.7267">
        <ele>1744.93</ele>
        <time>2017-01-25T15:28:19Z</time>
      </trkpt>
      <trkpt lat="44.85626" lon="6.72674">
        <ele>1744.93</ele>
        <time>2017-01-25T15:28:48Z</time>
      </trkpt>
      <trkpt lat="44.85625" lon="6.7267">
        <ele>1745.41</ele>
        <time>2017-01-25T15:29:17Z</time>
      </trkpt>
      <trkpt lat="44.85623" lon="6.72672">
        <ele>1745.41</ele>
        <time>2017-01-25T15:29:21Z</time>
      </trkpt>
      <trkpt lat="44.85622" lon="6.72675">
        <ele>1745.89</ele>
        <time>2017-01-25T15:29:38Z</time>
      </trkpt>
      <trkpt lat="44.85623" lon="6.72673">
        <ele>1745.89</ele>
        <time>2017-01-25T15:30:00Z</time>
      </trkpt>
      <trkpt lat="44.85626" lon="6.72671">
        <ele>1745.89</ele>
        <time>2017-01-25T15:30:12Z</time>
      </trkpt>
      <trkpt lat="44.85626" lon="6.72669">
        <ele>1746.37</ele>
        <time>2017-01-25T15:30:50Z</time>
      </trkpt>
      <trkpt lat="44.85625" lon="6.7267">
        <ele>1745.89</ele>
        <time>2017-01-25T15:31:23Z</time>
      </trkpt>
      <trkpt lat="44.85624" lon="6.72672">
        <ele>1745.89</ele>
        <time>2017-01-25T15:31:52Z</time>
      </trkpt>
      <trkpt lat="44.85622" lon="6.72672">
        <ele>1746.37</ele>
        <time>2017-01-25T15:32:00Z</time>
      </trkpt>
    </trkseg>
  </trk>
</gpx>